[[{"header":{"parameterUnit":"m.s-1","parameterCategory":1,"la1":30.6,"la2":28.766,"lo1":-90.7593,"lo2":-88.6598,"dy":0.0162,"dx":0.0183,"nx":116,"ny":114,"refTime":"2024-03-22T06:00:00:Z","depth":0,"parameterNumber":2,"parameterNumberName":"U-component_of_WINDS"},"data":[0.0,0.0,0.0,0.0,0.0,0.0,0.0,0.0,0.0,0.0,0.0,0.0,0.0,0.0,0.0,0.0,0.0,0.0,0.0,0.0,0.0,0.0,0.0,0.0,0.0,0.0,0.0,0.0,0.0,0.0,0.0,0.0,0.0,0.0,0.0,0.0,0.0,0.0,0.0,0.0,0.0,0.0,0.0,0.0,0.0,0.0,0.0,0.0,0.0,0.0,0.0,0.0,0.0,0.0,0.0,0.0,0.0,0.0,0.0,0.0,0.0,0.0,0.0,0.0,0.0,0.0,0.0,0.0,0.0,0.0,0.0,0.0,0.0,0.0,0.0,0.0,0.0,0.0,0.0,0.0,0.0,0.0,0.0,0.0,0.0,0.0,0.0,0.0,0.0,0.0,0.0,0.0,0.0,0.0,0.0,0.0,0.0,0.0,0.0,0.0,0.0,0.0,0.0,0.0,0.0,0.0,0.0,0.0,0.0,0.0,0.0,0.0,0.0,0.0,0.0,0.0,0.0,0.0,0.0,0.0,0.0,0.0,0.0,0.0,0.0,0.0,0.0,0.0,0.0,0.0,0.0,0.0,0.0,0.0,0.0,0.0,0.0,0.0,0.0,0.0,0.0,0.0,0.0,0.0,0.0,0.0,0.0,0.0,0.0,0.0,0.0,0.0,0.0,0.0,0.0,0.0,0.0,0.0,0.0,0.0,0.0,0.0,0.0,0.0,0.0,0.0,0.0,0.0,0.0,0.0,0.0,0.0,0.0,0.0,0.0,0.0,0.0,0.0,0.0,0.0,0.0,0.0,0.0,0.0,0.0,0.0,0.0,0.0,0.0,0.0,0.0,0.0,0.0,0.0,0.0,0.0,0.0,0.0,0.0,0.0,0.0,0.0,0.0,0.0,0.0,0.0,0.0,0.0,0.0,0.0,0.0,0.0,0.0,0.0,0.0,0.0,0.0,0.0,0.0,0.0,0.0,0.0,0.0,0.0,0.0,0.0,0.0,0.0,0.0,0.0,0.0,0.0,0.0,0.0,0.0,0.0,0.0,0.0,0.0,0.0,0.0,0.0,0.0,0.0,0.0,0.0,0.0,0.0,0.0,0.0,0.0,0.0,0.0,0.0,0.0,0.0,0.0,0.0,0.0,0.0,0.0,0.0,0.0,0.0,0.0,0.0,0.0,0.0,0.0,0.0,0.0,0.0,0.0,0.0,0.0,0.0,0.0,0.0,0.0,0.0,0.0,0.0,0.0,0.0,0.0,0.0,0.0,0.0,0.0,0.0,0.0,0.0,0.0,0.0,0.0,0.0,0.0,0.0,0.0,0.0,0.0,0.0,0.0,0.0,0.0,0.0,0.0,0.0,0.0,0.0,0.0,0.0,0.0,0.0,0.0,0.0,0.0,0.0,0.0,0.0,0.0,0.0,0.0,0.0,0.0,0.0,0.0,0.0,0.0,0.0,0.0,0.0,0.0,0.0,0.0,0.0,0.0,0.0,0.0,0.0,0.0,0.0,0.0,0.0,0.0,0.0,0.0,0.0,0.0,0.0,0.0,0.0,0.0,0.0,0.0,0.0,0.0,0.0,0.0,0.0,0.0,0.0,0.0,0.0,0.0,0.0,0.0,0.0,0.0,0.0,0.0,0.0,0.0,0.0,0.0,0.0,0.0,0.0,0.0,0.0,0.0,0.0,0.0,0.0,0.0,0.0,0.0,0.0,0.0,0.0,0.0,0.0,0.0,0.0,0.0,0.0,0.0,0.0,0.0,0.0,0.0,0.0,0.0,0.0,0.0,0.0,0.0,0.0,0.0,0.0,0.0,0.0,0.0,0.0,0.0,0.0,0.0,0.0,0.0,0.0,0.0,0.0,0.0,0.0,0.0,0.0,0.0,0.0,0.0,0.0,0.0,0.0,0.0,0.0,0.0,0.0,0.0,0.0,0.0,0.0,0.0,0.0,0.0,0.0,0.0,0.0,0.0,0.0,0.0,0.0,0.0,0.0,0.0,0.0,0.0,0.0,0.0,0.0,0.0,0.0,0.0,0.0,0.0,0.0,0.0,0.0,0.0,0.0,0.0,0.0,0.0,0.0,0.0,0.0,0.0,0.0,0.0,0.0,0.0,0.0,0.0,0.0,0.0,0.0,0.0,0.0,0.0,0.0,0.0,0.0,0.0,0.0,0.0,0.0,0.0,0.0,0.0,0.0,0.0,0.0,0.0,0.0,0.0,0.0,0.0,0.0,0.0,0.0,0.0,0.0,0.0,0.0,0.0,0.0,0.0,0.0,0.0,0.0,0.0,0.0,0.0,0.0,0.0,0.0,0.0,0.0,0.0,0.0,0.0,0.0,0.0,0.0,0.0,0.0,0.0,0.0,0.0,0.0,0.0,0.0,0.0,0.0,0.0,0.0,0.0,0.0,0.0,0.0,0.0,0.0,0.0,0.0,0.0,0.0,0.0,0.0,0.0,0.0,0.0,0.0,0.0,0.0,0.0,0.0,0.0,0.0,0.0,0.0,0.0,0.0,0.0,0.0,0.0,0.0,0.0,0.0,0.0,0.0,0.0,0.0,0.0,0.0,0.0,0.0,0.0,0.0,0.0,0.0,0.0,0.0,0.0,0.0,0.0,0.0,0.0,0.0,0.0,0.0,0.0,0.0,0.0,0.0,0.0,0.0,0.0,0.0,0.0,0.0,0.0,0.0,0.0,0.0,0.0,0.0,0.0,0.0,0.0,0.0,0.0,0.0,0.0,0.0,0.0,0.0,0.0,0.0,0.0,0.0,0.0,0.0,0.0,0.0,0.0,0.0,0.0,0.0,0.0,0.0,0.0,0.0,0.0,0.0,0.0,0.0,0.0,0.0,0.0,0.0,0.0,0.0,0.0,0.0,0.0,0.0,0.0,0.0,0.0,0.0,0.0,0.0,0.0,0.0,0.0,0.0,0.0,0.0,0.0,0.0,0.0,0.0,0.0,0.0,0.0,0.0,0.0,0.0,0.0,0.0,0.0,0.0,0.0,0.0,0.0,0.0,0.0,0.0,0.0,0.0,0.0,0.0,0.0,0.0,0.0,0.0,0.0,0.0,0.0,0.0,0.0,0.0,0.0,0.0,0.0,0.0,0.0,0.0,0.0,0.0,0.0,0.0,0.0,0.0,0.0,0.0,0.0,0.0,0.0,0.0,0.0,0.0,0.0,0.0,0.0,0.0,0.0,0.0,0.0,0.0,0.0,0.0,0.0,0.0,0.0,0.0,0.0,0.0,0.0,0.0,0.0,0.0,0.0,0.0,0.0,0.0,0.0,0.0,0.0,0.0,0.0,0.0,0.0,0.0,0.0,0.0,0.0,0.0,0.0,0.0,0.0,0.0,0.0,0.0,0.0,0.0,0.0,0.0,0.0,0.0,0.0,0.0,0.0,0.0,0.0,0.0,0.0,0.0,0.0,0.0,0.0,0.0,0.0,0.0,0.0,0.0,0.0,0.0,0.0,0.0,0.0,0.0,0.0,0.0,0.0,0.0,0.0,0.0,0.0,0.0,0.0,0.0,0.0,0.0,0.0,0.0,0.0,0.0,0.0,0.0,0.0,0.0,0.0,0.0,0.0,0.0,0.0,0.0,0.0,0.0,0.0,0.0,0.0,0.0,0.0,0.0,0.0,0.0,0.0,0.0,0.0,0.0,0.0,0.0,0.0,0.0,0.0,0.0,0.0,0.0,0.0,0.0,0.0,0.0,0.0,0.0,0.0,0.0,0.0,0.0,0.0,0.0,0.0,0.0,0.0,0.0,0.0,0.0,0.0,0.0,0.0,0.0,0.0,0.0,0.0,0.0,0.0,0.0,0.0,0.0,0.0,0.0,0.0,0.0,0.0,0.0,0.0,0.0,0.0,0.0,0.0,0.0,0.0,0.0,0.0,0.0,0.0,0.0,0.0,0.0,0.0,0.0,0.0,0.0,0.0,0.0,0.0,0.0,0.0,0.0,0.0,0.0,0.0,0.0,0.0,0.0,0.0,0.0,0.0,0.0,0.0,0.0,0.0,0.0,0.0,0.0,0.0,0.0,0.0,0.0,0.0,0.0,0.0,0.0,0.0,0.0,0.0,0.0,0.0,0.0,0.0,0.0,0.0,0.0,0.0,0.0,0.0,0.0,0.0,0.0,0.0,0.0,0.0,0.0,0.0,0.0,0.0,0.0,0.0,0.0,0.0,0.0,0.0,0.0,0.0,0.0,0.0,0.0,0.0,0.0,0.0,0.0,0.0,0.0,0.0,0.0,0.0,0.0,0.0,0.0,0.0,0.0,0.0,0.0,0.0,0.0,0.0,0.0,0.0,0.0,0.0,0.0,0.0,0.0,0.0,0.0,0.0,0.0,0.0,0.0,0.0,0.0,0.0,0.0,0.0,0.0,0.0,0.0,0.0,0.0,0.0,0.0,0.0,0.0,0.0,0.0,0.0,0.0,0.0,0.0,0.0,0.0,0.0,0.0,0.0,0.0,0.0,0.0,0.0,0.0,0.0,0.0,0.0,0.0,0.0,0.0,0.0,0.0,0.0,0.0,0.0,0.0,0.0,0.0,0.0,0.0,0.0,0.0,0.0,0.0,0.0,0.0,0.0,0.0,0.0,0.0,0.0,0.0,0.0,0.0,0.0,0.0,0.0,0.0,0.0,0.0,0.0,0.0,0.0,0.0,0.0,0.0,0.0,0.0,0.0,0.0,0.0,0.0,0.0,0.0,0.0,0.0,0.0,0.0,0.0,0.0,0.0,0.0,0.0,0.0,0.0,0.0,0.0,0.0,0.0,0.0,0.0,0.0,0.0,0.0,0.0,0.0,0.0,0.0,0.0,0.0,0.0,0.0,0.0,0.0,0.0,0.0,0.0,0.0,0.0,0.0,0.0,0.0,0.0,0.0,0.0,0.0,0.0,0.0,0.0,0.0,0.0,0.0,0.0,0.0,0.0,0.0,0.0,0.0,0.0,0.0,0.0,0.0,0.0,0.0,0.0,0.0,0.0,0.0,0.0,0.0,0.0,0.0,0.0,0.0,0.0,0.0,0.0,0.0,0.0,0.0,0.0,0.0,0.0,0.0,0.0,0.0,0.0,0.0,0.0,0.0,0.0,0.0,0.0,0.0,0.0,0.0,0.0,0.0,0.0,0.0,0.0,0.0,0.0,0.0,0.0,0.0,0.0,0.0,0.0,0.0,0.0,0.0,0.0,0.0,0.0,0.0,0.0,0.0,0.0,0.0,0.0,0.0,0.0,0.0,0.0,0.0,0.0,0.0,0.0,0.0,0.0,0.0,0.0,0.0,0.0,0.0,0.0,0.0,0.0,0.0,0.0,0.0,0.0,0.0,0.0,0.0,0.0,0.0,0.0,0.0,0.0,0.0,0.0,0.0,0.0,0.0,0.0,0.0,0.0,0.0,0.0,0.0,0.0,0.0,0.0,0.0,0.0,0.0,0.0,0.0,0.0,0.0,0.0,0.0,0.0,0.0,0.0,0.0,0.0,0.0,0.0,0.0,0.0,0.0,0.0,0.0,0.0,0.0,0.0,0.0,0.0,0.0,0.0,0.0,0.0,0.0,0.0,0.0,0.0,0.0,0.0,0.0,0.0,0.0,0.0,0.0,0.0,0.0,0.0,0.0,0.0,0.0,0.0,0.0,0.0,0.0,0.0,0.0,0.0,0.0,0.0,0.0,0.0,0.0,0.0,0.0,0.0,0.0,0.0,0.0,0.0,0.0,0.0,0.0,0.0,0.0,0.0,0.0,0.0,0.0,0.0,0.0,0.0,0.0,0.0,0.0,0.0,0.0,0.0,0.0,0.0,0.0,0.0,0.0,0.0,0.0,0.0,0.0,0.0,0.0,0.0,0.0,0.0,0.0,0.0,0.0,0.0,0.0,0.0,0.0,0.0,0.0,0.0,0.0,0.0,0.0,0.0,0.0,0.0,0.0,0.0,0.0,0.0,0.0,0.0,0.0,0.0,0.0,0.0,0.0,0.0,0.0,0.0,0.0,0.0,0.0,0.0,0.0,0.0,0.0,0.0,0.0,0.0,0.0,0.0,0.0,0.0,0.0,0.0,0.0,0.0,0.0,0.0,0.0,0.0,0.0,1.6082,1.6926,0.0,0.0,0.0,0.0,0.0,0.0,0.0,0.0,0.0,0.0,0.0,0.0,0.0,0.0,0.0,0.0,0.0,0.0,0.0,0.0,0.0,0.0,0.0,0.0,0.0,0.0,0.0,0.0,0.0,0.0,0.0,0.0,0.0,0.0,1.3138,1.3104,1.3104,1.3138,1.3584,1.4649,1.6321,1.5808,1.4834,1.3524,0.0,0.0,0.0,0.0,0.0,0.0,0.0,0.0,0.0,0.0,0.0,0.0,0.0,0.0,0.0,0.0,0.0,0.0,0.0,0.0,0.0,0.0,0.0,0.0,0.0,0.0,0.0,0.0,0.0,0.0,0.0,0.0,0.0,0.0,0.0,0.0,0.0,0.0,0.0,0.0,0.0,0.0,0.0,0.0,0.0,0.0,0.0,0.0,0.0,0.0,0.0,0.0,0.0,0.0,0.0,0.0,0.0,0.0,0.0,0.0,0.0,0.0,0.0,0.0,0.0,0.0,0.0,0.0,0.0,0.0,1.9027,1.8497,0.0,0.0,0.0,0.0,0.0,0.0,0.0,0.0,0.0,0.0,0.0,0.0,0.0,0.0,0.0,0.0,0.0,0.0,0.0,0.0,0.0,0.0,0.0,1.6494,1.636,1.4493,1.5331,1.5509,1.4419,1.4241,1.4019,1.3749,1.3615,1.3378,1.3035,1.3,1.3116,1.3323,1.5153,1.7014,1.8954,1.9055,1.7987,1.6052,1.5429,0.0,0.0,0.0,0.0,0.0,0.0,0.0,0.0,0.0,0.0,0.0,0.0,0.0,0.0,0.0,0.0,0.0,0.0,0.0,0.0,0.0,0.0,0.0,0.0,0.0,0.0,0.0,0.0,0.0,0.0,0.0,0.0,0.0,0.0,0.0,0.0,0.0,0.0,0.0,0.0,0.0,0.0,0.0,0.0,0.0,0.0,0.0,0.0,0.0,0.0,0.0,0.0,0.0,0.0,0.0,0.0,0.0,0.0,0.0,0.0,0.0,0.0,0.0,2.1632,2.2338,2.3052,2.211,2.1485,2.1215,2.1252,1.9692,1.7291,1.8288,0.0,0.0,0.0,0.0,0.0,0.0,0.0,0.0,0.0,0.0,0.0,0.0,0.0,0.0,0.0,0.0,0.0,0.0,0.0,0.0,0.0,1.5918,1.5655,1.495,1.5332,1.5308,1.4679,1.4529,1.4406,1.431,1.3947,1.3674,1.3514,1.3446,1.4061,1.5383,1.8829,2.0961,2.1749,2.2571,2.2815,2.2513,1.9502,1.7632,1.6692,0.0,0.0,0.0,0.0,0.0,0.0,0.0,0.0,0.0,0.0,0.0,0.0,0.0,0.0,0.0,0.0,0.0,0.0,0.0,0.0,0.0,0.0,0.0,0.0,0.0,0.0,0.0,0.0,0.0,0.0,0.0,0.0,0.0,0.0,0.0,0.0,0.0,0.0,0.0,0.0,0.0,1.3668,1.3169,0.0,0.0,0.0,0.0,0.0,0.0,0.0,0.0,0.0,0.0,0.0,0.0,0.0,2.0616,2.1021,2.1671,2.2143,2.2207,2.2729,2.2246,2.0763,2.066,1.9965,1.8715,1.9366,0.0,1.8337,1.6454,0.0,0.0,0.0,0.0,0.0,0.0,0.0,0.0,0.0,0.0,0.0,0.0,0.0,0.0,0.0,0.0,0.0,0.0,0.0,0.0,0.0,1.8132,1.9257,1.8621,2.123,2.1559,1.8376,1.8303,1.7193,1.4501,1.4203,1.3974,1.3708,1.4522,1.6299,1.9186,2.1609,2.3674,2.5326,2.6033,2.6586,2.7062,2.5245,2.2631,1.9574,1.8873,0.0,0.0,0.0,0.0,0.0,0.0,0.0,0.0,0.0,0.0,0.0,0.0,0.0,0.0,0.0,0.0,0.0,0.0,0.0,0.0,0.0,0.0,0.0,0.0,0.0,0.0,0.0,0.0,0.0,0.0,0.0,0.0,0.0,0.0,0.0,0.0,0.0,0.0,0.0,1.5012,1.583,1.5403,1.6239,1.696,0.0,0.0,0.0,0.0,0.0,0.0,0.0,0.0,0.0,1.9791,2.1563,2.2339,2.219,2.3197,2.3369,2.2631,2.3131,2.247,2.0853,2.0183,1.9508,1.8813,1.8364,1.7962,1.7573,1.6945,1.7044,1.7449,0.0,0.0,0.0,0.0,1.5065,1.5678,0.0,0.0,0.0,0.0,0.0,0.0,0.0,0.0,0.0,0.0,0.0,0.0,1.7868,2.1623,2.4106,2.4064,2.6895,2.6822,2.2326,2.1223,1.8949,1.5021,1.4511,1.4138,1.3782,1.5963,1.8955,2.2855,2.4656,2.6666,2.8828,2.9238,2.9844,3.0547,3.0215,2.7381,2.2887,2.187,2.0178,1.798,0.0,0.0,0.0,0.0,0.0,0.0,0.0,0.0,0.0,0.0,0.0,0.0,0.0,0.0,0.0,0.0,0.0,0.0,0.0,0.0,0.0,0.0,0.0,0.0,0.0,0.0,0.0,0.0,0.0,0.0,0.0,0.0,0.0,0.0,0.0,0.0,0.0,1.64,1.7412,1.6893,1.817,1.9103,0.0,0.0,0.0,0.0,0.0,0.0,2.0921,2.2159,2.2433,2.1753,2.3221,2.388,2.3496,2.4159,2.4256,2.3852,2.3639,2.2894,2.1762,2.0422,1.9579,1.9233,1.8011,1.7088,1.6368,1.7026,1.6701,1.5739,1.4912,1.5154,1.583,1.4215,1.4101,1.485,0.0,0.0,0.0,0.0,0.0,0.0,0.0,0.0,0.0,0.0,0.0,2.041,2.2698,2.6253,2.9314,3.1316,2.9712,2.7581,2.5255,2.1212,1.8075,1.6108,1.4925,1.4144,1.3795,1.7917,2.1896,2.5664,2.8522,3.0566,3.1953,3.2363,3.2812,3.3223,3.3203,3.0758,2.6697,2.4947,2.2838,2.0419,1.8232,0.0,0.0,0.0,0.0,0.0,0.0,0.0,0.0,0.0,0.0,0.0,0.0,0.0,0.0,0.0,0.0,0.0,0.0,0.0,0.0,0.0,0.0,0.0,0.0,0.0,0.0,0.0,0.0,0.0,0.0,0.0,0.0,0.0,0.0,0.0,0.0,0.0,0.0,1.5813,1.804,0.0,0.0,0.0,0.0,2.2535,2.2382,2.2453,2.294,2.3541,2.3844,2.3713,2.4526,2.5408,2.6191,2.5164,2.5301,2.671,2.459,2.3431,2.3102,2.1665,2.0212,1.8942,1.855,1.73,1.5443,1.524,1.4523,1.3661,1.4774,1.4723,1.3975,1.3652,1.353,1.3248,0.0,0.0,0.0,0.0,0.0,0.0,0.0,0.0,1.531,1.5908,1.7944,2.0745,2.4315,2.9413,3.3377,3.54,3.6517,3.539,3.1201,2.6147,2.2184,1.9679,1.6035,1.5386,1.8329,2.1732,2.5349,2.9115,3.0701,3.2129,3.3398,3.3828,3.4394,3.5098,3.5098,3.4446,3.3021,2.9577,2.6763,2.4206,2.1411,1.8443,0.0,0.0,0.0,0.0,0.0,0.0,0.0,0.0,0.0,0.0,0.0,0.0,0.0,0.0,0.0,0.0,0.0,0.0,0.0,0.0,0.0,0.0,0.0,0.0,0.0,0.0,0.0,0.0,0.0,0.0,0.0,0.0,0.0,0.0,0.0,0.0,0.0,2.0394,2.1973,0.0,2.3888,2.3104,2.3016,2.4137,2.4156,2.4166,2.4391,2.5117,2.5635,2.584,2.6699,2.7422,2.8008,2.7879,2.7068,2.5611,2.4855,2.3299,2.1248,2.0794,2.0205,1.9679,1.8135,1.7089,1.6287,1.4641,1.329,1.2428,1.2242,1.1828,1.1282,1.0593,1.0306,1.0254,0.0,0.0,0.0,0.0,0.0,0.0,0.0,0.0,1.5174,1.6356,1.9052,2.254,2.6964,3.2665,3.7442,4.0716,4.1031,3.9219,3.4841,2.8826,2.3807,2.0202,1.7297,1.8,2.2814,2.5128,2.8192,3.1973,3.2832,3.3828,3.4961,3.5234,3.5762,3.6445,3.6601,3.6816,3.6894,3.3711,3.0797,2.7898,2.4696,2.1291,1.7877,0.0,0.0,0.0,0.0,0.0,0.0,0.0,0.0,0.0,0.0,0.0,0.0,0.0,0.0,0.0,0.0,0.0,0.0,0.0,0.0,0.0,0.0,0.0,0.0,0.0,0.0,0.0,0.0,0.0,0.0,0.0,0.0,0.0,0.0,2.095,2.3075,2.3283,2.4839,2.6279,2.7218,2.5805,2.5386,2.652,2.6269,2.6016,2.6152,2.6855,2.7363,2.7656,2.834,2.8867,2.9141,2.8991,2.7838,2.5608,2.4675,2.3154,2.0939,2.047,1.9902,1.9183,1.7756,1.6514,1.5215,1.3548,1.2128,1.0984,1.0723,1.0092,0.9476,0.8889,0.8635,0.87,0.0,0.0,0.0,0.0,0.0,0.0,0.0,1.4829,1.5717,1.7663,2.1479,2.5859,3.0738,3.6027,4.1309,4.6852,4.2547,3.8343,3.5704,2.878,2.2525,1.7517,1.8811,2.1925,2.6778,2.8161,3.0561,3.416,3.5019,3.5879,3.6719,3.6738,3.6973,3.7383,3.7793,3.7988,3.793,3.7109,3.4805,3.1268,2.7998,2.4125,2.0139,0.0,0.0,0.0,0.0,0.0,0.0,0.0,0.0,0.0,0.0,0.0,0.0,0.0,0.0,0.0,0.0,0.0,0.0,0.0,0.0,0.0,0.0,0.0,0.0,0.0,0.0,0.0,0.0,0.0,0.0,0.0,0.0,0.0,1.9302,2.1947,2.4054,2.4116,2.63,2.8181,2.9168,2.8006,2.7901,2.98,2.8528,2.791,2.832,2.8711,2.8945,2.8965,2.9375,2.959,2.9609,2.8381,2.7553,2.7043,2.4356,2.2931,2.2393,2.0846,1.9246,1.7644,1.7322,1.5328,1.2231,1.1971,1.0951,0.9513,1.0462,0.9853,0.8628,0.9023,0.9007,0.873,0.0,0.0,0.0,0.0,0.0,0.0,0.0,1.3769,1.481,1.7334,2.1861,2.6913,3.2569,3.7536,4.171,4.4749,4.1903,3.8742,3.5743,2.8748,2.3143,1.9468,2.2914,2.6268,2.902,3.1445,3.374,3.5957,3.6504,3.7051,3.7598,3.8223,3.8574,3.8691,3.9141,3.9355,3.9316,3.875,3.6876,3.4103,3.1565,2.796,2.3689,0.0,0.0,0.0,0.0,0.0,0.0,0.0,0.0,0.0,0.0,0.0,0.0,0.0,0.0,0.0,0.0,0.0,0.0,0.0,0.0,0.0,0.0,0.0,0.0,0.0,0.0,0.0,0.0,0.0,0.0,0.0,2.1625,2.2725,2.2055,2.4411,2.6431,2.7043,2.8849,3.0049,2.9888,3.0108,3.0148,2.9739,2.9538,2.9414,2.9219,2.9336,2.9531,2.9844,2.9961,3.0195,3.0527,2.9053,2.7599,2.6287,2.4345,2.2777,2.1479,1.9701,1.8716,1.8105,1.5493,1.3717,1.2653,1.1126,1.0193,0.9513,0.9639,0.9396,0.8954,0.9028,0.8943,0.8818,0.0,0.0,0.0,0.0,0.0,0.0,0.0,1.3707,1.5252,1.828,2.2708,2.7614,3.288,3.7171,4.0595,4.2816,3.9114,3.5706,3.3394,2.7151,2.3667,2.4003,2.7274,3.0247,3.2706,3.474,3.6367,3.7734,3.7969,3.832,3.8769,3.9258,3.9492,3.9512,3.9961,3.9681,3.8707,3.8443,3.6947,3.4637,3.2966,2.9744,2.5465,2.3825,2.1009,1.7763,1.6834,1.6546,1.6519,1.4971,0.0,0.0,0.0,0.0,0.0,0.0,0.0,0.0,0.0,0.0,0.0,0.0,0.0,0.0,0.0,0.0,0.0,0.0,0.0,0.0,0.0,0.0,0.0,0.0,2.3352,2.464,2.5186,2.6804,2.8188,2.8996,3.0312,3.1269,3.1647,3.1544,3.1348,3.1043,3.0675,3.0391,3.0137,3.0117,3.0234,3.0488,3.0488,3.0258,2.9903,2.892,2.7211,2.5024,2.4054,2.2327,1.9941,1.8896,1.7731,1.6172,1.4021,1.2588,1.1749,1.0595,0.9943,0.9788,0.0,0.0,0.0,0.0,0.9083,0.9042,0.0,0.0,0.0,0.0,0.0,0.0,0.0,1.4158,1.624,1.9602,2.3657,2.7884,3.2133,3.5605,3.8544,4.0938,3.5489,3.1257,2.9843,2.5241,2.4805,2.9761,3.1653,3.3993,3.6875,3.7793,3.8574,3.9277,3.9375,3.9609,3.9961,4.0019,4.0039,4.0059,4.0488,3.9353,3.7391,3.7481,3.6043,3.3692,3.29,3.0066,2.6374,2.531,2.3115,2.0537,1.998,1.9303,1.8557,1.7513,0.0,0.0,0.0,0.0,0.0,0.0,0.0,0.0,0.0,0.0,0.0,0.0,0.0,0.0,0.0,0.0,0.0,0.0,0.0,0.0,0.0,0.0,0.0,0.0,2.5048,2.637,2.827,2.9023,2.959,3.0195,3.1094,3.2078,3.3389,3.2374,3.1998,3.2924,3.1712,3.0918,3.0957,3.0918,0.0,0.0,0.0,2.9941,2.8408,2.8104,2.6399,2.3574,2.345,2.1672,1.8512,1.8244,1.6431,1.3325,1.3029,1.1995,1.0538,1.0273,1.0141,1.0086,0.97,0.9476,0.9238,0.9387,0.9279,0.9198,0.0,0.0,0.0,0.0,0.0,0.0,0.0,1.3736,1.5589,1.9492,2.3084,2.681,3.0839,3.4023,3.6602,3.8462,3.4238,3.0381,2.8065,2.8104,2.9477,3.2554,3.5002,3.7014,3.8672,3.957,3.9941,3.9766,4.0449,4.0664,4.041,4.0762,4.0918,4.0957,4.1367,4.0211,3.7824,3.8455,3.6232,3.2176,3.2039,3.0566,2.8364,2.7553,2.5659,2.3254,2.2208,2.2346,2.2628,2.0397,2.0308,2.0813,1.8869,1.7691,0.0,0.0,0.0,0.0,0.0,0.0,0.0,0.0,0.0,0.0,0.0,0.0,0.0,0.0,0.0,0.0,0.0,0.0,0.0,2.3604,2.5641,2.7603,3.0081,3.1348,3.1719,3.0859,3.1816,3.2525,3.2534,3.2273,3.2113,3.2375,3.1505,3.1035,3.1387,3.1074,3.0898,3.0898,2.9849,2.8992,2.8426,2.6035,2.4439,2.3574,2.2215,0.0,1.85,1.7076,1.5265,1.3193,1.1754,1.0975,1.0439,1.0457,1.031,1.0067,0.9856,0.9557,0.9191,0.9367,0.9367,0.9346,0.0,0.0,0.0,0.0,0.0,0.0,0.0,1.3916,1.5427,1.8216,2.1293,2.4262,2.6903,2.9439,3.1251,3.1776,2.955,2.7634,2.6592,2.9147,3.229,3.6117,3.8019,3.9512,4.0781,4.1465,4.1699,4.1484,4.1914,4.2012,4.1797,4.1797,4.1797,4.1816,4.2031,4.016,3.6869,3.7439,3.4783,3.0496,3.0651,2.9972,2.8797,2.8002,2.6776,2.5398,2.4502,2.4289,2.4165,2.2226,2.1874,2.1896,2.0149,1.9298,1.8787,0.0,0.0,0.0,0.0,0.0,0.0,0.0,0.0,0.0,0.0,0.0,0.0,0.0,0.0,1.9002,1.9811,0.0,2.272,2.5606,2.7176,2.8902,3.1479,3.2754,3.3047,3.1973,3.2598,3.2949,3.2519,3.248,3.2402,3.2187,3.1777,3.1523,3.1523,3.1523,3.1049,2.9968,2.9477,2.8237,2.6265,2.4718,2.3398,2.2341,2.1475,2.0195,1.8512,1.7602,1.5784,1.3193,1.2413,1.1497,1.0585,1.0585,1.0426,1.0101,1.0046,0.9875,0.9517,0.9538,0.947,0.9449,0.0,0.0,0.0,0.0,0.0,0.0,0.0,1.4072,1.5178,1.6848,1.9105,2.1211,2.2818,2.4671,2.5576,2.4807,2.5472,2.6069,2.633,3.0379,3.4863,3.9492,4.0547,4.1543,4.2656,4.3105,4.334,4.334,4.334,4.334,4.332,4.2891,4.2676,4.2676,4.2249,3.9723,3.5955,3.589,3.3308,2.9325,2.9566,2.9339,2.8791,2.819,2.7589,2.6987,2.6293,2.5567,2.4562,2.3453,2.27,2.2093,2.1074,2.0515,2.031,1.997,1.9659,0.0,0.0,0.0,0.0,0.0,0.0,0.0,0.0,1.8398,1.8495,2.0954,2.163,2.2063,2.2711,2.3583,2.4986,2.7105,2.8228,2.9725,3.2276,3.3572,3.4004,3.3144,3.334,3.3418,3.3086,3.2891,3.2695,3.2422,3.2266,3.2051,3.1777,3.2012,3.1245,2.9148,2.9066,2.7428,2.4157,2.3775,2.2865,2.1189,2.1189,2.0246,1.8512,1.8512,1.6818,1.384,1.3473,1.2437,1.1136,1.0857,1.0487,1.0246,1.0329,1.0129,0.9897,0.9666,0.953,0.9503,0.0,0.0,0.0,0.0,0.0,0.0,0.0,0.0,1.4111,1.6343,1.7387,1.8807,2.1061,2.2315,2.2582,2.1509,2.6626,2.9472,2.8634,3.3973,3.8437,4.1387,4.2324,4.3027,4.3555,4.4004,4.4258,4.4258,4.4258,4.4258,4.4238,4.3769,4.3555,4.3409,4.1713,3.9265,3.6576,3.4972,3.2765,3.0221,3.0247,3.006,2.97,2.9112,2.8524,2.7856,2.6734,2.6024,2.5275,2.4049,2.3511,2.3227,2.2681,2.2215,2.1714,2.1154,2.0052,1.9029,1.9462,1.877,1.8244,1.9258,1.8245,1.7891,0.0,2.1316,2.1331,2.3531,2.4585,2.4715,2.3457,2.4099,2.4964,2.5559,2.7439,2.9543,3.1594,3.3823,3.4922,3.4043,3.3965,3.3984,3.3926,3.3242,3.293,3.3262,3.2598,3.2305,3.2637,3.2344,3.1379,2.9527,2.8066,2.6439,2.4357,2.2958,2.2051,2.151,2.151,2.0438,1.8512,1.8512,1.7474,1.5534,1.3936,1.3186,1.2921,1.1401,1.0683,1.0616,1.0399,1.0431,1.0249,0.991,0.9781,0.9774,0.0,0.0,0.0,0.0,0.0,0.0,0.0,0.0,0.0,1.4497,1.5089,1.5847,1.7048,1.7961,1.8284,1.7729,2.3337,2.7386,2.876,3.4592,3.9297,4.2402,4.3613,4.4414,4.4844,4.5527,4.5879,4.5879,4.5879,4.5742,4.5488,4.3633,4.259,4.2196,3.9913,3.7606,3.5211,3.4804,3.3028,3.0621,3.0795,3.0381,2.9619,2.9192,2.8243,2.7069,2.6937,2.6239,0.0,2.4287,2.3723,2.3369,2.2607,2.2281,2.21,2.1439,2.0789,2.0159,1.9512,1.9243,1.9145,1.8834,1.899,1.9932,2.2911,2.3245,2.3677,2.6528,2.7073,2.7085,2.6987,2.6315,2.6827,2.9576,3.0193,3.1319,3.3848,3.5085,3.5332,3.4199,3.3633,3.3418,3.3672,3.3144,3.2969,3.3379,3.3105,3.2871,3.2793,3.1713,3.0336,2.8408,2.6761,2.5076,2.3266,2.2454,2.1844,2.155,2.1376,2.0834,2.0068,2.0068,1.9024,1.7345,1.5574,1.42,1.3195,1.2452,1.163,1.0711,1.0609,1.0493,1.0358,1.0093,0.9924,0.9943,0.0,0.0,0.0,0.0,0.0,0.0,0.0,0.0,0.0,0.0,1.3386,1.3883,1.4561,1.5294,1.57,1.5677,2.0459,2.4892,2.8216,3.3777,3.8681,4.2715,4.4258,4.5332,4.6016,4.6738,4.7168,4.7285,4.7168,4.7012,4.6816,4.3819,4.2387,4.194,3.8678,3.6339,3.4721,3.4231,3.2883,3.1169,3.1303,3.0702,2.9646,2.8938,2.7825,2.6544,2.6638,2.5887,2.4722,2.4073,2.3591,2.3234,2.2631,2.259,2.2633,2.2013,2.172,2.1407,2.0154,2.0117,2.0159,1.9325,1.9964,2.1729,2.4729,2.5423,2.6339,2.9868,3.0465,3.0338,3.048,2.9478,2.9493,3.2526,3.2832,3.3279,3.5331,3.5819,3.5488,3.4062,3.3027,3.2559,3.2871,3.2832,3.293,3.3223,3.3359,3.3281,3.2988,3.1388,2.9573,2.7767,2.599,2.4245,2.2418,2.2124,2.1844,2.155,2.0811,2.0527,2.0335,1.9941,1.9291,1.8384,1.6689,1.5183,1.3945,1.3481,1.2281,1.0717,1.0717,1.0629,1.048,1.0276,1.0046,0.995,0.0,0.0,0.0,0.0,0.0,0.0,0.0,0.0,0.0,0.0,0.0,0.0,0.0,1.566,1.6107,1.6454,1.9541,2.3229,2.7399,3.1889,3.6893,4.2187,4.4101,4.5605,4.6875,4.7324,4.7754,4.8164,4.7754,4.7754,4.8144,4.5076,4.3556,4.3355,3.8497,3.625,3.6059,3.363,3.2332,3.2038,3.177,3.1129,3.014,2.8404,2.7518,2.6979,2.5712,2.4499,2.352,2.3372,2.3038,2.2791,2.3309,2.3455,2.3335,2.3366,2.2988,2.2514,2.1882,2.1383,2.1173,2.171,2.145,2.2216,2.6632,2.8212,2.9929,3.3688,3.5159,3.5218,3.3411,3.33,3.3232,3.2224,3.3709,3.5048,3.4884,3.5501,3.5371,3.3652,3.2324,3.1562,3.1582,3.2305,3.2793,3.2812,3.3184,3.3418,3.3398,3.1689,2.9977,2.8279,2.6114,2.4245,2.2418,2.2124,2.1844,2.155,1.9813,1.8877,1.85,1.6818,1.6947,1.8384,1.6689,1.5913,1.5664,1.397,1.2281,1.0717,1.0717,1.0717,1.0683,1.0487,1.0294,0.995,0.0,0.0,0.0,0.0,0.0,0.0,0.0,0.0,0.0,0.0,0.0,0.0,0.0,0.0,0.0,0.0,1.8437,2.1366,2.4181,2.9737,3.4326,3.7569,4.1857,4.4492,4.5234,4.6504,4.7363,4.7793,4.5951,4.5185,4.5132,4.0865,3.8749,3.8545,3.4957,3.3559,3.3353,3.2421,3.1677,3.1209,3.0915,3.0123,2.9044,2.8132,2.6944,2.5513,0.0,2.4622,2.39,2.3281,2.2862,2.2509,2.2005,2.2307,2.2678,2.1878,2.1755,2.1629,2.0837,2.134,2.2212,2.2476,2.4041,2.6309,2.9216,3.108,3.278,3.5047,3.4457,3.3376,3.2848,3.0878,3.0329,3.3478,3.3913,3.4501,3.6656,3.6862,3.5801,3.293,3.2207,3.1484,3.0332,3.1016,3.1777,3.2344,3.1721,3.1299,3.1299,2.8578,2.6867,2.6439,2.4419,2.3075,2.2418,2.2124,2.1844,2.155,1.9695,1.8147,1.7145,1.6338,1.6398,1.6923,1.6244,1.5265,1.4101,1.3578,1.2281,1.0717,1.0717,1.0717,1.0711,1.0643,1.0534,1.0358,0.0,0.0,0.0,0.0,0.0,0.0,0.0,0.0,0.0,0.0,0.0,0.0,0.0,0.0,0.0,0.0,0.0,1.9448,2.2143,2.6248,2.9944,3.2995,3.7015,3.9524,4.0127,4.1381,4.225,4.2526,4.1376,4.0663,4.0655,3.7105,3.5509,3.5428,3.2772,3.1637,3.161,3.133,3.0921,3.0192,3.0101,2.9163,2.8145,2.7493,2.6471,0.0,2.489,2.444,2.3859,2.3216,2.268,2.2159,2.1192,2.155,2.2104,2.126,2.1618,2.2117,2.1456,2.2264,2.3299,2.3515,2.5221,2.757,3.026,3.1861,3.3193,3.4537,3.3538,3.2138,3.1416,2.9434,2.9374,3.351,3.3793,3.4316,3.709,3.6699,3.5273,3.2891,3.2207,3.1188,2.9317,2.9697,3.0306,3.099,3.053,2.9941,2.9287,2.6692,2.5293,2.5502,2.3593,2.2525,2.2418,2.2231,2.1674,2.0618,1.8862,1.7065,1.5385,1.4593,1.453,1.5186,1.4969,1.4362,1.3325,1.3325,1.2281,1.0717,1.0717,1.0717,1.0717,1.0717,1.0585,1.0531,0.0,0.0,0.0,0.0,0.0,0.0,0.0,0.0,0.0,0.0,0.0,0.0,0.0,0.0,0.0,0.0,0.0,0.0,2.1062,2.1876,2.4075,2.8348,3.0221,3.1482,3.2292,3.31,3.3472,3.3374,3.4164,3.4646,3.4994,3.3884,3.3429,3.3746,3.1637,3.0536,3.0523,3.042,2.9824,2.9007,2.9094,2.8403,2.7344,2.6679,2.6191,2.5722,2.4566,2.3972,2.3537,2.3173,2.2431,2.1512,2.0989,2.1198,2.1691,2.146,2.2506,2.3779,2.3582,2.4023,2.4462,2.4638,2.5117,2.664,3.0098,3.0772,3.1237,3.2514,3.2322,3.1304,2.9353,2.9245,3.0209,3.255,3.3161,3.4206,3.6348,3.5026,3.3805,3.3262,3.2138,3.0572,2.8498,2.8325,2.8487,2.8778,2.9493,2.927,2.7619,2.6121,2.5383,2.5383,2.3788,2.2712,2.2418,2.2392,2.1288,1.9066,1.7427,1.5548,1.3511,1.1767,1.1895,1.3344,1.3277,1.3193,1.3193,1.3193,1.215,1.0717,1.0717,1.0717,1.0717,1.0717,1.0717,1.0717,0.0,0.0,0.0,0.0,0.0,0.0,0.0,0.0,0.0,0.0,0.0,0.0,0.0,0.0,0.0,0.0,0.0,0.0,1.7126,1.934,2.145,2.3402,2.6935,2.9306,3.0294,3.1523,3.2342,3.2554,3.0823,3.0194,3.0373,2.8461,2.7632,2.7865,2.7906,2.7772,2.7485,2.7794,2.7694,2.7398,2.7352,2.6877,2.6172,2.6082,2.561,2.487,2.479,2.4304,2.3653,2.2685,2.1599,2.0565,2.0687,2.081,2.0927,2.0889,2.1709,2.2806,2.2704,2.3854,2.5091,2.5496,2.692,2.8595,3.0598,3.0908,3.1164,3.2307,3.0154,2.7805,2.6939,2.6635,2.7602,3.0917,3.143,3.2352,3.5,3.3695,3.1769,2.9847,2.9516,2.8717,2.6991,2.6873,2.6529,2.5644,2.5704,2.5794,2.5666,2.4295,2.3529,2.3529,2.3133,2.2712,2.2418,2.1991,2.0976,1.9475,1.881,1.6994,1.4212,1.353,1.2733,1.1769,1.1495,1.1372,1.1372,1.1372,1.1108,1.0717,1.0717,1.0717,1.0717,1.0717,1.0717,1.0717,0.0,0.0,0.0,0.0,0.0,0.0,0.0,0.0,0.0,0.0,0.0,0.0,0.0,0.0,0.0,0.0,0.0,0.0,0.0,1.707,1.8144,1.8884,2.1303,2.3008,2.37,2.4513,2.5167,2.5388,2.4315,2.402,2.4315,2.391,2.3681,2.3851,2.4648,2.5114,2.5119,2.5294,2.5473,0.0,0.0,2.5644,2.5309,2.5681,2.5355,2.4785,2.4837,2.431,2.3393,2.2595,2.1869,2.1465,2.1967,2.2687,2.3287,2.3272,2.4421,2.5846,2.5901,2.6388,2.6875,2.7227,2.7353,2.7715,2.8939,2.8939,2.883,2.8922,2.724,2.5389,2.4393,2.3904,2.4748,2.7923,2.8192,2.8967,3.1914,3.1195,2.9987,2.8919,2.8656,2.7849,2.5832,2.5738,2.5175,2.3577,2.4101,2.4174,2.3847,2.3229,2.2859,2.2859,2.2859,2.2779,2.2619,2.2285,2.1619,2.0588,1.9999,1.8139,1.5283,1.4388,1.2933,1.1145,1.0846,1.0717,1.0717,1.0717,1.0717,1.0717,1.0717,1.0717,1.0717,1.0717,1.0717,1.0717,0.0,0.0,0.0,0.0,0.0,0.0,0.0,0.0,0.0,0.0,0.0,0.0,0.0,0.0,0.0,0.0,0.0,0.0,0.0,0.0,1.5196,1.5482,1.5587,1.5803,1.6124,1.6314,1.6484,1.6696,1.7475,1.8037,1.8453,2.0025,2.082,2.098,2.1836,2.2388,2.2807,2.2722,2.3178,2.3824,2.4166,2.4276,2.4448,0.0,2.4997,2.4539,2.4459,2.3819,2.2987,2.2909,2.2908,2.3235,2.3993,2.5358,2.6702,2.6932,2.8442,3.0211,3.0598,3.0124,2.9534,2.9488,2.764,2.6022,2.6777,2.6321,2.5593,2.477,2.4562,2.3931,2.2145,2.195,2.2703,2.4754,2.4855,2.568,2.8456,2.8221,2.802,2.8445,2.8173,2.7154,2.5026,2.479,2.4142,2.2606,2.3502,2.3591,2.2593,2.2726,2.2859,2.2859,2.2859,2.2859,2.2859,2.2642,2.2255,2.17,2.0327,1.8364,1.6118,1.4719,1.2933,1.1145,1.0846,1.0717,1.0717,1.0717,1.0717,1.0717,1.0717,1.0717,1.0717,1.0717,1.0717,1.0717,0.0,0.0,0.0,0.0,0.0,0.0,0.0,0.0,0.0,0.0,1.5061,1.5884,0.0,0.0,0.0,0.0,0.0,0.0,0.0,0.0,0.0,1.5289,1.5377,1.5653,1.6237,1.6683,1.6841,1.6771,1.6666,1.6829,1.7307,1.7306,1.748,1.7875,1.8829,1.9301,1.9424,2.0041,2.0948,2.1945,2.1935,2.221,2.2652,2.3017,0.0,0.0,2.2295,2.2499,2.3092,2.4275,2.435,2.4212,2.5447,2.6347,2.728,2.8381,2.9647,3.0804,3.1722,3.2241,3.2309,3.2032,2.9539,2.7522,2.8295,2.5992,2.3932,2.4438,2.408,2.3189,2.1843,2.328,2.4631,2.4634,2.5107,2.5911,2.7262,2.6026,2.4897,2.5096,2.4832,2.4274,2.3379,2.3092,2.2916,2.2766,2.2768,2.2727,2.2766,2.2832,2.2859,2.2859,2.2859,2.2859,2.2859,2.0994,2.0134,2.0335,1.8211,1.6304,1.4745,1.4294,1.2933,1.1145,1.0846,1.0717,1.0717,1.0717,1.0717,1.0717,1.0717,1.0717,1.0717,1.0717,1.0717,1.0717,0.0,0.0,0.0,0.0,0.0,0.0,0.0,1.2913,1.3725,1.4127,1.5128,1.578,1.5715,1.5691,0.0,0.0,0.0,0.0,0.0,0.0,0.0,0.0,1.4675,1.488,1.5411,1.5586,1.5631,1.5639,0.0,1.5669,1.5519,1.5976,1.603,1.5813,1.7159,1.77,1.7685,1.8555,1.9331,1.9959,1.9923,2.0371,2.1096,0.0,0.0,0.0,2.0836,2.1429,2.2533,2.3413,2.4055,2.5069,2.8066,2.9635,3.0479,3.084,3.2239,3.3879,3.3963,3.4412,3.4602,3.4012,3.0535,2.7264,2.7233,2.4664,2.2475,2.2775,2.2849,2.2625,2.2049,2.2778,2.3466,2.3687,2.3236,2.344,2.4887,2.3778,2.306,2.3674,2.3621,2.3367,2.2899,2.2592,2.2539,2.2846,2.2579,2.2552,2.2846,2.2859,2.2859,2.2859,2.2859,2.2859,2.2859,2.1752,2.0712,1.9851,1.8913,1.6975,1.4139,1.4009,1.2933,1.1145,1.0846,1.0717,1.0717,1.0717,1.0717,1.0717,1.0717,1.0717,1.0717,1.0717,1.0717,1.0717,0.0,0.0,0.0,0.0,0.0,0.0,0.0,1.3071,1.3818,1.4386,1.5139,1.5671,1.5671,1.5603,1.5558,0.0,0.0,0.0,0.0,0.0,0.0,0.0,0.0,0.0,1.4534,0.0,0.0,1.4602,1.4932,0.0,0.0,0.0,0.0,0.0,1.6146,1.6698,1.6714,1.747,1.7965,0.0,0.0,1.8639,1.9494,0.0,0.0,0.0,0.0,2.0112,2.1336,2.1948,2.3168,2.5119,2.9065,3.1191,3.2211,3.1939,3.3652,3.5587,3.5182,3.5259,3.5344,3.4783,3.0508,2.6482,2.5767,2.3448,2.1398,2.128,2.1761,2.2171,2.2071,2.1914,2.205,2.2487,2.1677,2.1489,2.3052,2.2566,2.236,2.306,2.3287,2.3207,2.2886,2.2645,2.2605,2.2846,2.2645,2.2619,2.2846,2.2859,2.2859,2.2859,2.2859,2.2722,2.2297,2.1821,2.0585,1.8501,1.8313,1.6509,1.352,1.3441,1.2795,1.1689,1.1015,1.0877,1.124,1.085,1.0717,1.0717,1.0717,1.0717,1.0717,1.0717,1.0717,1.0717,0.0,0.0,0.0,0.0,0.0,0.0,0.0,1.2991,1.3735,1.4324,1.5052,1.5513,1.5513,1.5647,1.5671,0.0,0.0,0.0,0.0,0.0,0.0,0.0,0.0,0.0,0.0,0.0,0.0,1.4673,1.4516,0.0,0.0,0.0,0.0,0.0,0.0,1.5828,1.619,1.6265,0.0,0.0,0.0,0.0,0.0,0.0,0.0,0.0,0.0,1.8207,1.9088,2.0711,2.2211,2.3806,2.5979,2.7623,2.8917,2.971,3.0969,3.224,3.2775,3.3213,3.3242,3.2859,2.9329,2.5897,2.5552,2.3204,2.1059,2.1101,2.1701,2.1893,2.0956,2.1727,2.2161,2.1199,2.2291,2.3169,2.2607,2.3022,2.3275,2.2944,2.3153,2.3207,2.2886,2.2832,2.2832,2.2859,2.2832,2.2832,2.2859,2.2859,2.2859,2.2859,2.2859,2.2022,2.034,1.8429,1.6619,1.4823,1.2982,1.1895,1.1872,1.1573,1.2253,1.3456,1.1668,1.177,1.2931,1.1372,1.0717,1.0717,1.0717,1.0717,1.0717,1.0717,1.0717,1.0717,0.0,0.0,0.0,0.0,0.0,0.0,1.268,1.3465,1.4163,1.4541,1.5227,1.5647,1.5626,1.578,1.578,0.0,0.0,0.0,0.0,0.0,0.0,0.0,0.0,0.0,0.0,0.0,1.4345,1.4152,1.4328,0.0,0.0,0.0,0.0,0.0,0.0,1.5384,1.5211,1.5818,0.0,0.0,0.0,0.0,0.0,0.0,0.0,0.0,0.0,0.0,1.7889,1.896,1.9959,2.0928,2.2734,2.3705,2.47,2.662,2.9184,3.1283,3.074,3.1725,3.2885,3.2307,2.8694,2.5423,2.5718,2.3,2.0467,2.1047,2.1677,2.2044,2.1453,2.2076,2.2645,2.2594,2.2479,2.2315,2.2125,2.1595,2.1309,2.1611,2.1804,2.2151,2.2552,2.2592,2.2592,2.2592,2.2766,2.2859,2.2859,2.2859,2.2859,2.2859,2.2859,2.2585,2.1734,1.9807,1.7993,1.6122,1.4031,1.2522,1.1606,1.1301,1.1621,1.2249,1.1323,1.1312,1.1777,1.1017,1.0717,1.0717,1.0717,1.0717,1.0717,1.0717,1.0717,1.0717,0.0,0.0,0.0,0.0,0.0,1.2682,1.3097,1.3725,1.4321,1.4838,1.5365,1.5691,1.5715,1.5869,1.5869,1.5558,0.0,0.0,0.0,0.0,0.0,0.0,0.0,0.0,0.0,0.0,1.414,1.3879,1.4098,1.4063,0.0,0.0,1.3846,1.3585,0.0,0.0,0.0,0.0,0.0,0.0,0.0,0.0,0.0,0.0,0.0,0.0,0.0,0.0,0.0,0.0,0.0,1.9062,2.0444,2.1174,2.1953,2.3909,2.6773,2.8938,2.7642,2.896,3.0515,2.986,2.6755,2.4143,2.4527,2.2299,2.0217,2.104,2.1737,2.2173,2.2149,2.2482,2.298,2.367,2.2969,2.2386,2.259,2.1373,2.0782,2.1744,2.1464,2.1737,2.2851,2.2722,2.2552,2.2552,2.2739,2.2859,2.2859,2.2859,2.2859,2.2859,2.2859,2.2585,2.2022,2.0756,1.8798,1.6404,1.4937,1.3279,1.1606,1.1301,1.1518,1.2071,1.1393,1.1254,1.1603,1.096,1.0758,1.0717,1.0717,1.0717,1.0717,1.0717,1.0717,1.0717,0.0,0.0,0.0,0.0,0.0,0.0,1.3432,1.3493,1.3899,1.5327,1.5513,1.5558,1.5804,1.5913,1.5913,1.5715,0.0,0.0,0.0,0.0,0.0,0.0,0.0,0.0,0.0,0.0,1.428,1.402,1.3716,1.3848,1.4283,1.341,1.3332,1.3882,0.0,0.0,0.0,0.0,0.0,0.0,0.0,0.0,0.0,0.0,0.0,0.0,0.0,0.0,0.0,0.0,0.0,0.0,0.0,2.0462,2.1454,2.1765,2.2967,2.4099,2.349,2.4027,2.4713,2.4344,2.2897,2.1561,2.1506,2.0884,2.0432,2.0947,2.1675,2.2321,2.2629,2.269,2.2949,2.3657,2.394,2.407,2.4157,2.3008,2.2736,2.4349,2.2771,2.2243,2.3892,2.3364,2.2859,2.2859,2.2859,2.2859,2.2859,2.2859,2.2859,2.2859,2.2859,2.2022,2.0201,2.0063,1.8229,1.4432,1.4238,1.3279,1.1606,1.1301,1.2204,1.3866,1.2051,1.202,1.3344,1.161,1.086,1.0717,1.0717,1.0717,1.0717,1.0717,1.0717,1.0717,0.0,0.0,0.0,0.0,0.0,0.0,0.0,1.3807,1.4321,1.4904,1.5257,1.5513,1.5603,1.5691,1.5736,1.5558,0.0,0.0,0.0,0.0,0.0,0.0,0.0,0.0,0.0,0.0,1.414,1.3879,1.3668,1.3751,1.3924,1.2949,1.2732,1.3126,1.2681,1.2448,0.0,0.0,0.0,0.0,0.0,0.0,1.1262,0.0,0.0,0.0,0.0,0.0,0.0,0.0,0.0,0.0,0.0,0.0,0.0,2.1846,2.2529,2.3168,2.3013,2.3513,2.3937,2.3352,2.2371,2.1611,2.1751,2.115,2.0695,2.1225,2.2123,2.2795,2.2431,2.2861,2.3343,2.3606,2.3599,2.3391,2.3105,2.2211,2.1706,2.2101,2.2009,2.2215,2.3134,2.3023,2.2859,2.2859,2.2859,2.2859,2.2859,2.1734,2.1596,2.2859,2.2859,2.2585,2.2022,1.9356,1.7529,1.6263,1.3552,1.203,1.1613,1.1409,1.1678,1.2379,1.1664,1.1566,1.2058,1.1166,1.0921,1.0867,1.0758,1.0717,1.0717,1.0717,1.0717,1.0717,0.0,0.0,0.0,0.0,0.0,0.0,0.0,1.4127,1.4572,1.4888,1.5236,1.5424,1.5468,1.5513,1.5468,1.5289,0.0,0.0,0.0,0.0,0.0,0.0,0.0,0.0,0.0,1.4326,1.4046,1.3716,1.3409,1.3382,1.3478,1.2578,1.2216,1.2292,1.181,1.1376,0.0,0.0,0.0,0.0,0.0,0.0,1.0254,0.0,0.0,0.0,0.0,0.0,0.0,0.0,0.0,0.0,0.0,0.0,0.0,0.0,2.1902,2.2138,2.2232,2.2715,2.3066,2.2545,2.1879,2.1478,2.1594,2.1432,2.1285,2.1539,2.2393,2.3062,2.2785,2.2959,2.322,2.3721,2.3433,2.3175,2.3182,2.2084,2.1199,2.1208,2.2184,2.2863,2.3035,2.2969,2.2859,2.2859,2.2859,2.2585,2.1872,2.0756,2.034,2.0756,2.0756,2.0756,2.0756,1.8369,1.6826,1.6122,1.3758,1.2194,1.1531,1.1436,1.1443,1.1531,1.1436,1.1389,0.0,1.1131,1.0995,1.0934,1.0778,1.0717,1.0717,1.0717,1.0717,1.0717,0.0,0.0,0.0,0.0,0.0,0.0,0.0,0.0,1.4534,1.5197,1.5267,1.5289,1.5424,1.5311,1.513,1.4858,0.0,0.0,0.0,0.0,0.0,0.0,0.0,0.0,0.0,1.4233,1.3978,1.3573,1.3074,1.288,1.2968,1.2209,1.1695,1.1443,1.0871,1.0148,0.0,0.0,0.0,0.0,0.8461,0.8368,0.0,0.0,0.0,0.0,0.0,0.0,0.0,0.0,0.0,0.0,0.0,0.0,0.0,0.0,0.0,0.0,0.0,2.1684,2.2145,2.1679,2.1298,2.1147,2.1115,2.1646,0.0,2.1934,2.2519,2.3095,2.349,2.2972,2.2787,2.3768,2.3314,2.3221,2.4177,2.2512,2.1267,2.1438,2.295,2.3763,2.3355,2.3077,2.2859,2.2859,2.2859,2.216,2.034,2.0063,1.9077,1.7248,1.6967,1.6967,1.7248,1.7107,1.6122,1.4432,1.429,1.3216,1.1389,1.1389,1.1389,1.1375,1.1389,1.1382,1.1362,1.1233,1.109,1.0934,1.0792,1.0731,1.0717,1.0717,1.0717,1.0717,0.0,0.0,0.0,0.0,0.0,0.0,0.0,0.0,0.0,0.0,1.4994,1.4971,1.4789,1.4789,1.4651,0.0,0.0,0.0,0.0,0.0,0.0,0.0,0.0,0.0,0.0,1.3952,1.3668,1.317,1.3006,1.2832,1.2608,1.1631,1.1195,1.1284,1.0086,0.9276,0.0,0.0,0.0,0.0,0.8029,0.8049,0.0,0.0,0.0,0.0,1.0659,1.1728,0.0,0.0,0.0,0.0,0.0,0.0,0.0,0.0,2.104,2.1403,2.0883,0.0,2.1474,2.0958,2.1054,2.1239,0.0,2.1694,2.1879,2.2073,2.2456,2.2671,2.239,2.2495,2.2582,2.2457,2.2396,2.2616,2.3288,2.2874,2.2315,2.1554,2.2184,2.2646,2.2309,2.2739,2.2859,2.2859,2.2859,2.2722,2.2297,1.9495,1.7669,1.7248,1.4441,1.4298,1.7107,1.5839,1.4858,1.4432,1.2888,1.1959,1.1389,1.1389,1.1328,1.1219,1.1341,1.1321,1.1219,1.1301,1.1185,1.0948,1.0907,1.0826,1.0717,1.0717,1.0717,1.0717,0.0,0.0,0.0,0.0,0.0,0.0,0.0,0.0,0.0,0.0,0.0,0.0,0.0,0.0,0.0,0.0,0.0,0.0,0.0,0.0,0.0,0.0,0.0,1.3573,1.3457,1.3334,1.3045,1.2686,1.2491,1.2363,1.2215,1.1435,1.1006,1.0765,0.9251,0.8443,0.0,0.0,0.0,0.0,0.7741,0.0,0.0,0.0,0.0,0.0,0.9778,1.1036,0.0,1.411,1.5736,1.7391,0.0,0.0,0.0,0.0,2.1195,2.1417,2.0842,2.1019,2.1285,2.0834,2.1083,2.1526,2.1862,2.2115,2.2336,2.2431,2.2456,2.2462,2.2369,2.1963,2.1771,2.2194,2.1107,2.0073,1.976,1.9918,2.0152,2.041,2.085,2.1572,2.2392,2.2672,2.2859,2.2859,2.2859,2.2585,2.1596,1.8787,1.6826,1.5981,1.3174,1.261,1.4583,1.3595,1.3128,1.3051,1.1931,1.1436,1.1287,1.1287,1.124,1.1172,1.1321,1.1307,1.1172,1.1253,1.1151,1.0941,1.0873,1.0792,1.0717,1.0717,1.0717,1.0717,0.0,0.0,0.0,0.0,0.0,0.0,0.0,0.0,0.0,0.0,0.0,0.0,0.0,0.0,0.0,0.0,0.0,0.0,0.0,0.0,0.0,0.0,0.0,1.2977,1.2716,1.2589,1.2412,1.2184,1.1868,1.1719,1.1719,1.1416,1.0871,1.0103,0.8657,0.7932,0.0,0.0,0.7474,0.7734,0.7559,0.0,0.0,0.0,0.0,0.0,0.0,0.0,0.0,1.2967,1.4959,1.7201,1.8342,0.0,0.0,0.0,0.0,0.0,2.0812,2.0971,2.1129,2.0941,2.1164,2.1495,2.1925,2.2336,2.263,2.2493,2.2194,2.2008,2.2078,2.0952,2.0333,2.1373,1.929,1.7204,1.6074,1.6302,1.7224,1.8748,1.9431,2.0464,2.2154,2.2669,2.2859,2.2859,2.2859,2.2134,2.0557,1.8593,1.6777,1.4806,1.2963,1.198,1.2008,1.1729,1.1504,1.1355,1.1355,1.1274,1.1131,1.1131,1.1118,1.1104,1.126,1.1233,1.1097,1.1145,1.1063,1.09,1.0799,1.0744,1.0717,1.0717,1.0717,1.0717,0.0,0.0,0.0,0.0,0.0,0.0,0.0,0.0,0.0,0.0,0.0,0.0,0.0,0.0,0.0,0.0,0.0,0.0,0.0,0.0,0.0,0.0,1.275,1.2529,1.2363,1.2264,1.1968,1.1619,1.1669,1.1469,1.1065,1.1106,1.063,0.9652,0.8822,0.8189,0.7867,0.7328,0.7288,0.7546,0.7489,0.0,0.0,0.0,0.0,0.0,0.0,0.0,0.0,1.294,1.4523,1.5932,1.6828,0.0,0.0,0.0,0.0,0.0,2.014,2.0183,2.0401,2.0786,2.0385,2.012,2.0928,2.0996,2.102,2.1307,2.1065,2.038,1.8903,1.8338,1.7652,1.6366,1.6316,1.65,1.6535,1.6698,1.6727,1.6669,1.8677,1.9977,1.9855,2.1739,2.2859,2.2859,2.2859,2.2616,2.208,2.0279,1.8342,1.654,1.4449,1.349,1.3644,1.2122,1.1348,1.1199,1.1199,1.1124,1.0982,1.0982,1.0907,1.0799,1.0948,1.0928,1.0806,1.1056,1.1002,1.0765,1.0873,1.0833,1.0717,1.0717,1.0717,1.0717,0.0,0.0,0.0,0.0,0.0,0.0,0.0,0.0,0.0,0.0,0.0,0.0,0.0,0.0,0.0,0.0,0.0,0.0,0.0,0.0,0.0,1.2289,1.2198,1.2052,1.1886,1.1719,1.1519,1.1267,1.1267,1.1116,1.0913,1.0744,1.03,0.9549,0.873,0.7937,0.7315,0.7314,0.7169,0.6952,0.0,0.0,0.0,0.0,0.0,0.0,0.0,0.0,0.0,0.0,1.4129,1.5705,1.6576,0.0,0.0,0.0,0.0,0.0,2.0191,1.9986,1.9722,1.9283,1.9628,2.0195,2.0568,2.0624,2.066,2.0696,2.0377,1.9586,1.7912,1.7284,1.6209,1.3791,1.5041,1.5612,1.3644,1.3523,1.4298,1.6339,1.7662,1.9118,2.0959,2.2277,2.2859,2.2859,2.2859,2.2726,2.2432,2.0626,1.9186,1.8101,1.5273,1.3729,1.3721,1.1964,1.1523,1.2391,1.1453,1.1016,1.0948,1.086,1.0833,1.0846,1.0921,1.086,1.0738,1.0955,1.0921,1.0724,1.0799,1.0778,1.0717,1.0717,1.0717,1.0717,0.0,0.0,0.0,0.0,0.0,0.0,0.0,0.0,0.0,0.0,0.0,0.0,0.0,0.0,0.0,0.0,0.0,0.0,0.0,0.0,1.1849,1.1952,1.1831,1.1694,1.1593,1.1438,1.1335,1.1231,1.1127,1.0973,1.0892,1.0563,1.0103,0.9547,0.8736,0.7861,0.708,0.7364,0.7107,0.669,0.0,0.0,0.0,0.0,0.0,0.0,0.0,0.0,0.0,0.0,0.0,0.0,0.0,0.0,0.0,1.9564,1.9864,2.0067,2.0205,1.9972,1.9351,1.8237,1.8765,1.9526,1.9123,1.9114,1.9133,1.9199,1.8807,1.8064,1.6393,1.5727,1.4991,1.3396,1.4927,1.5293,1.2417,1.2231,1.3399,1.6576,1.7433,1.8865,2.1996,2.2585,2.2859,2.2859,2.2859,2.2699,2.2338,2.0944,1.9867,1.9072,1.6315,1.4898,1.4663,1.2499,1.1955,1.2877,1.1425,1.0894,1.0894,1.0772,1.0785,1.0894,1.0894,1.0826,1.0731,1.0846,1.0826,1.0717,1.0717,1.0717,1.0717,1.0717,1.0717,1.0717,0.0,0.0,0.0,0.0,0.0,0.0,0.0,0.0,0.0,0.0,0.0,0.0,0.0,0.0,0.0,0.0,0.0,0.0,0.0,0.0,1.18,1.2312,1.1859,1.1664,1.1886,1.1719,1.1663,1.1663,1.1511,1.1281,1.0893,1.0754,1.0302,0.9585,0.9009,0.8435,0.786,0.7471,0.728,0.724,0.7189,0.0,0.0,0.0,0.0,0.0,0.0,0.0,0.0,0.0,0.0,0.0,0.0,0.0,1.8308,1.9118,1.9272,1.9241,1.9585,1.9682,1.9691,1.9105,1.7757,1.6309,1.5306,1.5039,1.5064,1.5497,1.5431,1.4718,1.2758,1.2365,1.3199,1.5954,1.6243,1.6275,1.645,1.6569,1.6668,1.7177,1.8754,2.0039,2.0328,2.1872,2.2859,2.2859,2.2859,2.2619,2.2044,2.1885,2.0938,1.8804,1.83,1.8148,1.8365,1.4866,1.2437,1.0864,1.0738,1.0738,1.0738,1.0724,1.0724,1.0738,1.0738,1.0731,1.0717,1.0731,1.0731,1.0717,1.0717,1.0717,1.0717,1.0717,1.0717,1.0717,0.0,0.0,0.0,0.0,0.0,0.0,0.0,0.0,0.0,0.0,0.0,0.0,0.0,0.0,0.0,0.0,0.0,0.0,0.0,0.0,1.1707,1.1936,1.1781,1.1809,1.2154,1.1856,1.1632,1.1575,1.113,1.0794,1.0655,1.0386,0.9956,0.9354,0.9154,0.8494,0.7544,0.7858,0.7475,0.6802,0.737,0.7461,0.0,0.0,0.0,0.0,0.0,0.0,0.0,0.0,1.3625,1.5049,1.5595,1.6631,1.78,1.8431,1.8987,1.9441,1.9808,1.9062,1.7802,1.6269,1.5279,1.4865,1.5634,1.5061,1.4511,1.4814,1.4936,1.4383,1.2408,1.3073,1.3966,1.4289,1.6435,1.7806,1.6991,1.6904,1.7348,1.8556,1.913,2.0047,2.1454,2.2015,2.2392,2.2579,2.2418,2.2138,2.1737,2.171,2.1318,2.0234,1.9084,1.8559,1.8524,1.6084,1.4623,1.397,1.1762,1.0717,1.0717,1.0717,1.0717,1.0717,1.0717,1.0717,1.0717,1.0717,1.0717,1.0717,1.0717,1.0717,1.0717,1.0717,1.0717,1.0717,0.0,0.0,0.0,0.0,0.0,0.0,0.0,0.0,0.0,0.0,0.0,0.0,0.0,0.0,0.0,0.0,0.0,0.0,1.1654,1.1531,1.148,1.1559,1.1575,1.1794,1.2228,1.1913,1.1736,1.1678,1.1142,1.076,1.0549,1.0255,0.9819,0.9249,0.9293,0.8774,0.7871,0.8382,0.7973,0.7067,0.7564,0.7568,0.0,0.0,0.0,0.0,0.0,0.0,0.0,0.0,1.3515,1.4972,1.5382,1.6357,1.7501,1.8194,1.8848,1.9403,1.9446,1.8276,1.6683,1.5296,1.4391,1.4156,1.5368,1.4969,1.4423,1.478,1.4893,1.4786,1.4429,1.5113,1.5774,1.5899,1.8267,1.9747,1.8552,1.8505,1.9073,2.0245,2.0209,2.0705,2.2125,2.2098,2.2071,2.2271,2.2098,2.1857,2.1563,2.155,2.1416,2.1122,1.9941,1.9291,1.9291,1.7602,1.6689,1.6689,1.3709,1.2025,1.1505,1.0982,1.0717,1.0717,1.0717,1.0717,1.0717,1.0717,1.0717,1.0717,1.0717,1.0717,1.0717,1.0717,1.0717,1.0717,0.0,0.0,0.0,0.0,0.0,0.0,0.0,0.0,0.0,0.0,0.0,0.0,0.0,0.0,0.0,0.0,0.0,0.0,1.1258,1.1226,1.1224,1.1293,1.1308,1.1561,1.2104,1.1872,1.1872,1.2058,1.1872,1.1345,1.0594,1.048,1.0021,0.9406,0.9562,0.9458,0.9211,0.904,0.8778,0.8368,0.7729,0.7568,0.7676,0.0,0.0,0.0,0.0,0.0,0.0,0.0,1.4116,1.5485,1.603,1.6678,1.7435,1.8464,1.8979,1.9016,1.8308,1.7511,1.6868,1.7055,1.5599,1.4133,1.3876,1.3998,1.4316,1.5255,1.5109,1.5686,1.8771,1.8135,1.8349,2.1728,2.2089,2.1977,2.1977,2.2231,2.2298,2.2017,2.1977,2.1977,2.1977,2.1977,2.1977,2.1977,2.1977,2.1857,2.1563,2.155,2.1416,2.1122,2.1109,2.1109,2.1109,1.9419,1.85,1.8512,1.6818,1.5005,1.3325,1.1505,1.0717,1.0717,1.0717,1.0717,1.0717,1.0717,1.0717,1.0717,1.0717,1.0717,1.0717,1.0717,1.0717,1.0717,0.0,0.0,0.0,0.0,0.0,0.0,0.0,0.0,0.0,0.0,0.0,0.0,0.0,0.0,0.0,0.0,0.0,0.0,1.1987,1.1824,1.1757,1.181,1.146,1.1436,1.1747,1.1034,1.0911,1.1373,1.0835,1.0407,0.9962,0.9559,0.9261,0.9015,0.951,0.9458,0.9054,0.9406,0.9093,0.8368,0.8315,0.809,0.7931,0.0,0.0,0.0,0.0,0.0,0.0,0.0,0.0,0.0,1.4779,1.5827,1.7222,1.8025,1.7599,1.7183,1.8162,1.6087,1.3999,1.5338,1.5356,1.5202,1.5626,1.5009,1.4493,1.5458,1.585,1.6252,1.6762,1.7672,1.8444,1.9235,2.0697,2.1683,2.1683,2.175,2.1777,2.1697,2.1496,2.1456,2.1657,2.1496,2.1456,2.167,2.1483,2.1336,2.1243,2.1243,2.1203,2.1109,2.1109,2.1109,2.1109,2.0589,2.0322,2.0322,1.8512,1.6818,1.5005,1.3325,1.2545,1.2413,1.124,1.0717,1.0717,1.0717,1.0717,1.0717,1.0717,1.0717,1.0717,1.0717,1.0717,1.0717,0.0,0.0,0.0,0.0,0.0,0.0,0.0,0.0,0.0,0.0,1.4309,1.407,0.0,0.0,0.0,0.0,0.0,0.0,1.222,1.2027,1.1835,1.1716,1.1301,1.1102,1.1045,1.0443,1.0203,1.043,1.0147,0.9793,0.9442,0.9088,0.8908,0.8962,0.9458,0.951,0.9263,0.9562,0.9249,0.858,0.862,0.8514,0.8343,0.0,0.0,0.0,0.0,0.0,0.0,0.0,0.0,0.0,1.3534,1.471,1.6217,1.6539,1.6537,1.6485,1.707,1.5332,1.3771,1.5452,1.5919,1.6317,1.762,1.7352,1.7127,1.8066,1.8203,1.8209,1.8335,1.8803,1.9312,1.9337,2.0602,2.151,2.139,2.1483,2.151,2.139,2.1216,2.1176,2.1363,2.1216,2.1189,2.1363,2.1203,2.1109,2.1109,2.1109,2.1109,2.1109,2.1109,2.1056,2.0935,2.0935,2.0882,2.0762,1.9852,1.8692,1.7564,1.5316,1.4362,1.4232,1.3193,1.2413,1.1762,1.1762,1.1372,1.0717,1.0717,1.0717,1.0717,1.0717,1.0717,1.0717,0.0,0.0,1.2744,1.2814,0.0,0.0,0.0,0.0,0.0,0.0,1.383,1.3649,0.0,0.0,0.0,1.2797,1.2736,1.2546,1.2032,1.1897,1.1659,1.1286,1.0926,1.0581,1.0238,1.0021,0.9693,0.937,0.9597,0.9482,0.901,0.8843,0.8921,0.9253,0.9316,0.9472,0.9658,0.9629,0.9302,0.883,0.883,0.883,0.8883,0.9302,0.0,0.0,0.0,0.0,0.0,0.0,0.0,0.0,1.2474,1.3479,1.4729,1.4657,1.5495,1.6252,1.5512,1.4997,1.5107,1.6777,1.7133,1.7616,1.9556,2.0458,2.0959,2.1613,2.1227,2.0989,2.1876,2.1101,2.0521,2.1029,2.1336,2.1416,2.1149,2.1336,2.1403,2.1109,2.1096,2.1082,2.1029,2.1082,2.1096,2.1069,2.1069,2.1069,2.1069,2.1042,2.1029,2.1029,2.1029,2.0909,2.0641,2.0641,2.0494,2.0241,2.0535,2.0535,2.0172,1.739,1.6043,1.5913,1.5913,1.5005,1.3587,1.3587,1.2545,1.0982,1.0982,1.085,1.0717,1.0717,1.0717,1.0717,0.0,0.0,1.1965,1.2379,0.0,0.0,0.0,0.0,0.0,0.0,0.0,0.0,0.0,0.0,0.0,1.2813,1.2552,1.2336,1.2074,1.1828,1.152,1.1334,1.0711,1.0173,0.9676,0.9331,0.9074,0.9015,0.9077,0.8871,0.8453,0.8229,0.8571,0.9439,0.9295,0.9535,1.0048,0.9731,0.9302,0.883,0.904,0.9106,0.9211,0.9836,1.0146,0.0,0.0,0.0,0.0,0.0,0.0,0.0,1.2253,1.322,1.4411,1.4753,1.3984,1.3437,1.5327,1.449,1.3894,1.7304,1.9052,2.0011,2.0726,2.0999,2.099,2.1031,2.1363,2.1706,2.1741,2.1477,2.1229,2.1122,2.1162,2.1189,2.1122,2.1162,2.1096,2.0802,2.0975,2.0922,2.0468,2.0842,2.1015,2.0788,2.0775,2.0775,2.0775,2.0548,2.0428,2.0428,2.0428,2.0388,2.0334,2.0334,2.0294,2.0241,2.0535,2.0641,2.0588,1.8752,1.7205,1.5913,1.5913,1.5654,1.5394,1.5394,1.4362,1.2808,1.2808,1.1894,1.0717,1.0717,1.0717,1.0717,0.0,0.0,0.0,0.0,0.0,0.0,0.0,0.0,0.0,0.0,0.0,0.0,0.0,1.2552,0.0,0.0,1.2058,1.1872,1.1622,1.1373,1.1059,1.0681,1.011,0.9664,0.928,0.8897,0.8646,0.8522,0.8398,0.8444,0.8534,0.8345,0.8664,0.9315,0.9275,0.9207,0.9099,0.9056,0.8725,0.8302,0.8896,0.9159,0.9263,1.011,1.0316,1.0368,1.1065,0.0,0.0,0.0,0.0,0.0,0.0,0.0,1.3007,1.3007,1.2743,1.2785,1.4238,1.4515,1.5218,1.8638,2.0214,2.0922,2.1069,2.1109,2.0819,1.9915,2.0699,2.1578,2.161,2.152,2.1296,2.1136,2.1109,2.1109,2.1109,2.0989,2.0842,2.0695,2.0681,2.0244,1.9322,2.0211,2.019,1.8387,1.9137,1.9212,1.8208,1.8066,1.7994,1.7994,1.7994,1.7812,1.7682,1.7682,1.7623,1.7505,1.7887,1.8077,1.8208,1.9234,1.9145,1.8022,1.8139,1.761,1.6751,1.687,1.5435,1.3071,1.3257,1.2235,1.0622,1.0697,1.0717,1.0717,0.0,0.0,0.0,0.0,0.0,0.0,0.0,0.0,0.0,0.0,0.0,0.0,0.0,1.1996,1.1872,0.0,0.0,0.0,1.1002,1.0803,1.0483,0.993,0.9467,0.9121,0.8894,0.8506,0.8281,0.8017,0.7846,0.8121,0.8932,0.8726,0.8856,0.9243,0.941,0.8961,0.811,0.8378,0.8193,0.7729,0.858,0.9054,0.9263,1.011,1.0368,1.0419,1.0913,1.0861,1.0446,1.0146,0.0,0.0,0.0,0.0,1.1551,1.1137,1.1725,1.2628,1.3105,1.4953,1.7346,1.9853,2.0788,2.1042,2.1096,2.0843,2.0182,1.8709,1.9903,2.1049,2.1031,2.1102,2.1056,2.1096,2.1029,2.0975,2.1029,2.0788,2.0451,2.0152,1.9968,1.9157,1.7665,1.8889,1.8678,1.5846,1.6974,1.7021,1.5463,1.5412,1.5402,1.5402,1.5402,1.5187,1.4872,1.4872,1.4781,1.4609,1.4821,1.5146,1.5463,1.8674,2.0047,1.9876,2.0372,1.9581,1.8006,1.8096,1.617,1.3169,1.3234,1.2126,1.0507,1.0609,1.0677,1.0717,0.0,0.0,0.0,0.0,0.0,0.0,0.0,0.0,0.0,0.0,1.212,1.1996,1.1685,1.1685,1.1498,1.1108,1.0793,1.0725,1.0902,0.0,0.0,0.9487,0.9142,0.8777,0.8301,0.7987,0.7782,0.7752,0.7525,0.8131,0.9403,0.8725,0.8959,0.9893,1.0022,0.9572,0.8792,0.8945,0.8421,0.7568,0.8368,0.8896,0.9263,0.9747,1.0213,1.0624,1.047,1.0452,1.0509,1.0306,1.0399,0.0,0.0,0.0,1.1494,1.1329,1.1157,1.1414,1.2885,1.5431,1.8022,1.9492,2.0334,2.0802,2.1056,1.9941,1.8697,1.8345,1.9764,2.0602,1.92,1.9903,2.0815,2.1069,2.0681,2.0441,2.0695,2.0481,1.9689,1.8094,1.8106,1.7329,1.5251,1.5697,1.5845,1.5156,1.5258,1.537,1.5095,1.4791,1.469,1.469,1.469,1.468,1.465,1.465,1.4629,1.4609,1.4821,1.5064,1.5105,1.5855,1.6932,1.8239,1.9646,2.0146,1.9742,1.8398,1.6775,1.4759,1.3456,1.1923,1.048,1.0378,1.05,1.0704,0.0,0.0,0.0,0.0,0.0,0.0,0.0,0.0,0.0,0.0,0.0,1.156,1.0793,1.0982,1.0933,1.0364,1.0316,1.0192,1.006,0.9915,0.9524,0.9007,0.8591,0.8209,0.7782,0.7466,0.7269,0.7269,0.7067,0.7628,0.8935,0.8965,0.9538,1.0639,1.0774,1.0127,0.8906,0.9363,0.8706,0.7456,0.8719,0.8757,0.8287,0.9589,0.9875,0.9814,1.1021,1.1201,1.0821,1.0927,1.0833,1.0663,1.0424,0.0,0.0,0.0,1.1615,1.1926,1.3159,1.5028,1.7056,1.8561,1.9623,2.0307,2.0762,1.9575,1.8127,1.7119,1.7462,1.7736,1.7114,1.7451,1.7871,1.7989,1.7735,1.7661,1.7777,1.7445,1.6994,1.6156,1.5991,1.5345,1.3583,1.4475,1.4421,1.2381,1.3101,1.317,1.2101,1.2018,1.1856,1.1856,1.1856,1.1856,1.1856,1.1856,1.1856,1.1856,1.2059,1.2092,1.2092,1.3143,1.4528,1.6101,1.6971,1.7202,1.6966,1.6486,1.5237,1.3573,1.3065,1.1822,1.0378,1.0392,1.0534,1.0711,0.0,0.0,0.0,0.0,0.0,0.0,0.0,0.0,0.0,0.0,0.0,1.1045,1.0085,0.0,0.0,0.0,0.9717,0.9612,0.9247,0.9238,0.8985,0.848,0.8107,0.7737,0.7277,0.6946,0.673,0.6613,0.6535,0.7104,0.8226,0.8742,0.9612,1.0776,1.1319,1.0528,0.8819,0.9691,0.892,0.7318,0.8903,0.8604,0.7456,0.9414,0.9459,0.8745,1.1167,1.1565,1.0942,1.1371,1.1439,1.124,1.0501,1.1083,0.0,0.0,0.0,1.236,1.3107,1.4185,1.5537,1.7279,1.8426,1.9448,2.016,1.8816,1.711,1.5805,1.4837,1.4173,1.4266,1.4913,1.537,1.5584,1.5401,1.5361,1.5422,1.5105,1.4721,1.4358,1.4101,1.3352,1.1931,1.2908,1.2664,1.0115,1.121,1.1256,0.9774,0.9802,0.9802,0.9768,0.9802,0.9822,0.9822,0.9822,0.9822,0.9822,0.9822,0.9822,0.9822,1.102,1.2217,1.3416,1.441,1.4751,1.4619,1.442,1.3425,1.2242,1.216,1.1328,1.029,1.0358,1.0527,1.0717,0.0,0.0,0.0,0.0,0.0,0.0,0.0,0.0,0.0,0.0,0.0,1.0807,0.9932,0.9868,0.9612,0.9087,0.8905,0.8821,0.8638,0.8725,0.8577,0.8141,0.7888,0.0,0.6736,0.6531,0.6248,0.5954,0.6137,0.6662,0.7447,0.7707,0.8527,0.982,1.1438,1.0889,0.8769,0.9706,0.8877,0.7141,0.8569,0.8319,0.7289,0.9208,0.8892,0.7785,1.0226,1.0868,1.0692,1.139,1.2113,1.2514,1.1339,1.1537,1.2172,0.0,0.0,0.0,1.2096,1.2797,1.3895,1.5722,1.6919,1.7874,1.9219,1.7288,1.5092,1.5003,1.2657,1.0489,1.0343,1.2882,1.5146,1.5494,1.5044,1.471,1.5044,1.4761,1.4023,1.2586,1.2337,1.1744,1.0072,1.0072,0.995,0.9829,0.9957,0.9889,0.9625,0.9747,0.9761,0.9625,0.9747,0.9822,0.9822,0.9822,0.9822,0.9822,0.9822,0.9822,0.9822,0.9943,0.9943,1.0179,1.3306,1.4609,1.448,1.2946,1.2346,1.2097,1.0558,1.0143,1.0263,1.012,1.0344,1.0697,0.0,0.0,0.0,0.0,0.0,0.0,0.0,0.0,0.0,0.0,0.0,0.0,0.0,0.9098,0.9034,0.87,0.8652,0.8503,0.8075,0.8217,0.8058,0.7342,0.7253,0.0,0.0,0.6134,0.5916,0.5683,0.555,0.5881,0.6605,0.7238,0.7875,0.8638,1.0381,1.056,0.951,1.0585,0.9741,0.7701,0.8689,0.809,0.675,0.7899,0.7792,0.756,1.0666,1.1487,1.1335,1.3067,1.3364,1.2829,1.1951,1.2026,1.2367,1.2409,1.244,1.2321,1.192,1.2289,1.3047,1.4075,1.5021,1.598,1.7004,1.5409,1.3611,1.3861,1.1794,0.9971,0.991,1.0867,1.1768,1.1953,1.1776,1.1518,1.1704,1.1534,1.1253,1.0778,1.0664,1.0422,0.9822,0.9741,0.972,0.9815,0.9646,0.9557,0.9605,0.9564,0.9517,0.9462,0.951,0.9585,0.9686,0.9585,0.9632,0.9822,0.9727,0.9734,0.9822,0.9822,0.9822,0.9822,1.102,1.1495,1.1495,1.0899,1.0723,1.0696,1.0211,1.0093,1.0283,1.0317,1.0432,1.0582,0.0,0.0,0.0,0.0,0.0,0.9652,0.964,0.0,0.0,0.0,0.0,0.0,0.0,0.0,0.8312,0.8052,0.7991,0.7818,0.7449,0.7499,0.7277,0.6693,0.6746,0.0,0.0,0.5874,0.565,0.5433,0.5184,0.5366,0.5903,0.6479,0.6974,0.7395,0.8754,0.9273,0.9226,1.0148,0.9332,0.755,0.8627,0.8056,0.6859,0.8623,0.8814,0.848,1.2076,1.2935,1.2569,1.4188,1.3967,1.2996,1.2317,1.2196,1.2317,1.246,1.2597,1.2613,1.2104,1.2143,1.2481,1.3098,1.3761,1.4406,1.513,1.39,1.2644,1.2889,1.1257,0.9768,0.9815,0.9822,0.9856,0.9958,0.989,0.9822,0.9822,0.9781,0.9747,0.9747,0.9707,0.9673,0.9673,0.9591,0.9571,0.9666,0.949,0.9401,0.9456,0.9408,0.9381,0.9381,0.9381,0.9429,0.953,0.9435,0.9503,0.9747,0.9652,0.9686,0.9822,0.9822,0.9822,0.9822,0.9822,0.9822,0.9822,0.9822,0.9883,0.9978,1.0032,1.0141,1.0297,1.0439,1.0527,1.0582,0.0,0.7466,0.8247,0.8431,0.8894,0.9215,0.8958,0.9204,0.9268,0.8829,0.0,0.0,0.0,0.0,0.0,0.7213,0.6885,0.6631,0.6607,0.6439,0.639,0.6247,0.6478,0.0,0.5725,0.5725,0.5507,0.5225,0.5026,0.5174,0.5513,0.5433,0.569,0.6152,0.6595,0.7001,0.7536,0.8155,0.7655,0.6606,0.8295,0.8284,0.7672,1.1679,1.1902,1.0574,1.4381,1.5179,1.4429,1.4559,1.3964,1.3131,1.2303,1.1935,1.1809,1.1965,1.2212,1.2536,0.0,0.0,0.0,1.2853,1.3056,1.3187,1.3583,1.2802,1.2013,1.2268,1.0827,0.9625,0.9774,0.9802,0.9808,0.9808,0.9815,0.9815,0.9808,0.9686,0.9605,0.9605,0.9469,0.9381,0.9381,0.9374,0.9374,0.9381,0.9374,0.9306,0.9157,0.9286,0.9361,0.9367,0.9367,0.9367,0.9374,0.9367,0.9449,0.9612,0.9605,0.968,0.9822,0.9822,0.9822,0.9822,0.9822,0.9822,0.9822,0.9822,0.9829,0.9849,0.9992,1.0148,1.0304,1.0439,1.0588,1.0717,0.6158,0.673,0.727,0.7817,0.8019,0.8102,0.7932,0.7977,0.8042,0.0,0.0,0.0,0.74,0.7138,0.6928,0.6789,0.6579,0.6306,0.6186,0.6119,0.5993,0.581,0.5848,0.5726,0.5507,0.5352,0.5138,0.5015,0.4815,0.4891,0.5168,0.5158,0.5286,0.5418,0.5399,0.5346,0.5554,0.7431,0.8173,0.8093,0.9418,1.0063,1.0397,1.1661,1.2144,1.2337,1.4256,1.5033,1.5177,1.5899,1.5363,1.401,1.1756,1.1209,1.1325,1.1541,1.1981,1.2367,1.2536,0.0,0.0,0.0,0.0,0.0,1.1575,1.1032,1.0492,1.0404,0.9888,0.934,0.938,0.9429,0.9503,0.9503,0.9598,0.9632,0.9517,0.9469,0.9442,0.9442,0.9408,0.9381,0.9381,0.9279,0.9259,0.9374,0.9184,0.9042,0.9001,0.8933,0.8947,0.9055,0.9062,0.911,0.9211,0.911,0.9245,0.9605,0.9496,0.9578,0.9822,0.9822,0.9822,0.9822,0.9822,0.9822,0.9822,0.9822,0.9951,1.0148,1.0073,1.0209,1.0439,1.048,1.0521,1.0568,0.5535,0.6022,0.663,0.7042,0.7243,0.7341,0.7288,0.7268,0.7256,0.0,0.0,0.0,0.6798,0.6522,0.6293,0.6188,0.6084,0.6015,0.6017,0.5885,0.5726,0.5634,0.564,0.552,0.5366,0.5208,0.5173,0.5104,0.4847,0.4833,0.5109,0.4981,0.4888,0.496,0.4827,0.4561,0.4434,0.6006,0.7405,0.8637,0.899,0.9999,1.1466,1.2742,1.3482,1.4002,1.6218,1.7067,1.727,1.7213,1.6325,1.4514,1.0902,1.0801,1.193,1.1307,1.175,1.2523,1.2453,1.2208,1.1935,1.1481,0.0,0.0,1.0346,0.9979,0.9597,0.9402,0.9107,0.887,0.8913,0.8976,0.9019,0.9106,0.9099,0.9236,0.9347,0.9327,0.9286,0.9286,0.9232,0.9198,0.9198,0.9117,0.9103,0.9191,0.8981,0.8818,0.875,0.8662,0.8655,0.8743,0.8811,0.8886,0.8967,0.8947,0.9103,0.9415,0.9327,0.9442,0.9734,0.9734,0.9768,0.9822,0.9822,0.9822,0.9829,0.989,1.0019,1.0181,1.0154,1.029,1.05,1.0561,1.0588,1.0602,0.0,0.5446,0.6109,0.625,0.6597,0.6805,0.6779,0.6781,0.6829,0.0,0.6706,0.6533,0.6171,0.588,0.5686,0.5637,0.5637,0.5759,0.5962,0.5826,0.5657,0.555,0.5556,0.5479,0.5246,0.5246,0.5246,0.5318,0.4933,0.496,0.5243,0.4837,0.4718,0.4785,0.4567,0.4295,0.4028,0.4428,0.6065,0.8436,0.8146,0.9606,1.2147,1.4859,1.5704,1.5791,1.9037,2.0067,1.9666,1.8229,1.669,1.4641,1.0292,1.0774,1.2634,1.1175,1.1657,1.2536,1.2186,1.1657,1.1123,1.0997,1.0653,0.0,0.9631,0.9399,0.9332,0.8982,0.8512,0.8294,0.8579,0.8475,0.8524,0.8777,0.8585,0.8675,0.9205,0.9191,0.9103,0.9083,0.8974,0.8899,0.8899,0.8893,0.8893,0.8893,0.875,0.8608,0.8486,0.8465,0.8465,0.8479,0.8615,0.8696,0.871,0.8845,0.8994,0.915,0.915,0.9306,0.9585,0.9585,0.9652,0.9774,0.9788,0.9795,0.9808,0.9964,1.0046,1.0086,1.0229,1.0378,1.0534,1.0649,1.0704,1.0717,0.4968,0.5329,0.5603,0.574,0.6194,0.6379,0.6036,0.618,0.6186,0.5951,0.5499,0.529,0.5552,0.5402,0.5447,0.5635,0.5795,0.5868,0.5662,0.5822,0.5681,0.5395,0.5323,0.5246,0.5096,0.5096,0.5168,0.5318,0.5243,0.5315,0.5384,0.5115,0.4849,0.4568,0.4131,0.3889,0.3894,0.4223,0.5617,0.7804,1.0484,1.3596,1.6932,1.857,1.9246,1.9285,1.992,2.0201,1.9814,1.7378,1.5563,1.401,1.2301,1.124,1.066,1.1366,1.1543,1.1367,1.092,1.0749,1.0632,1.0031,0.9886,0.0,0.8861,0.9041,0.9146,0.8569,0.8426,0.8434,0.8525,0.8512,0.8504,0.8705,0.8604,0.8614,0.8858,0.8941,0.8893,0.8762,0.8855,0.8849,0.8849,0.8721,0.8707,0.8707,0.8452,0.8391,0.8479,0.8377,0.8364,0.8479,0.8513,0.8587,0.871,0.8743,0.8886,0.915,0.915,0.9252,0.9422,0.9422,0.9442,0.9476,0.9598,0.9652,0.9659,0.9808,1.0012,1.0236,1.027,1.0439,1.0663,1.0568,1.0616,1.0717,0.4507,0.4722,0.4925,0.5258,0.0,0.0,0.0,0.5705,0.5755,0.539,0.5087,0.4955,0.5261,0.5255,0.5427,0.5719,0.6753,0.708,0.6325,0.6849,0.6706,0.5873,0.5479,0.5323,0.5329,0.5168,0.5246,0.5479,0.5208,0.5108,0.5322,0.4775,0.4382,0.4036,0.411,0.4032,0.3932,0.5622,0.7684,0.9994,1.092,1.2973,1.56,1.8121,1.9101,1.9063,2.0279,1.9944,1.8728,1.6319,1.4483,1.2977,1.122,1.0406,1.015,1.0614,1.0694,1.0575,0.9816,0.956,0.9479,0.9233,0.8942,0.0,0.0,0.8495,0.8466,0.7803,0.7861,0.7952,0.7923,0.8,0.8061,0.8367,0.8243,0.822,0.8423,0.8646,0.8169,0.6701,0.6595,0.6706,0.6706,0.6595,0.71,0.8425,0.844,0.8275,0.8275,0.8201,0.8187,0.8262,0.8336,0.8411,0.8492,0.8635,0.8784,0.8933,0.9008,0.9123,0.9266,0.9266,0.9354,0.9496,0.9578,0.9652,0.9727,0.9876,1.0073,1.0283,1.0283,1.046,1.0711,1.0636,1.0656,1.0717,0.3828,0.4023,0.4289,0.4688,0.0,0.0,0.0,0.5278,0.5353,0.4933,0.4817,0.5063,0.5724,0.5764,0.5996,0.6464,0.8179,0.8649,0.7296,0.8023,0.7959,0.6706,0.5827,0.5401,0.5479,0.5323,0.5323,0.564,0.5041,0.4938,0.5152,0.4474,0.3968,0.3573,0.4032,0.4426,0.4788,0.7155,0.9703,1.2109,1.1477,1.212,1.3724,1.7261,1.8206,1.7952,2.0244,1.9789,1.7894,1.5814,1.4045,1.2137,0.9919,0.9612,0.9878,0.959,0.9712,0.9712,0.8771,0.8364,0.8278,0.8681,0.8061,0.7511,0.0,0.0,0.0,0.7068,0.7171,0.7361,0.7346,0.7414,0.7548,0.7924,0.7744,0.7713,0.805,0.8306,0.7465,0.5035,0.4625,0.4846,0.5309,0.4292,0.4702,0.7443,0.7527,0.7674,0.7979,0.7959,0.8045,0.8045,0.8167,0.8248,0.8269,0.8533,0.8682,0.871,0.8866,0.9001,0.911,0.911,0.9259,0.9523,0.9551,0.9646,0.9795,0.9944,1.0093,1.0243,1.027,1.046,1.0717,1.0683,1.0697,1.0717,0.3226,0.3422,0.3623,0.3699,0.0,0.0,0.0,0.463,0.4545,0.4437,0.418,0.5078,0.7971,0.7632,0.7726,0.8984,1.0079,1.0095,0.8508,0.8655,0.8552,0.7987,0.661,0.5628,0.5085,0.5012,0.5251,0.564,0.5372,0.52,0.5035,0.4724,0.438,0.3874,0.3572,0.4847,0.7245,0.7371,0.8837,1.1351,1.415,1.5671,1.6445,1.9292,1.9178,1.7733,2.025,1.9916,1.8244,1.7033,1.4961,1.2725,1.1664,1.0088,0.8806,0.9201,0.8871,0.8256,0.7701,0.7685,0.7902,0.8557,0.7618,0.6813,0.7946,0.0,0.6793,0.6556,0.0,0.7025,0.7193,0.0,0.0,0.7522,0.7575,0.7584,0.7601,0.7748,0.726,0.57,0.5175,0.5915,0.8232,0.3679,0.1615,0.4332,0.4533,0.5546,0.7885,0.7985,0.7979,0.7972,0.7985,0.8153,0.8269,0.8431,0.8574,0.871,0.8866,0.8947,0.896,0.896,0.9049,0.9211,0.9347,0.9496,0.9646,0.9788,0.9937,1.0086,1.0229,1.046,1.0704,1.0568,1.0602,1.0717,0.2686,0.282,0.2891,0.3226,0.0,0.0,0.3565,0.3754,0.397,0.4077,0.4204,0.5681,0.9321,0.8535,0.9075,1.2658,1.303,1.2786,1.196,1.1232,1.1031,1.1502,0.799,0.6538,0.7712,0.6147,0.532,0.5401,0.5013,0.4828,0.467,0.4215,0.373,0.3405,0.4822,0.6225,0.764,1.0803,1.1956,1.1783,1.457,1.4977,1.4463,1.9025,1.961,1.8191,1.9169,1.7859,1.5316,1.4634,1.2585,1.055,1.0612,0.9602,0.8532,0.9733,0.9695,0.916,0.8824,0.8714,0.8728,0.8383,0.7269,0.6259,0.6465,0.5894,0.5311,0.523,0.0,0.0,0.0,0.0,0.0,0.0,0.6671,0.6542,0.6961,0.7178,0.7336,0.7404,0.7469,0.6548,0.4065,0.2548,0.2562,0.4481,0.5363,0.6149,0.7052,0.6179,0.5636,0.5632,0.716,0.8006,0.8153,0.828,0.8421,0.8581,0.8825,0.894,0.894,0.894,0.9062,0.9286,0.9354,0.9517,0.9734,0.9795,0.991,1.0059,1.012,1.0324,1.0588,1.0616,1.0663,1.0717,0.1682,0.1951,0.2085,0.2622,0.2597,0.2561,0.2837,0.3347,0.3981,0.4594,0.4947,0.7,1.186,1.103,1.1883,1.6328,1.6398,1.591,1.5199,1.3446,1.2975,1.4117,0.9675,0.7948,0.984,0.7539,0.621,0.5873,0.4892,0.4346,0.427,0.3643,0.325,0.3057,0.5002,0.6595,0.8092,1.2594,1.3911,1.2956,1.5138,1.4824,1.3517,1.7493,1.8428,1.7769,1.7837,1.5824,1.3341,1.2927,1.1283,0.9405,0.9751,0.9137,0.8599,0.9743,0.9782,0.9497,0.9383,0.9383,0.9311,0.8744,0.7483,0.6192,0.5874,0.4642,0.3657,0.3846,0.435,0.0,0.0,0.0,0.5484,0.6013,0.0,0.5628,0.6201,0.662,0.7179,0.8288,0.875,0.7267,0.2731,0.2703,0.3619,0.5437,0.6199,0.6128,0.4763,0.361,0.2882,0.2909,0.483,0.6147,0.6848,0.7801,0.8262,0.8506,0.8771,0.892,0.885,0.885,0.9004,0.9278,0.9401,0.9564,0.9829,0.9842,0.9903,0.9992,0.9962,1.0249,1.0453,1.0602,1.0683,1.0717,-0.0068,0.0673,0.121,0.1412,0.1481,0.1749,0.2555,0.3591,0.4773,0.6212,0.664,0.9417,1.6226,1.617,1.692,1.9917,2.0404,1.9512,1.7325,1.4589,1.3485,1.4523,1.1421,0.9855,1.0343,0.9207,0.8136,0.7225,0.5175,0.3995,0.3834,0.3442,0.3217,0.3132,0.3217,0.541,0.9198,1.1123,1.2898,1.464,1.673,1.6706,1.5322,1.4852,1.5146,1.5874,1.5961,1.4875,1.3461,1.3445,1.2473,1.0962,0.96,0.9213,0.9013,0.8407,0.814,0.8195,0.8696,0.8934,0.9167,1.0036,0.8528,0.6904,0.704,0.4392,0.2078,0.2616,0.3355,0.3823,0.3889,0.4289,0.4628,0.4694,0.4888,0.0,0.0,0.5977,0.6683,0.7447,0.8023,0.8255,0.8073,0.4706,0.3757,0.6656,0.612,0.4017,0.0379,0.019,0.0097,0.01,0.0201,0.1507,0.4117,0.668,0.819,0.8554,0.8817,0.8866,0.8897,0.8897,0.8937,0.8968,0.9208,0.9598,0.9856,0.9767,0.9754,0.9856,1.0049,1.0169,1.0304,1.0446,1.0595,1.0717,0.2406,0.1254,0.0687,0.1623,0.1776,0.2151,0.3323,0.5012,0.6885,0.8787,0.9451,1.2531,1.9795,1.9102,1.9832,2.4026,2.2898,2.1842,2.1875,1.8937,1.8119,1.9975,1.5671,1.3562,1.4195,1.1392,0.952,0.8787,0.6213,0.4956,0.5017,0.3871,0.3002,0.2594,0.4258,0.6293,0.86,1.1397,1.2365,1.1996,1.2897,1.2183,1.1035,1.4014,1.4721,1.4141,1.4205,1.3104,1.1585,1.1585,1.1291,1.0968,1.0531,1.052,1.0739,1.0426,1.057,1.0744,1.0623,1.0722,1.0684,1.0016,0.9041,0.8034,0.7235,0.6102,0.4936,0.4412,0.54,0.5996,0.4619,0.4751,0.4986,0.4669,0.409,0.3914,0.0,0.5003,0.5593,0.6213,0.6891,0.7461,0.7777,0.6355,0.5635,0.6172,0.6275,0.56,0.3828,0.1312,-0.0,-0.0,-0.0,0.0403,0.1306,0.2253,0.365,0.5527,0.5845,0.595,0.594,0.5998,0.5983,0.599,0.6059,0.6275,0.6761,0.8897,0.8559,0.674,0.9197,1.0236,1.0337,1.0595,1.0677,1.0717,0.4118,0.1725,0.0211,0.1305,0.2924,0.421,0.454,0.7237,0.9634,1.0826,1.2951,1.6395,2.1852,2.2082,2.3248,2.6799,2.5449,2.442,2.4382,2.1785,2.0927,2.2392,1.8678,1.6594,1.654,1.3609,1.1466,1.0112,0.7175,0.574,0.5751,0.4223,0.3125,0.2419,0.4307,0.5737,0.7075,1.042,1.1086,0.9905,1.0479,1.0144,0.9479,1.2549,1.3071,1.2339,1.2326,1.1666,1.0812,1.086,1.0982,1.1104,1.1104,1.1375,1.1585,1.1417,1.1607,1.1741,1.1445,1.1526,1.146,1.0301,0.987,0.9196,0.7566,0.7785,0.7863,0.6111,0.6492,0.6964,0.6159,0.5588,0.5108,0.4582,0.3691,0.3187,0.0,0.4277,0.4806,0.5613,0.606,0.6563,0.7104,0.6893,0.6541,0.629,0.6682,0.6622,0.6091,0.2935,0.0764,-0.0,-0.0,-0.0,-0.0,-0.0,0.083,0.2549,0.2795,0.2953,0.291,0.2956,0.289,0.2937,0.2864,0.303,0.3444,0.6708,0.6754,0.5157,0.7459,0.9269,1.0424,1.0677,1.0717,1.0717,0.4914,0.207,-0.0145,0.0636,0.4639,0.7391,0.6119,0.9899,1.272,1.2221,1.6571,2.0521,2.2325,2.4959,2.7086,2.8537,2.8096,2.6934,2.4807,2.2911,2.1707,2.1477,2.0129,1.8794,1.7136,1.5622,1.3649,1.1228,0.7911,0.6207,0.598,0.4559,0.3439,0.2695,0.327,0.3912,0.492,0.8229,0.9225,0.8634,0.9797,1.0417,1.0651,1.0417,1.0482,1.0652,1.0637,1.0812,1.0955,1.1097,1.1246,1.1369,1.1375,1.1389,1.1362,1.1219,1.1179,1.1185,1.1179,1.1277,1.1279,1.1042,1.1018,1.0341,0.7979,0.9183,1.0188,0.7409,0.6543,0.675,0.8077,0.6881,0.533,0.4603,0.3617,0.3199,0.37,0.3799,0.4264,0.5644,0.5472,0.5634,0.657,0.6376,0.6482,0.7142,0.7194,0.7094,0.689,0.4474,0.2136,0.0101,-0.0,-0.0,-0.0,-0.0,-0.0,-0.0,-0.0,-0.0,-0.0,-0.0,-0.0,-0.0,-0.0,-0.0,0.0246,0.339,0.4671,0.4665,0.5454,0.7626,1.0437,1.0677,1.0717,1.0724,0.4727,0.2428,0.0823,0.1857,0.4967,0.714,0.6798,0.8047,1.0484,1.4246,1.675,1.9819,2.3869,2.6887,2.8845,2.8925,2.8791,2.7499,2.5057,2.3841,2.2406,2.0312,1.9176,1.7935,1.6481,1.3906,1.2853,1.3481,0.8071,0.6378,0.8041,0.5299,0.3573,0.2779,0.3095,0.3727,0.4614,0.6303,0.8152,1.0191,1.0453,1.0663,1.0767,1.061,1.0607,1.0798,1.0671,1.0744,1.0785,1.0819,1.0934,1.1084,1.1185,1.1301,1.1382,1.1341,1.1416,1.1477,1.1241,1.1355,1.1495,1.1489,1.1404,1.0445,0.6777,0.6465,0.6827,0.6122,0.6148,0.7021,0.8981,0.9745,0.9007,0.5846,0.3847,0.2931,0.3598,0.3683,0.4227,0.5478,0.5449,0.5749,0.6878,0.682,0.6856,0.7134,0.7316,0.7417,0.7231,0.4615,0.2147,0.0098,-0.0,-0.0,-0.0,-0.0,-0.0,-0.0,-0.0,-0.0,-0.0,-0.0,-0.0,-0.0,-0.0,-0.0,0.0123,0.0879,0.1271,0.1798,0.7206,0.9833,1.0571,1.0717,1.0717,1.0738,0.5272,0.3061,0.1539,0.2384,0.4705,0.721,0.9274,1.1764,1.4374,1.723,2.0347,2.2842,2.4621,2.78,2.937,2.7814,2.7675,2.626,2.3204,2.2813,2.1736,1.9617,1.9223,1.8192,1.6117,1.413,1.2986,1.2901,0.8675,0.7077,0.7879,0.5551,0.3945,0.3117,0.3476,0.368,0.3888,0.557,0.7652,0.9917,1.0351,1.0628,0.0,1.0561,1.0575,1.0756,1.0761,1.0717,1.0731,1.0799,1.0921,1.1056,1.1138,1.1267,1.1382,1.1307,1.1362,1.143,1.1355,1.0242,0.9133,0.9084,1.0335,1.0928,0.8601,0.5525,0.3122,0.3149,0.3443,0.5062,0.964,1.1105,1.0301,0.6215,0.386,0.2693,0.3346,0.3569,0.4095,0.5143,0.536,0.5858,0.695,0.6973,0.6965,0.7237,0.7624,0.7781,0.7714,0.6088,0.4463,0.3131,0.1115,0.041,0.1416,0.0421,-0.0,-0.0,-0.0,-0.0,-0.0,-0.0,-0.0,-0.0,-0.0,-0.0,-0.0,-0.0,-0.0,0.0522,0.6217,0.9395,1.0853,1.0826,1.0819,1.0839,0.5453,0.3524,0.2564,0.3392,0.519,0.8215,1.3116,1.715,1.9789,2.031,2.4583,2.6803,2.4907,2.7787,2.8924,2.6387,2.5646,2.3897,2.0614,2.0705,2.0298,1.8853,1.9094,1.7992,1.5698,1.4805,1.3385,1.1622,0.9293,0.7837,0.7267,0.5703,0.4473,0.362,0.3928,0.3765,0.34,0.5573,0.7481,0.9093,1.0049,1.0507,1.0777,1.0507,1.0541,1.0772,1.0758,1.0738,1.0744,1.0873,1.1016,1.1138,1.1158,1.1253,1.1341,1.1233,1.1206,1.1358,1.1365,0.8959,0.6287,0.5305,0.7576,1.0089,1.0109,0.4864,-0.0,-0.0,-0.0,0.2092,0.889,1.0871,1.0138,0.6039,0.3826,0.2821,0.3154,0.3467,0.4065,0.4925,0.5384,0.0,0.6976,0.6908,0.7037,0.745,0.7955,0.8194,0.8026,0.7631,0.7309,0.7064,0.3086,0.1554,0.279,0.1508,0.0553,-0.0,-0.0,-0.0,-0.0,-0.0,-0.0,-0.0,-0.0,-0.0,-0.0,-0.0,-0.0,0.0265,0.347,0.7309,1.0995,1.0989,1.0995,1.1029,0.2285,0.3141,0.5215,0.839,0.9883,1.2577,1.8383,1.6355,1.5773,2.0635,2.3088,2.4602,2.5135,2.6549,2.6989,2.5959,2.4245,2.1989,1.9147,1.8853,1.777,1.555,1.514,1.49,1.4147,1.2244,1.2237,1.4248,0.9023,0.7413,0.9406,0.6087,0.4336,0.4095,0.3894,0.4193,0.5031,0.6328,0.8184,1.0433,1.074,1.09,1.1131,1.0873,1.0934,1.107,1.0948,1.0826,1.0724,1.0751,1.086,1.1009,1.1124,1.1179,1.1226,1.1489,1.1447,1.1365,1.1559,1.1147,0.9003,0.2661,0.1542,0.2095,0.2062,0.0959,-0.0,-0.0,-0.0,0.0386,0.1725,0.6943,0.9705,0.5694,0.4606,0.3936,0.3188,0.3465,0.4229,0.5318,0.5758,0.6269,0.6796,0.6995,0.723,0.7778,0.799,0.7951,0.7642,0.6635,0.6305,0.6798,0.6195,0.4177,0.0548,0.374,0.3477,-0.0,-0.0,-0.0,-0.0,-0.0,-0.0,-0.0,-0.0,-0.0,-0.0,-0.0,-0.0,-0.0,0.0671,0.5014,1.0783,1.1138,1.124,1.1201,0.3941,0.4474,0.5797,0.7688,1.0536,1.4109,1.8829,1.9153,1.9685,2.2212,2.3359,2.3833,2.3089,2.3886,2.3871,2.2252,2.1048,1.934,1.6718,1.6445,1.5793,1.4407,1.4265,1.4048,1.3736,1.2258,1.1983,1.3159,0.985,0.8298,0.0,0.6627,0.5226,0.4321,0.4506,0.5324,0.6747,0.7464,0.8509,0.9745,1.0578,1.1036,1.1158,1.1084,1.1104,1.1151,1.1084,1.1009,1.0948,1.0948,1.1002,1.1056,1.1056,1.1063,1.107,1.1077,1.105,1.1029,1.1056,0.8407,0.4672,0.0961,-0.0,-0.0,-0.0,-0.0,-0.0,-0.0,-0.0,-0.0,-0.0,0.2894,0.5873,0.7667,0.5536,0.3622,0.3644,0.4066,0.4601,0.5317,0.5723,0.5923,0.6081,0.6589,0.7049,0.7534,0.7642,0.7724,0.7548,0.6802,0.6563,0.696,0.6664,0.4942,0.1779,0.2594,0.2649,0.1678,0.057,-0.0,-0.0,-0.0,-0.0,-0.0,-0.0,-0.0,-0.0,-0.0,-0.0,-0.0,-0.0,0.4357,1.048,0.8804,0.9642,1.1422,0.8414,0.7863,0.757,0.811,1.1151,1.4671,1.8053,2.1256,2.3336,2.3948,2.4415,2.3821,2.1423,2.138,2.0795,1.8741,1.8034,1.6818,1.4709,1.4509,1.4448,1.4306,1.4299,1.4116,1.3729,1.2874,1.2285,1.2087,1.0855,0.9499,0.7967,0.7247,0.6061,0.4598,0.5501,0.669,0.8106,0.8561,0.8865,0.9379,1.0518,1.1104,1.1253,1.1226,1.1233,1.1253,1.1219,1.1233,1.126,1.126,1.124,1.1199,1.1084,1.1043,1.1016,1.0907,1.086,1.043,0.8784,0.4308,-0.0,-0.0,-0.0,-0.0,-0.0,-0.0,-0.0,-0.0,-0.0,-0.0,-0.0,-0.0,0.2058,0.8364,0.5848,0.3387,0.4051,0.4414,0.4718,0.4889,0.4961,0.5146,0.551,0.6092,0.6548,0.7014,0.719,0.7039,0.6642,0.6783,0.6624,0.6068,0.5686,0.4709,0.3141,0.1482,0.1286,0.2531,0.0807,-0.0,-0.0,-0.0,-0.0,-0.0,-0.0,-0.0,-0.0,-0.0,-0.0,-0.0,-0.0,0.3426,0.8159,0.6174,0.7993,1.1418,1.5608,1.4412,1.3336,1.5605,1.4742,1.5106,1.8839,1.8888,2.0166,2.4592,2.5185,2.4407,2.227,2.0364,1.8911,1.838,1.6521,1.5018,1.4529,1.4509,1.4448,1.4306,1.4299,1.4217,1.4034,1.3288,1.3064,1.3458,1.1468,1.0232,0.9709,0.7512,0.6032,0.5294,0.7225,0.832,0.8685,0.8883,0.9589,1.0745,1.107,1.1314,1.1558,1.1423,1.1457,1.1558,1.1416,1.1457,1.1579,1.1579,1.1497,1.1255,1.1241,1.1168,1.1226,1.1392,1.1193,0.9332,0.2827,0.0538,-0.0,-0.0,-0.0,-0.0,-0.0,-0.0,-0.0,-0.0,-0.0,-0.0,-0.0,-0.0,0.1094,0.4535,0.4904,0.467,0.4369,0.4208,0.416,0.4047,0.3164,0.3381,0.5475,0.5779,0.593,0.6321,0.6496,0.5578,0.3569,0.523,0.5141,0.2723,0.3286,0.3253,0.2489,0.2567,0.1831,0.0244,0.0119,-0.0,-0.0,-0.0,-0.0,-0.0,-0.0,-0.0,-0.0,-0.0,-0.0,-0.0,-0.0,0.0415,0.1404,0.4256,0.8074,1.1154,1.7848,1.5921,1.4189,1.5683,1.5557,1.6062,1.8068,1.9367,2.0172,2.1064,2.119,2.0505,1.8051,1.7026,1.6465,1.6345,1.5308,1.4645,1.4523,1.4434,1.436,1.4299,1.4299,1.4231,1.4075,1.3424,1.3261,1.3379,1.2662,1.1657,1.0315,0.9479,0.8781,0.8004,0.8433,0.942,1.0514,1.0129,1.0426,1.1226,1.1375,1.1558,1.1742,1.1681,1.164,1.1613,1.1552,1.1565,1.1619,1.1633,1.1402,1.1281,1.1281,1.1074,1.0975,1.1047,0.7859,0.3675,0.0809,-0.0,-0.0,-0.0,-0.0,-0.0,-0.0,-0.0,-0.0,-0.0,-0.0,-0.0,-0.0,-0.0,0.1405,0.579,0.7016,0.6952,0.5719,0.4717,0.405,0.3515,0.2396,0.262,0.4895,0.5158,0.5247,0.5541,0.5833,0.5646,0.4871,0.5491,0.5509,0.475,0.4361,0.3668,0.2717,0.1728,0.1403,0.1777,0.0602,-0.0,-0.0,-0.0,-0.0,-0.0,-0.0,-0.0,-0.0,-0.0,-0.0,-0.0,-0.0,-0.0,0.0142,0.1569,0.3188,0.4728,2.0009,1.7228,1.4885,1.5677,1.565,1.5671,1.6596,1.8139,1.8796,1.7475,1.7397,1.6934,1.5204,1.5031,1.5018,1.4977,1.4774,1.4611,1.4516,1.4421,1.4346,1.4299,1.4299,1.4251,1.4143,1.3593,1.3353,1.3245,1.3336,1.2536,1.0863,1.115,1.0696,0.9546,0.9744,1.0376,1.146,1.1024,1.1111,1.1531,1.164,1.1769,1.1898,1.1898,1.1809,1.1681,1.1681,1.1653,1.1619,1.1647,1.0706,0.99,1.1077,0.9564,0.7622,0.7553,0.4011,-0.0,-0.0,-0.0,-0.0,-0.0,-0.0,-0.0,-0.0,-0.0,-0.0,-0.0,-0.0,-0.0,-0.0,-0.0,0.1184,0.5019,0.7276,0.7891,0.5971,0.4886,0.4022,0.3125,0.2482,0.278,0.4794,0.4692,0.4788,0.5174,0.5181,0.5041,0.4727,0.519,0.521,0.472,0.4672,0.4176,0.3302,0.1407,0.0952,0.2026,0.0616,-0.0,-0.0,-0.0,-0.0,-0.0,-0.0,-0.0,-0.0,-0.0,-0.0,-0.0,-0.0,-0.0,-0.0,-0.0,-0.0,0.0449,2.2912,1.931,1.6069,1.7152,1.5365,1.3711,1.3873,1.4256,1.4353,1.4496,1.4645,1.4855,1.5147,1.5181,1.5126,1.4984,1.497,1.4835,1.4529,1.4509,1.4448,1.4306,1.4299,1.4299,1.4299,1.3858,1.3403,1.2956,1.2956,1.2536,1.1728,1.1901,1.0915,0.9124,1.096,1.1545,1.1151,1.1158,1.1416,1.1823,1.183,1.1925,1.206,1.206,1.1965,1.183,1.183,1.1735,1.1619,1.1647,0.9013,0.654,1.039,0.6365,0.0143,0.0143,-0.0,-0.0,-0.0,-0.0,-0.0,-0.0,-0.0,-0.0,-0.0,-0.0,-0.0,-0.0,-0.0,-0.0,-0.0,-0.0,-0.0,0.0127,0.4555,0.7025,0.4627,0.4263,0.3966,0.3127,0.3318,0.4102,0.5421,0.4696,0.4474,0.5485,0.471,0.33,0.1421,0.3542,0.3607,0.0902,0.3067,0.4285,0.4236,0.2319,0.0958,-0.0,-0.0,-0.0,-0.0,-0.0,-0.0,-0.0,-0.0,-0.0,-0.0,-0.0,-0.0,-0.0,-0.0,-0.0,-0.0,-0.0,-0.0,-0.0,2.4103,2.1641,1.9136,1.7878,1.5668,1.4201,1.4448,1.4387,1.457,1.4923,1.4923,1.497,1.516,1.5004,1.4903,1.4964,1.4692,1.4516,1.4509,1.4421,1.4346,1.4299,1.4299,1.4299,1.4299,1.4055,1.3709,1.3261,1.3604,1.3516,1.2735,1.2244,1.1684,1.0914,1.1475,1.1578,1.1619,1.1619,1.1823,1.2142,1.2142,1.2176,1.2203,1.2101,1.2033,1.1972,1.187,1.187,1.1925,1.1797,0.9192,0.6477,1.0381,0.6305,-0.0,-0.0,-0.0,-0.0,-0.0,-0.0,-0.0,-0.0,-0.0,-0.0,-0.0,-0.0,-0.0,-0.0,-0.0,-0.0,-0.0,-0.0,-0.0,-0.0,0.1385,0.2817,0.385,0.3248,0.2631,0.2747,0.2734,0.3064,0.4166,0.2986,0.2428,0.3007,0.411,0.464,0.4236,0.4113,0.405,0.4151,0.3888,0.3801,0.3768,0.3216,0.1872,-0.0,-0.0,-0.0,-0.0,-0.0,-0.0,-0.0,-0.0,-0.0,-0.0,-0.0,-0.0,-0.0,-0.0,-0.0,-0.0,-0.0,-0.0,-0.0,2.3528,2.1638,1.9241,1.6912,1.5439,1.4509,1.4631,1.4624,1.4719,1.5059,1.5072,1.5086,1.5174,1.5018,1.4943,1.5038,1.4746,1.4563,1.4597,1.4462,1.4353,1.4299,1.4299,1.4299,1.4299,1.415,1.3933,1.3654,1.3823,1.3589,1.3148,1.2471,1.2176,1.2081,1.1993,1.2033,1.2169,1.2169,1.2311,1.2542,1.2542,1.2508,1.2447,1.2345,1.2244,1.2135,1.204,1.2026,1.2067,1.2088,1.0363,0.8053,0.748,0.3867,-0.0,-0.0,-0.0,-0.0,-0.0,-0.0,-0.0,-0.0,-0.0,-0.0,-0.0,-0.0,-0.0,-0.0,-0.0,-0.0,-0.0,-0.0,-0.0,-0.0,-0.0,0.0628,0.2168,0.1669,0.153,0.2633,0.2038,0.2142,0.3856,0.2908,0.2114,0.1798,0.3326,0.4618,0.5507,0.3972,0.3372,0.4085,0.3495,0.324,0.3618,0.3582,0.2443,-0.0,-0.0,-0.0,-0.0,-0.0,-0.0,-0.0,-0.0,-0.0,-0.0,-0.0,-0.0,-0.0,-0.0,-0.0,-0.0,-0.0,-0.0,-0.0,2.1739,1.9655,1.746,1.4687,1.455,1.4699,1.4563,1.4665,1.4814,1.4977,1.512,1.5201,1.5215,1.5208,1.5201,1.5201,1.5052,1.4889,1.4719,1.4584,1.4448,1.4306,1.4299,1.4299,1.4299,1.4163,1.4089,1.4089,1.3512,1.3166,1.303,1.2725,1.2576,1.2576,1.2569,1.2644,1.2773,1.2773,1.2861,1.299,1.2983,1.2888,1.2759,1.2739,1.2569,1.2332,1.2311,1.2223,1.2108,1.2271,1.2278,1.0902,0.3321,0.0453,-0.0,-0.0,-0.0,-0.0,-0.0,-0.0,-0.0,-0.0,-0.0,-0.0,-0.0,-0.0,-0.0,-0.0,-0.0,-0.0,-0.0,-0.0,-0.0,-0.0,-0.0,-0.0,-0.0,-0.0,0.0719,0.2472,0.1179,0.1294,0.418,0.3758,0.284,0.1773,0.2333,0.3515,0.5065,0.3248,0.1941,0.1276,0.1911,0.2603,0.3364,0.3366,0.2231,-0.0,-0.0,-0.0,-0.0,-0.0,-0.0,-0.0,-0.0,-0.0,-0.0,-0.0,-0.0,-0.0,-0.0,-0.0,-0.0,-0.0,-0.0,-0.0,2.2084,2.088,1.9256,1.517,1.4618,1.4767,1.4848,1.4896,1.5011,1.5269,1.5337,1.5404,1.552,1.5425,1.5357,1.5357,1.5011,1.4685,1.4421,1.4468,1.4448,1.4306,1.4299,1.4299,1.4299,1.4265,1.4245,1.4245,1.3987,1.3844,1.3804,1.3505,1.3363,1.3356,1.3241,1.3207,1.3241,1.3241,1.3261,1.3288,1.3166,1.3098,1.3044,1.2813,1.2759,1.2773,1.2535,1.2501,1.2556,1.2447,1.258,1.2273,1.014,0.5196,-0.0,-0.0,-0.0,-0.0,-0.0,-0.0,-0.0,-0.0,-0.0,-0.0,-0.0,-0.0,-0.0,-0.0,-0.0,-0.0,-0.0,-0.0,-0.0,-0.0,-0.0,-0.0,-0.0,-0.0,0.0119,0.058,0.1075,0.1348,0.1112,0.0982,0.0736,0.0496,0.196,0.2911,0.3261,0.2371,0.1267,0.0377,0.0512,0.0652,0.08,0.08,0.0538,-0.0,-0.0,-0.0,-0.0,-0.0,-0.0,-0.0,-0.0,-0.0,-0.0,-0.0,-0.0,-0.0,-0.0,-0.0,-0.0,-0.0,-0.0,-0.0,2.2221,2.1379,2.0112,1.5326,1.4794,1.497,1.5059,1.5126,1.5255,1.5486,1.5574,1.5622,1.5635,1.5622,1.5527,1.5323,1.5025,1.4746,1.4516,1.4509,1.4448,1.4306,1.4299,1.4299,1.4299,1.4299,1.4299,1.4299,1.4217,1.4143,1.4068,1.3905,1.3797,1.3722,1.3641,1.36,1.36,1.36,1.36,1.3593,1.3512,1.3397,1.3261,1.3098,1.3003,1.2942,1.2773,1.2766,1.282,1.2739,1.2725,1.2889,1.2814,0.9458,0.503,0.1089,-0.0,-0.0,-0.0,-0.0,-0.0,-0.0,-0.0,-0.0,-0.0,-0.0,-0.0,-0.0,-0.0,-0.0,-0.0,-0.0,-0.0,-0.0,-0.0,-0.0,-0.0,-0.0,-0.0,-0.0,0.0618,0.0759,-0.0,-0.0,-0.0,-0.0,0.0886,0.1885,0.2619,0.2067,0.1175,-0.0,-0.0,-0.0,-0.0,-0.0,-0.0,-0.0,-0.0,-0.0,-0.0,-0.0,-0.0,-0.0,-0.0,-0.0,-0.0,-0.0,-0.0,-0.0,-0.0,-0.0,-0.0,-0.0,-0.0,-0.0,2.2225,2.1225,1.9788,1.549,1.5018,1.5215,1.5215,1.535,1.5499,1.5649,1.5778,1.5818,1.5716,1.5791,1.5689,1.5289,1.512,1.495,1.4753,1.4638,1.4509,1.434,1.4333,1.4319,1.4299,1.4299,1.4299,1.4299,1.4299,1.4231,1.4109,1.4109,1.4034,1.3912,1.3912,1.3912,1.3912,1.3912,1.3912,1.3905,1.3885,1.3722,1.3498,1.3451,1.3281,1.3057,1.301,1.299,1.299,1.2969,1.2976,1.2996,1.299,1.2869,1.1068,0.3203,0.0469,-0.0,-0.0,-0.0,-0.0,-0.0,-0.0,-0.0,-0.0,-0.0,-0.0,-0.0,-0.0,-0.0,-0.0,-0.0,0.0131,0.026,0.0127,-0.0,-0.0,-0.0,-0.0,-0.0,-0.0,-0.0,-0.0,-0.0,-0.0,-0.0,-0.0,0.0647,0.2197,0.2098,0.1437,0.0254,0.0132,-0.0,-0.0,-0.0,-0.0,-0.0,-0.0,-0.0,-0.0,-0.0,-0.0,-0.0,-0.0,-0.0,-0.0,-0.0,-0.0,-0.0,-0.0,-0.0,-0.0,-0.0,-0.0,-0.0,2.1895,2.0101,1.801,1.5476,1.5181,1.5377,1.5377,1.5506,1.5655,1.5805,1.5839,1.5893,1.6001,1.592,1.5778,1.5588,1.5432,1.5174,1.4767,1.4841,1.4774,1.4489,1.4475,1.4421,1.4299,1.4299,1.4299,1.4299,1.4299,1.4285,1.4265,1.4265,1.4251,1.4231,1.4231,1.4231,1.4231,1.4231,1.4231,1.4217,1.4089,1.4007,1.3939,1.3688,1.3566,1.3492,1.3234,1.3139,1.3119,1.3003,1.3044,1.3119,1.3003,1.3091,1.2206,0.6809,0.272,-0.0,-0.0,-0.0,-0.0,-0.0,-0.0,-0.0,-0.0,-0.0,-0.0,-0.0,-0.0,-0.0,-0.0,-0.0,0.0395,0.1708,0.0763,-0.0,-0.0,-0.0,-0.0,-0.0,-0.0,-0.0,-0.0,-0.0,-0.0,-0.0,-0.0,0.0131,0.0388,0.1456,0.1865,0.1573,0.054,-0.0,-0.0,-0.0,-0.0,-0.0,-0.0,-0.0,-0.0,-0.0,-0.0,-0.0,-0.0,-0.0,-0.0,-0.0,-0.0,-0.0,-0.0,-0.0,-0.0,-0.0,-0.0,-0.0,2.1885,1.9688,1.7579,1.532,1.5147,1.5343,1.5506,1.5594,1.5723,1.5947,1.5974,1.6001,1.6076,1.5947,1.5798,1.5649,1.5499,1.5289,1.4997,1.4977,1.4835,1.4523,1.4509,1.4441,1.4306,1.4299,1.4299,1.4299,1.4299,1.4299,1.4299,1.4299,1.4299,1.4299,1.4299,1.4299,1.4299,1.4299,1.4299,1.4292,1.4224,1.4143,1.4055,1.3919,1.3817,1.3722,1.3587,1.3532,1.3519,1.3458,1.3478,1.3526,1.3478,1.3372,1.2907,1.0837,0.5372,-0.0,-0.0,-0.0,-0.0,-0.0,-0.0,-0.0,-0.0,-0.0,-0.0,-0.0,-0.0,-0.0,-0.0,-0.0,0.0532,0.198,0.1675,0.0883,0.0125,-0.0,-0.0,-0.0,-0.0,-0.0,-0.0,-0.0,-0.0,-0.0,-0.0,-0.0,-0.0,0.1231,0.151,0.0818,0.0278,-0.0,-0.0,-0.0,-0.0,-0.0,-0.0,-0.0,-0.0,-0.0,-0.0,-0.0,-0.0,-0.0,-0.0,-0.0,-0.0,-0.0,-0.0,-0.0,-0.0,-0.0,-0.0,-0.0,2.1761,1.933,1.7009,1.5361,1.5167,1.5371,1.5601,1.5696,1.5825,1.6049,1.6049,1.6042,1.6076,1.5947,1.5811,1.5696,1.5554,1.5398,1.5248,1.5099,1.4882,1.4577,1.4502,1.4414,1.4299,1.4299,1.4299,1.4299,1.4299,1.4299,1.4299,1.4299,1.4299,1.4299,1.4299,1.4299,1.4299,1.4299,1.4299,1.4299,1.4299,1.4231,1.4122,1.4089,1.3994,1.3892,1.3851,1.3838,1.3838,1.3838,1.3838,1.3844,1.3707,1.2853,1.1968,1.3023,0.6977,-0.0,-0.0,-0.0,-0.0,-0.0,-0.0,-0.0,-0.0,-0.0,-0.0,-0.0,-0.0,-0.0,-0.0,-0.0,0.0408,0.1469,0.197,0.1817,0.0649,0.0263,-0.0,-0.0,-0.0,-0.0,-0.0,-0.0,-0.0,-0.0,-0.0,-0.0,-0.0,0.0842,0.0985,-0.0,-0.0,-0.0,-0.0,-0.0,-0.0,-0.0,-0.0,-0.0,-0.0,-0.0,-0.0,-0.0,-0.0,-0.0,-0.0,-0.0,-0.0,-0.0,-0.0,-0.0,-0.0,-0.0,-0.0,-0.0,2.163,1.8275,1.5183,1.514,1.5411,1.5615,1.5635,1.5872,1.6056,1.6076,1.5961,1.5927,1.6069,1.5947,1.5852,1.5839,1.5703,1.5554,1.5404,1.5248,1.5031,1.4733,1.4462,1.4312,1.4299,1.4299,1.4299,1.4299,1.4299,1.4299,1.4299,1.4299,1.4299,1.4299,1.4299,1.4299,1.4299,1.4299,1.4299,1.4299,1.4299,1.4292,1.4272,1.4129,1.4061,1.4034,1.3892,1.3838,1.3838,1.3838,1.3838,1.3844,1.3707,1.0741,0.7968,1.2188,0.7007,-0.0,-0.0,-0.0,-0.0,-0.0,-0.0,-0.0,-0.0,-0.0,-0.0,-0.0,-0.0,-0.0,-0.0,-0.0,-0.0,0.0138,0.134,0.2106,0.2106,0.0799,-0.0,-0.0,-0.0,-0.0,-0.0,-0.0,-0.0,-0.0,-0.0,-0.0,-0.0,0.014,0.0142,-0.0,-0.0,-0.0,-0.0,-0.0,-0.0,-0.0,-0.0,-0.0,-0.0,-0.0,-0.0,-0.0,-0.0,-0.0,-0.0,-0.0,-0.0,-0.0,-0.0,-0.0,-0.0,-0.0,-0.0,-0.0,2.1489,1.8035,1.4991,1.5038,1.5296,1.5499,1.5499,1.575,1.5906,1.5818,1.5832,1.5879,1.5934,1.5805,1.5757,1.5845,1.5723,1.5574,1.5418,1.5357,1.5194,1.4896,1.4685,1.457,1.457,1.457,1.4529,1.4428,1.4428,1.4387,1.4299,1.4299,1.4299,1.4299,1.4299,1.4299,1.4299,1.4299,1.4299,1.4299,1.4299,1.4299,1.4292,1.4238,1.4211,1.4204,1.415,1.4122,1.4122,1.4122,1.4122,1.4136,1.4015,1.0796,0.6702,0.5451,0.2606,-0.0,-0.0,-0.0,-0.0,-0.0,-0.0,-0.0,-0.0,-0.0,-0.0,-0.0,-0.0,-0.0,-0.0,-0.0,-0.0,-0.0,0.0419,0.1107,0.2059,0.0964,-0.0,-0.0,-0.0,-0.0,-0.0,-0.0,-0.0,-0.0,-0.0,-0.0,-0.0,-0.0,-0.0,-0.0,-0.0,-0.0,-0.0,-0.0,-0.0,-0.0,-0.0,-0.0,-0.0,-0.0,-0.0,-0.0,-0.0,-0.0,-0.0,-0.0,-0.0,-0.0,-0.0,-0.0,-0.0,-0.0,-0.0,-0.0,2.1369,1.7944,1.4916,1.4964,1.5215,1.5411,1.5411,1.5622,1.575,1.5649,1.5683,1.573,1.5778,1.5655,1.5628,1.5771,1.5655,1.552,1.5418,1.5364,1.5228,1.4984,1.4821,1.474,1.474,1.474,1.4685,1.4584,1.4584,1.4536,1.4441,1.4441,1.4414,1.4367,1.4367,1.434,1.4299,1.4299,1.4299,1.4299,1.4299,1.4299,1.4299,1.4299,1.4299,1.4299,1.4299,1.4299,1.4299,1.4299,1.4299,1.4312,1.438,1.004,0.4285,0.0885,-0.0,-0.0,-0.0,-0.0,-0.0,-0.0,-0.0,-0.0,-0.0,-0.0,-0.0,-0.0,-0.0,-0.0,-0.0,-0.0,-0.0,-0.0,-0.0,0.029,0.1424,0.057,-0.0,-0.0,-0.0,-0.0,-0.0,-0.0,-0.0,-0.0,-0.0,-0.0,-0.0,-0.0,-0.0,-0.0,-0.0,-0.0,-0.0,-0.0,-0.0,-0.0,-0.0,-0.0,-0.0,-0.0,-0.0,-0.0,-0.0,-0.0,-0.0,-0.0,-0.0,-0.0,-0.0,-0.0,-0.0,-0.0,-0.0,-0.0,2.1339,1.7836,1.4787,1.4943,1.5215,1.5411,1.5411,1.554,1.5642,1.5635,1.5506,1.5466,1.5622,1.5499,1.5472,1.5628,1.5499,1.5411,1.5411,1.5269,1.512,1.4984,1.4828,1.474,1.474,1.474,1.474,1.474,1.474,1.474,1.474,1.474,1.4658,1.4516,1.4516,1.4434,1.4306,1.4306,1.4306,1.4306,1.4299,1.4299,1.4306,1.4299,1.4299,1.4299,1.4299,1.4299,1.4299,1.4299,1.4299,1.4312,1.4202,0.7713,-0.0,-0.0,-0.0,-0.0,-0.0,-0.0,-0.0,-0.0,-0.0,-0.0,-0.0,-0.0,-0.0,-0.0,-0.0,-0.0,-0.0,-0.0,-0.0,-0.0,-0.0,-0.0,-0.0,-0.0,-0.0,-0.0,-0.0,-0.0,-0.0,-0.0,-0.0,-0.0,-0.0,-0.0,-0.0,-0.0,-0.0,-0.0,-0.0,-0.0,-0.0,-0.0,-0.0,-0.0,-0.0,-0.0,-0.0,-0.0,-0.0,-0.0,-0.0,-0.0,-0.0,-0.0,-0.0,-0.0,-0.0,-0.0,-0.0,-0.0,-0.0,-0.0,2.1369,1.7944,1.4916,1.4964,1.5215,1.5371,1.5269,1.5472,1.556,1.535,1.5371,1.5432,1.5472,1.5438,1.5472,1.5628,1.5594,1.5567,1.5567,1.5425,1.5371,1.5438,1.5187,1.5052,1.5052,1.5052,1.5004,1.4903,1.4903,1.4848,1.474,1.474,1.4713,1.4672,1.4672,1.4652,1.4611,1.4611,1.4611,1.4597,1.4489,1.4516,1.4584,1.438,1.436,1.4434,1.4333,1.4299,1.4299,1.4299,1.4299,1.3761,1.0377,0.5008,-0.0,-0.0,-0.0,-0.0,-0.0,-0.0,-0.0,-0.0,-0.0,-0.0,-0.0,-0.0,-0.0,-0.0,-0.0,-0.0,-0.0,-0.0,-0.0,-0.0,-0.0,-0.0,-0.0,-0.0,-0.0,-0.0,-0.0,-0.0,-0.0,-0.0,-0.0,-0.0,-0.0,-0.0,-0.0,-0.0,-0.0,-0.0,-0.0,-0.0,-0.0,-0.0,-0.0,-0.0,-0.0,-0.0,-0.0,-0.0,-0.0,-0.0,-0.0,-0.0,-0.0,-0.0,-0.0,-0.0,-0.0,-0.0,-0.0,-0.0,-0.0,-0.0,2.277,1.9357,1.6353,1.6413,1.5903,1.5269,1.512,1.5303,1.5371,1.5126,1.5228,1.5323,1.5323,1.5323,1.5384,1.5533,1.5601,1.5662,1.5716,1.5581,1.5567,1.5716,1.5493,1.5364,1.5364,1.5364,1.5289,1.5147,1.5147,1.5065,1.4916,1.4916,1.4882,1.4828,1.4828,1.4794,1.474,1.474,1.474,1.4733,1.4638,1.4658,1.4719,1.4543,1.4529,1.459,1.4502,1.4434,1.438,1.438,1.4394,1.3853,1.0936,0.5378,-0.0,-0.0,-0.0,-0.0,-0.0,-0.0,-0.0,-0.0,-0.0,-0.0,-0.0,-0.0,-0.0,-0.0,-0.0,-0.0,-0.0,-0.0,-0.0,-0.0,-0.0,-0.0,-0.0,-0.0,-0.0,-0.0,-0.0,-0.0,-0.0,-0.0,-0.0,-0.0,-0.0,-0.0,-0.0,-0.0,-0.0,-0.0,-0.0,-0.0,-0.0,-0.0,-0.0,-0.0,-0.0,-0.0,-0.0,-0.0,-0.0,-0.0,-0.0,-0.0,-0.0,-0.0,-0.0,-0.0,-0.0,-0.0,-0.0,-0.0,-0.0,-0.0,2.502,2.156,1.8561,1.855,1.7096,1.568,1.5341,1.5452,1.5501,1.5355,1.5279,1.5187,1.5201,1.5201,1.5262,1.5418,1.5574,1.5716,1.5845,1.573,1.5723,1.5866,1.5737,1.5662,1.5676,1.5655,1.5567,1.5432,1.5418,1.5337,1.5201,1.5187,1.5113,1.4991,1.4991,1.4909,1.478,1.478,1.478,1.478,1.4767,1.4767,1.4774,1.4753,1.4746,1.476,1.4746,1.4638,1.4509,1.4509,1.4543,1.4563,1.4475,0.7952,0.0545,0.018,-0.0,-0.0,-0.0,-0.0,-0.0,-0.0,-0.0,-0.0,-0.0,-0.0,-0.0,-0.0,-0.0,-0.0,-0.0,-0.0,-0.0,-0.0,-0.0,-0.0,-0.0,-0.0,-0.0,-0.0,-0.0,-0.0,-0.0,-0.0,-0.0,-0.0,-0.0,-0.0,-0.0,-0.0,-0.0,-0.0,-0.0,-0.0,-0.0,-0.0,-0.0,-0.0,-0.0,-0.0,-0.0,-0.0,-0.0,-0.0,-0.0,-0.0,-0.0,-0.0,-0.0,-0.0,-0.0,-0.0,-0.0,-0.0,-0.0,-0.0,2.502,2.2973,2.0478,1.8733,1.9742,2.0235,1.7895,1.7748,1.807,1.7708,1.619,1.5228,1.535,1.5364,1.5425,1.5574,1.5723,1.5818,1.5852,1.5825,1.5872,1.6029,1.5886,1.5866,1.5981,1.5757,1.5622,1.5588,1.5466,1.5391,1.5357,1.5242,1.5167,1.514,1.514,1.512,1.5086,1.5086,1.5086,1.5079,1.4964,1.4991,1.5059,1.4828,1.4814,1.4903,1.4787,1.4638,1.4509,1.4509,1.4597,1.4706,1.4557,1.0475,0.4772,0.1103,-0.0,-0.0,-0.0,-0.0,-0.0,-0.0,-0.0,-0.0,-0.0,-0.0,-0.0,-0.0,-0.0,-0.0,-0.0,-0.0,-0.0,-0.0,-0.0,-0.0,-0.0,-0.0,-0.0,-0.0,-0.0,-0.0,-0.0,-0.0,-0.0,-0.0,-0.0,-0.0,-0.0,-0.0,-0.0,-0.0,-0.0,-0.0,-0.0,-0.0,-0.0,-0.0,-0.0,-0.0,-0.0,-0.0,-0.0,-0.0,-0.0,-0.0,-0.0,-0.0,-0.0,-0.0,-0.0,-0.0,-0.0,-0.0,-0.0,-0.0,2.6599,2.5185,2.2852,2.0724,2.1491,2.1163,1.7238,1.7965,1.8441,1.6988,1.5825,1.5215,1.5296,1.5364,1.5499,1.5723,1.5879,1.5961,1.5961,1.5961,1.5967,1.5974,1.5967,1.5967,1.5974,1.5893,1.5811,1.5744,1.5594,1.5486,1.5411,1.533,1.5289,1.5296,1.5364,1.5357,1.5289,1.5289,1.5248,1.5174,1.5099,1.5113,1.5167,1.5011,1.5004,1.5059,1.4984,1.4855,1.4719,1.4645,1.4726,1.4848,1.4828,1.1299,0.6302,0.1479,-0.0,-0.0,-0.0,-0.0,-0.0,-0.0,-0.0,-0.0,-0.0,-0.0,-0.0,-0.0,-0.0,-0.0,-0.0,-0.0,-0.0,-0.0,-0.0,-0.0,-0.0,-0.0,-0.0,-0.0,-0.0,-0.0,-0.0,-0.0,-0.0,-0.0,-0.0,-0.0,-0.0,-0.0,-0.0,-0.0,-0.0,-0.0,-0.0,-0.0,-0.0,-0.0,-0.0,-0.0,-0.0,-0.0,-0.0,-0.0,-0.0,-0.0,-0.0,-0.0,-0.0,-0.0,-0.0,-0.0,-0.0,-0.0,-0.0,-0.0,2.7258,2.6182,2.4208,2.2201,2.2138,2.1007,1.6236,1.7459,1.807,1.5903,1.5279,1.5194,1.5221,1.5377,1.5594,1.5866,1.6008,1.6083,1.6083,1.6083,1.6029,1.59,1.6015,1.6022,1.5893,1.6015,1.6022,1.5893,1.5744,1.5608,1.5486,1.5459,1.5452,1.5452,1.5581,1.5567,1.5452,1.5452,1.5364,1.5221,1.5221,1.5208,1.5181,1.5181,1.5181,1.5181,1.5181,1.5106,1.4984,1.4828,1.4882,1.4991,1.4903,1.2135,0.768,0.1673,-0.0,-0.0,-0.0,-0.0,-0.0,-0.0,-0.0,-0.0,-0.0,-0.0,-0.0,-0.0,-0.0,-0.0,-0.0,-0.0,-0.0,-0.0,-0.0,-0.0,-0.0,-0.0,-0.0,-0.0,-0.0,-0.0,-0.0,-0.0,-0.0,-0.0,-0.0,-0.0,-0.0,-0.0,-0.0,-0.0,-0.0,-0.0,-0.0,-0.0,-0.0,-0.0,-0.0,-0.0,-0.0,-0.0,-0.0,-0.0,-0.0,-0.0,-0.0,-0.0,-0.0,-0.0,-0.0,-0.0,-0.0,-0.0,-0.0,-0.0,2.2638,2.2621,2.176,1.931,2.0847,2.151,1.8241,1.8467,1.8618,1.8075,1.6376,1.5235,1.5364,1.5628,1.5866,1.6035,1.6069,1.6083,1.6083,1.6083,1.6076,1.6049,1.6069,1.6069,1.6049,1.6069,1.6069,1.6049,1.59,1.5811,1.5791,1.5669,1.5608,1.5608,1.5628,1.5628,1.5608,1.5608,1.552,1.5377,1.5377,1.5303,1.5181,1.5181,1.5181,1.5181,1.5181,1.5167,1.5133,1.4991,1.5031,1.516,1.5181,1.4649,1.2367,0.2839,-0.0,-0.0,-0.0,-0.0,-0.0,-0.0,-0.0,-0.0,-0.0,-0.0,-0.0,-0.0,-0.0,-0.0,-0.0,-0.0,-0.0,-0.0,-0.0,-0.0,-0.0,-0.0,-0.0,-0.0,-0.0,-0.0,-0.0,-0.0,-0.0,-0.0,-0.0,-0.0,-0.0,-0.0,-0.0,-0.0,-0.0,-0.0,-0.0,-0.0,-0.0,-0.0,-0.0,-0.0,-0.0,-0.0,-0.0,-0.0,-0.0,-0.0,-0.0,-0.0,-0.0,-0.0,-0.0,-0.0,-0.0,-0.0,-0.0,-0.0,2.1512,2.207,2.1306,1.9166,2.0683,2.1029,1.7063,1.7708,1.8141,1.6612,1.5832,1.5208,1.5276,1.5554,1.5791,1.594,1.5954,1.592,1.5839,1.5906,1.592,1.5839,1.5995,1.6042,1.5954,1.6035,1.6083,1.6083,1.5927,1.5852,1.5852,1.5791,1.5757,1.5764,1.5845,1.5839,1.575,1.5676,1.5554,1.5404,1.5316,1.5242,1.5194,1.5276,1.5309,1.5323,1.5404,1.5384,1.5303,1.5235,1.5201,1.5187,1.5208,1.512,1.3847,0.6467,0.2284,-0.0,-0.0,-0.0,-0.0,-0.0,-0.0,-0.0,-0.0,-0.0,-0.0,-0.0,-0.0,-0.0,-0.0,-0.0,-0.0,-0.0,-0.0,-0.0,-0.0,-0.0,-0.0,-0.0,-0.0,-0.0,-0.0,-0.0,-0.0,-0.0,-0.0,-0.0,-0.0,-0.0,-0.0,-0.0,-0.0,-0.0,-0.0,-0.0,-0.0,-0.0,-0.0,-0.0,-0.0,-0.0,-0.0,-0.0,-0.0,-0.0,-0.0,-0.0,-0.0,-0.0,-0.0,-0.0,-0.0,-0.0,-0.0,-0.0]},{"header":{"parameterUnit":"m.s-1","parameterCategory":1,"la1":30.6,"la2":28.766,"lo1":-90.7593,"lo2":-88.6598,"dy":0.0162,"dx":0.0183,"nx":116,"ny":114,"refTime":"2024-03-22T06:00:00:Z","depth":0,"parameterNumber":3,"parameterNumberName":"V-component_of_WINDS"},"data":[0.0,0.0,0.0,0.0,0.0,0.0,0.0,0.0,0.0,0.0,0.0,0.0,0.0,0.0,0.0,0.0,0.0,0.0,0.0,0.0,0.0,0.0,0.0,0.0,0.0,0.0,0.0,0.0,0.0,0.0,0.0,0.0,0.0,0.0,0.0,0.0,0.0,0.0,0.0,0.0,0.0,0.0,0.0,0.0,0.0,0.0,0.0,0.0,0.0,0.0,0.0,0.0,0.0,0.0,0.0,0.0,0.0,0.0,0.0,0.0,0.0,0.0,0.0,0.0,0.0,0.0,0.0,0.0,0.0,0.0,0.0,0.0,0.0,0.0,0.0,0.0,0.0,0.0,0.0,0.0,0.0,0.0,0.0,0.0,0.0,0.0,0.0,0.0,0.0,0.0,0.0,0.0,0.0,0.0,0.0,0.0,0.0,0.0,0.0,0.0,0.0,0.0,0.0,0.0,0.0,0.0,0.0,0.0,0.0,0.0,0.0,0.0,0.0,0.0,0.0,0.0,0.0,0.0,0.0,0.0,0.0,0.0,0.0,0.0,0.0,0.0,0.0,0.0,0.0,0.0,0.0,0.0,0.0,0.0,0.0,0.0,0.0,0.0,0.0,0.0,0.0,0.0,0.0,0.0,0.0,0.0,0.0,0.0,0.0,0.0,0.0,0.0,0.0,0.0,0.0,0.0,0.0,0.0,0.0,0.0,0.0,0.0,0.0,0.0,0.0,0.0,0.0,0.0,0.0,0.0,0.0,0.0,0.0,0.0,0.0,0.0,0.0,0.0,0.0,0.0,0.0,0.0,0.0,0.0,0.0,0.0,0.0,0.0,0.0,0.0,0.0,0.0,0.0,0.0,0.0,0.0,0.0,0.0,0.0,0.0,0.0,0.0,0.0,0.0,0.0,0.0,0.0,0.0,0.0,0.0,0.0,0.0,0.0,0.0,0.0,0.0,0.0,0.0,0.0,0.0,0.0,0.0,0.0,0.0,0.0,0.0,0.0,0.0,0.0,0.0,0.0,0.0,0.0,0.0,0.0,0.0,0.0,0.0,0.0,0.0,0.0,0.0,0.0,0.0,0.0,0.0,0.0,0.0,0.0,0.0,0.0,0.0,0.0,0.0,0.0,0.0,0.0,0.0,0.0,0.0,0.0,0.0,0.0,0.0,0.0,0.0,0.0,0.0,0.0,0.0,0.0,0.0,0.0,0.0,0.0,0.0,0.0,0.0,0.0,0.0,0.0,0.0,0.0,0.0,0.0,0.0,0.0,0.0,0.0,0.0,0.0,0.0,0.0,0.0,0.0,0.0,0.0,0.0,0.0,0.0,0.0,0.0,0.0,0.0,0.0,0.0,0.0,0.0,0.0,0.0,0.0,0.0,0.0,0.0,0.0,0.0,0.0,0.0,0.0,0.0,0.0,0.0,0.0,0.0,0.0,0.0,0.0,0.0,0.0,0.0,0.0,0.0,0.0,0.0,0.0,0.0,0.0,0.0,0.0,0.0,0.0,0.0,0.0,0.0,0.0,0.0,0.0,0.0,0.0,0.0,0.0,0.0,0.0,0.0,0.0,0.0,0.0,0.0,0.0,0.0,0.0,0.0,0.0,0.0,0.0,0.0,0.0,0.0,0.0,0.0,0.0,0.0,0.0,0.0,0.0,0.0,0.0,0.0,0.0,0.0,0.0,0.0,0.0,0.0,0.0,0.0,0.0,0.0,0.0,0.0,0.0,0.0,0.0,0.0,0.0,0.0,0.0,0.0,0.0,0.0,0.0,0.0,0.0,0.0,0.0,0.0,0.0,0.0,0.0,0.0,0.0,0.0,0.0,0.0,0.0,0.0,0.0,0.0,0.0,0.0,0.0,0.0,0.0,0.0,0.0,0.0,0.0,0.0,0.0,0.0,0.0,0.0,0.0,0.0,0.0,0.0,0.0,0.0,0.0,0.0,0.0,0.0,0.0,0.0,0.0,0.0,0.0,0.0,0.0,0.0,0.0,0.0,0.0,0.0,0.0,0.0,0.0,0.0,0.0,0.0,0.0,0.0,0.0,0.0,0.0,0.0,0.0,0.0,0.0,0.0,0.0,0.0,0.0,0.0,0.0,0.0,0.0,0.0,0.0,0.0,0.0,0.0,0.0,0.0,0.0,0.0,0.0,0.0,0.0,0.0,0.0,0.0,0.0,0.0,0.0,0.0,0.0,0.0,0.0,0.0,0.0,0.0,0.0,0.0,0.0,0.0,0.0,0.0,0.0,0.0,0.0,0.0,0.0,0.0,0.0,0.0,0.0,0.0,0.0,0.0,0.0,0.0,0.0,0.0,0.0,0.0,0.0,0.0,0.0,0.0,0.0,0.0,0.0,0.0,0.0,0.0,0.0,0.0,0.0,0.0,0.0,0.0,0.0,0.0,0.0,0.0,0.0,0.0,0.0,0.0,0.0,0.0,0.0,0.0,0.0,0.0,0.0,0.0,0.0,0.0,0.0,0.0,0.0,0.0,0.0,0.0,0.0,0.0,0.0,0.0,0.0,0.0,0.0,0.0,0.0,0.0,0.0,0.0,0.0,0.0,0.0,0.0,0.0,0.0,0.0,0.0,0.0,0.0,0.0,0.0,0.0,0.0,0.0,0.0,0.0,0.0,0.0,0.0,0.0,0.0,0.0,0.0,0.0,0.0,0.0,0.0,0.0,0.0,0.0,0.0,0.0,0.0,0.0,0.0,0.0,0.0,0.0,0.0,0.0,0.0,0.0,0.0,0.0,0.0,0.0,0.0,0.0,0.0,0.0,0.0,0.0,0.0,0.0,0.0,0.0,0.0,0.0,0.0,0.0,0.0,0.0,0.0,0.0,0.0,0.0,0.0,0.0,0.0,0.0,0.0,0.0,0.0,0.0,0.0,0.0,0.0,0.0,0.0,0.0,0.0,0.0,0.0,0.0,0.0,0.0,0.0,0.0,0.0,0.0,0.0,0.0,0.0,0.0,0.0,0.0,0.0,0.0,0.0,0.0,0.0,0.0,0.0,0.0,0.0,0.0,0.0,0.0,0.0,0.0,0.0,0.0,0.0,0.0,0.0,0.0,0.0,0.0,0.0,0.0,0.0,0.0,0.0,0.0,0.0,0.0,0.0,0.0,0.0,0.0,0.0,0.0,0.0,0.0,0.0,0.0,0.0,0.0,0.0,0.0,0.0,0.0,0.0,0.0,0.0,0.0,0.0,0.0,0.0,0.0,0.0,0.0,0.0,0.0,0.0,0.0,0.0,0.0,0.0,0.0,0.0,0.0,0.0,0.0,0.0,0.0,0.0,0.0,0.0,0.0,0.0,0.0,0.0,0.0,0.0,0.0,0.0,0.0,0.0,0.0,0.0,0.0,0.0,0.0,0.0,0.0,0.0,0.0,0.0,0.0,0.0,0.0,0.0,0.0,0.0,0.0,0.0,0.0,0.0,0.0,0.0,0.0,0.0,0.0,0.0,0.0,0.0,0.0,0.0,0.0,0.0,0.0,0.0,0.0,0.0,0.0,0.0,0.0,0.0,0.0,0.0,0.0,0.0,0.0,0.0,0.0,0.0,0.0,0.0,0.0,0.0,0.0,0.0,0.0,0.0,0.0,0.0,0.0,0.0,0.0,0.0,0.0,0.0,0.0,0.0,0.0,0.0,0.0,0.0,0.0,0.0,0.0,0.0,0.0,0.0,0.0,0.0,0.0,0.0,0.0,0.0,0.0,0.0,0.0,0.0,0.0,0.0,0.0,0.0,0.0,0.0,0.0,0.0,0.0,0.0,0.0,0.0,0.0,0.0,0.0,0.0,0.0,0.0,0.0,0.0,0.0,0.0,0.0,0.0,0.0,0.0,0.0,0.0,0.0,0.0,0.0,0.0,0.0,0.0,0.0,0.0,0.0,0.0,0.0,0.0,0.0,0.0,0.0,0.0,0.0,0.0,0.0,0.0,0.0,0.0,0.0,0.0,0.0,0.0,0.0,0.0,0.0,0.0,0.0,0.0,0.0,0.0,0.0,0.0,0.0,0.0,0.0,0.0,0.0,0.0,0.0,0.0,0.0,0.0,0.0,0.0,0.0,0.0,0.0,0.0,0.0,0.0,0.0,0.0,0.0,0.0,0.0,0.0,0.0,0.0,0.0,0.0,0.0,0.0,0.0,0.0,0.0,0.0,0.0,0.0,0.0,0.0,0.0,0.0,0.0,0.0,0.0,0.0,0.0,0.0,0.0,0.0,0.0,0.0,0.0,0.0,0.0,0.0,0.0,0.0,0.0,0.0,0.0,0.0,0.0,0.0,0.0,0.0,0.0,0.0,0.0,0.0,0.0,0.0,0.0,0.0,0.0,0.0,0.0,0.0,0.0,0.0,0.0,0.0,0.0,0.0,0.0,0.0,0.0,0.0,0.0,0.0,0.0,0.0,0.0,0.0,0.0,0.0,0.0,0.0,0.0,0.0,0.0,0.0,0.0,0.0,0.0,0.0,0.0,0.0,0.0,0.0,0.0,0.0,0.0,0.0,0.0,0.0,0.0,0.0,0.0,0.0,0.0,0.0,0.0,0.0,0.0,0.0,0.0,0.0,0.0,0.0,0.0,0.0,0.0,0.0,0.0,0.0,0.0,0.0,0.0,0.0,0.0,0.0,0.0,0.0,0.0,0.0,0.0,0.0,0.0,0.0,0.0,0.0,0.0,0.0,0.0,0.0,0.0,0.0,0.0,0.0,0.0,0.0,0.0,0.0,0.0,0.0,0.0,0.0,0.0,0.0,0.0,0.0,0.0,0.0,0.0,0.0,0.0,0.0,0.0,0.0,0.0,0.0,0.0,0.0,0.0,0.0,0.0,0.0,0.0,0.0,0.0,0.0,0.0,0.0,0.0,0.0,0.0,0.0,0.0,0.0,0.0,0.0,0.0,0.0,0.0,0.0,0.0,0.0,0.0,0.0,0.0,0.0,0.0,0.0,0.0,0.0,0.0,0.0,0.0,0.0,0.0,0.0,0.0,0.0,0.0,0.0,0.0,0.0,0.0,0.0,0.0,0.0,0.0,0.0,0.0,0.0,0.0,0.0,0.0,0.0,0.0,0.0,0.0,0.0,0.0,0.0,0.0,0.0,0.0,0.0,0.0,0.0,0.0,0.0,0.0,0.0,0.0,0.0,0.0,0.0,0.0,0.0,0.0,0.0,0.0,0.0,0.0,0.0,0.0,0.0,0.0,0.0,0.0,0.0,0.0,0.0,0.0,0.0,0.0,0.0,0.0,0.0,0.0,0.0,0.0,0.0,0.0,0.0,0.0,0.0,0.0,0.0,0.0,0.0,0.0,0.0,0.0,0.0,0.0,0.0,0.0,0.0,0.0,0.0,0.0,0.0,0.0,0.0,0.0,0.0,0.0,0.0,0.0,0.0,0.0,0.0,0.0,0.0,0.0,0.0,0.0,0.0,0.0,0.0,0.0,0.0,0.0,0.0,0.0,0.0,0.0,0.0,0.0,0.0,0.0,0.0,0.0,0.0,0.0,0.0,0.0,0.0,0.0,0.0,0.0,0.0,0.0,0.0,0.0,0.0,0.0,0.0,0.0,0.0,0.0,0.0,0.0,0.0,0.0,0.0,0.0,0.0,0.0,0.0,0.0,0.0,0.0,0.0,0.0,0.0,0.0,0.0,0.0,0.0,0.0,0.0,0.0,0.0,0.0,0.0,0.0,0.0,0.0,0.0,0.0,0.0,0.0,0.0,0.0,0.0,0.0,0.0,0.0,0.0,0.0,0.0,0.0,0.0,0.0,0.0,0.0,0.0,0.0,0.0,0.0,0.0,0.0,0.0,0.0,0.0,0.0,0.0,0.0,0.0,0.0,0.0,0.0,0.0,0.0,0.0,0.0,0.0,0.0,0.0,0.0,0.0,0.0,0.0,0.0,0.0,0.0,0.0,0.0,0.0,0.0,0.0,0.0,0.0,0.0,0.0,0.0,0.0,0.0,0.0,0.0,0.0,0.0,0.0,0.0,0.0,0.0,0.0,0.0,0.0,0.0,0.0,0.0,0.0,0.0,0.0,0.0,0.0,0.0,0.0,0.0,0.0,0.0,0.0,0.0,0.0,0.0,0.0,0.0,0.0,-2.04,-1.8716,0.0,0.0,0.0,0.0,0.0,0.0,0.0,0.0,0.0,0.0,0.0,0.0,0.0,0.0,0.0,0.0,0.0,0.0,0.0,0.0,0.0,0.0,0.0,0.0,0.0,0.0,0.0,0.0,0.0,0.0,0.0,0.0,0.0,0.0,-1.5797,-1.5826,-1.5826,-1.5797,-1.7543,-2.0162,-2.3526,-2.2788,-2.1086,-1.8614,0.0,0.0,0.0,0.0,0.0,0.0,0.0,0.0,0.0,0.0,0.0,0.0,0.0,0.0,0.0,0.0,0.0,0.0,0.0,0.0,0.0,0.0,0.0,0.0,0.0,0.0,0.0,0.0,0.0,0.0,0.0,0.0,0.0,0.0,0.0,0.0,0.0,0.0,0.0,0.0,0.0,0.0,0.0,0.0,0.0,0.0,0.0,0.0,0.0,0.0,0.0,0.0,0.0,0.0,0.0,0.0,0.0,0.0,0.0,0.0,0.0,0.0,0.0,0.0,0.0,0.0,0.0,0.0,0.0,0.0,-2.3496,-2.1754,0.0,0.0,0.0,0.0,0.0,0.0,0.0,0.0,0.0,0.0,0.0,0.0,0.0,0.0,0.0,0.0,0.0,0.0,0.0,0.0,0.0,0.0,0.0,-1.8158,-1.7698,-1.5272,-1.5876,-1.5921,-1.4802,-1.4811,-1.4968,-1.5269,-1.5389,-1.5595,-1.5883,-1.5911,-1.627,-1.7053,-2.1243,-2.5464,-2.9609,-3.0792,-2.8926,-2.4368,-2.1334,0.0,0.0,0.0,0.0,0.0,0.0,0.0,0.0,0.0,0.0,0.0,0.0,0.0,0.0,0.0,0.0,0.0,0.0,0.0,0.0,0.0,0.0,0.0,0.0,0.0,0.0,0.0,0.0,0.0,0.0,0.0,0.0,0.0,0.0,0.0,0.0,0.0,0.0,0.0,0.0,0.0,0.0,0.0,0.0,0.0,0.0,0.0,0.0,0.0,0.0,0.0,0.0,0.0,0.0,0.0,0.0,0.0,0.0,0.0,0.0,0.0,0.0,0.0,-2.9911,-3.0605,-3.1439,-3.1871,-3.2154,-3.2052,-2.8202,-2.6491,-2.6124,-2.2888,0.0,0.0,0.0,0.0,0.0,0.0,0.0,0.0,0.0,0.0,0.0,0.0,0.0,0.0,0.0,0.0,0.0,0.0,0.0,0.0,0.0,-1.7679,-1.6861,-1.5754,-1.5602,-1.5241,-1.4488,-1.4529,-1.4596,-1.469,-1.5088,-1.5388,-1.5477,-1.5536,-1.7364,-2.098,-2.9132,-3.4205,-3.6377,-3.7751,-3.797,-3.6919,-3.0465,-2.5895,-2.2975,0.0,0.0,0.0,0.0,0.0,0.0,0.0,0.0,0.0,0.0,0.0,0.0,0.0,0.0,0.0,0.0,0.0,0.0,0.0,0.0,0.0,0.0,0.0,0.0,0.0,0.0,0.0,0.0,0.0,0.0,0.0,0.0,0.0,0.0,0.0,0.0,0.0,0.0,0.0,0.0,0.0,-2.1351,-2.3158,0.0,0.0,0.0,0.0,0.0,0.0,0.0,0.0,0.0,0.0,0.0,0.0,0.0,-2.9579,-3.3156,-3.3853,-3.5265,-3.7513,-3.8203,-3.8531,-3.8642,-3.8653,-3.8973,-3.9458,-3.6422,0.0,-3.2576,-2.8073,0.0,0.0,0.0,0.0,0.0,0.0,0.0,0.0,0.0,0.0,0.0,0.0,0.0,0.0,0.0,0.0,0.0,0.0,0.0,0.0,0.0,-2.0676,-2.1766,-2.0501,-2.4967,-2.5354,-1.945,-2.1148,-2.0042,-1.4886,-1.4902,-1.5117,-1.5358,-1.7695,-2.2536,-2.9971,-3.5091,-3.9595,-4.3428,-4.4417,-4.5361,-4.5942,-4.2433,-3.6572,-2.9156,-2.798,0.0,0.0,0.0,0.0,0.0,0.0,0.0,0.0,0.0,0.0,0.0,0.0,0.0,0.0,0.0,0.0,0.0,0.0,0.0,0.0,0.0,0.0,0.0,0.0,0.0,0.0,0.0,0.0,0.0,0.0,0.0,0.0,0.0,0.0,0.0,0.0,0.0,0.0,0.0,-2.1439,-2.6216,-2.7504,-2.8557,-2.8226,0.0,0.0,0.0,0.0,0.0,0.0,0.0,0.0,0.0,-2.948,-3.1819,-3.4399,-3.7114,-3.8606,-4.0273,-4.2117,-4.2824,-4.3395,-4.3719,-4.4032,-4.4335,-4.4592,-4.3001,-4.1558,-3.9938,-3.4935,-3.2567,-3.1641,0.0,0.0,0.0,0.0,-1.7954,-1.8357,0.0,0.0,0.0,0.0,0.0,0.0,0.0,0.0,0.0,0.0,0.0,0.0,-2.0646,-2.5094,-2.7853,-2.7319,-3.3361,-3.3419,-2.4471,-2.6091,-2.361,-1.5086,-1.4766,-1.4963,-1.5239,-2.128,-2.8911,-3.8037,-4.1238,-4.5269,-4.9932,-5.0642,-5.1691,-5.2909,-5.2334,-4.6253,-3.6274,-3.4329,-3.0631,-2.5798,0.0,0.0,0.0,0.0,0.0,0.0,0.0,0.0,0.0,0.0,0.0,0.0,0.0,0.0,0.0,0.0,0.0,0.0,0.0,0.0,0.0,0.0,0.0,0.0,0.0,0.0,0.0,0.0,0.0,0.0,0.0,0.0,0.0,0.0,0.0,0.0,0.0,-2.4087,-2.9412,-3.0475,-3.1953,-3.2269,0.0,0.0,0.0,0.0,0.0,0.0,-2.9603,-3.1646,-3.3259,-3.431,-3.6802,-3.8968,-4.0696,-4.2702,-4.4213,-4.5096,-4.6395,-4.7202,-4.7477,-4.8111,-4.846,-4.8514,-4.7855,-4.6948,-4.5588,-4.0852,-3.7076,-3.4338,-3.4918,-3.1593,-2.6216,-2.4132,-2.2787,-2.2867,0.0,0.0,0.0,0.0,0.0,0.0,0.0,0.0,0.0,0.0,0.0,-2.4432,-2.6693,-3.0334,-3.3574,-3.6026,-3.6205,-3.3608,-2.7561,-2.5392,-2.1446,-1.5087,-1.4795,-1.4904,-1.5121,-2.6315,-3.5557,-4.2501,-4.8664,-5.2942,-5.5344,-5.6055,-5.6833,-5.7543,-5.7509,-5.2741,-4.4432,-4.1519,-3.7087,-3.1593,-2.6904,0.0,0.0,0.0,0.0,0.0,0.0,0.0,0.0,0.0,0.0,0.0,0.0,0.0,0.0,0.0,0.0,0.0,0.0,0.0,0.0,0.0,0.0,0.0,0.0,0.0,0.0,0.0,0.0,0.0,0.0,0.0,0.0,0.0,0.0,0.0,0.0,0.0,0.0,-2.8973,-3.6182,0.0,0.0,0.0,0.0,-3.0315,-3.0525,-3.1917,-3.4658,-3.6598,-3.8531,-4.0661,-4.2267,-4.3787,-4.5365,-4.6832,-4.7334,-4.6733,-4.959,-5.0535,-4.9827,-5.0426,-5.0983,-5.1344,-5.0281,-4.9195,-4.7884,-4.4576,-4.2179,-4.0533,-3.9516,-3.991,-4.0302,-3.4002,-3.1303,-3.1593,0.0,0.0,0.0,0.0,0.0,0.0,0.0,0.0,-1.9862,-2.0089,-2.4139,-2.7654,-2.9365,-3.6648,-4.2529,-4.5311,-4.9125,-4.8934,-4.3142,-3.7342,-3.0958,-2.3872,-1.8045,-1.85,-2.5935,-3.4277,-4.2189,-4.9675,-5.2909,-5.5649,-5.7848,-5.8592,-5.9573,-6.0791,-6.0791,-5.9363,-5.6622,-5.0716,-4.4984,-3.9501,-3.4432,-2.8265,0.0,0.0,0.0,0.0,0.0,0.0,0.0,0.0,0.0,0.0,0.0,0.0,0.0,0.0,0.0,0.0,0.0,0.0,0.0,0.0,0.0,0.0,0.0,0.0,0.0,0.0,0.0,0.0,0.0,0.0,0.0,0.0,0.0,0.0,0.0,0.0,0.0,-3.3773,-3.8058,0.0,-3.8044,-3.7336,-3.6654,-3.5785,-3.7735,-3.9435,-4.0394,-4.2009,-4.3519,-4.4756,-4.6244,-4.7496,-4.8511,-4.9528,-5.0376,-5.1088,-5.211,-5.2952,-5.3598,-5.3818,-5.4041,-5.4069,-5.2668,-5.1825,-5.1264,-4.9033,-4.5969,-4.264,-4.2693,-4.1593,-4.0002,-4.0594,-4.2117,-4.3977,0.0,0.0,0.0,0.0,0.0,0.0,0.0,0.0,-2.0601,-2.2205,-2.7336,-3.219,-3.5783,-4.4346,-5.1064,-5.4033,-5.8058,-5.6798,-4.8175,-4.2138,-3.4639,-2.5058,-2.1077,-2.4438,-3.5811,-4.141,-4.7861,-5.5378,-5.6867,-5.8592,-6.0554,-6.1028,-6.1941,-6.3125,-6.3396,-6.3768,-6.3903,-5.8389,-5.2809,-4.7127,-4.1305,-3.3909,-2.6011,0.0,0.0,0.0,0.0,0.0,0.0,0.0,0.0,0.0,0.0,0.0,0.0,0.0,0.0,0.0,0.0,0.0,0.0,0.0,0.0,0.0,0.0,0.0,0.0,0.0,0.0,0.0,0.0,0.0,0.0,0.0,0.0,0.0,0.0,-2.8183,-3.405,-3.6901,-4.0534,-4.2675,-4.2315,-4.1498,-4.1023,-4.1231,-4.3504,-4.506,-4.5297,-4.6515,-4.7394,-4.7902,-4.9086,-4.9999,-5.0473,-5.1503,-5.2356,-5.3092,-5.3833,-5.4547,-5.5268,-5.5485,-5.5815,-5.6108,-5.4648,-5.4016,-5.395,-5.2862,-5.0518,-4.7577,-4.6915,-4.5055,-4.3191,-4.682,-4.9605,-5.1299,0.0,0.0,0.0,0.0,0.0,0.0,0.0,-2.0224,-2.2136,-2.6063,-3.1546,-3.8157,-4.622,-5.3161,-5.8722,-6.2175,-6.1906,-5.5789,-4.1989,-3.8717,-3.1434,-1.8218,-2.3969,-3.2659,-4.3698,-4.7334,-5.2404,-5.9167,-6.0655,-6.2144,-6.3599,-6.3632,-6.4038,-6.4749,-6.5459,-6.5797,-6.5696,-6.4275,-6.0283,-5.4432,-4.7295,-3.9368,-3.1309,0.0,0.0,0.0,0.0,0.0,0.0,0.0,0.0,0.0,0.0,0.0,0.0,0.0,0.0,0.0,0.0,0.0,0.0,0.0,0.0,0.0,0.0,0.0,0.0,0.0,0.0,0.0,0.0,0.0,0.0,0.0,0.0,0.0,-2.5268,-3.2691,-3.7939,-3.8038,-4.3987,-4.7368,-4.5565,-4.638,-4.6898,-4.6552,-4.7479,-4.8342,-4.9052,-4.9729,-5.0135,-5.0168,-5.0879,-5.1251,-5.1285,-5.2819,-5.3211,-5.2507,-5.4706,-5.536,-5.4737,-5.5386,-5.6293,-5.7265,-5.622,-5.5743,-5.5744,-5.5721,-5.5691,-5.536,-5.2005,-5.0692,-5.0875,-5.2512,-5.3109,-5.2878,0.0,0.0,0.0,0.0,0.0,0.0,0.0,-1.9303,-2.1151,-2.6189,-3.3824,-4.1442,-4.8285,-5.6711,-6.3316,-6.6972,-6.4218,-5.9657,-5.3493,-4.3228,-3.3673,-2.5486,-3.3971,-4.2038,-4.8778,-5.3651,-5.8146,-6.2279,-6.3226,-6.4174,-6.5121,-6.6203,-6.6812,-6.7015,-6.7793,-6.8166,-6.8098,-6.7117,-6.5846,-6.3801,-5.5791,-4.8673,-4.2518,0.0,0.0,0.0,0.0,0.0,0.0,0.0,0.0,0.0,0.0,0.0,0.0,0.0,0.0,0.0,0.0,0.0,0.0,0.0,0.0,0.0,0.0,0.0,0.0,0.0,0.0,0.0,0.0,0.0,0.0,0.0,-2.831,-3.2155,-3.2241,-3.7057,-4.189,-4.5454,-4.9468,-5.1526,-5.0488,-5.1628,-5.1695,-4.9986,-5.0649,-5.0947,-5.0608,-5.0811,-5.115,-5.1691,-5.1894,-5.23,-5.2875,-5.3788,-5.446,-5.4803,-5.5991,-5.6731,-5.7068,-5.7624,-5.8033,-5.8308,-5.8329,-5.7688,-5.6491,-5.5935,-5.5676,-5.536,-5.2005,-5.0699,-5.0779,-5.1202,-5.1376,-5.1318,0.0,0.0,0.0,0.0,0.0,0.0,0.0,-1.9395,-2.1985,-2.8556,-3.634,-4.4191,-5.1861,-5.9776,-6.5282,-6.7208,-6.2293,-5.6591,-5.0692,-4.0254,-3.4923,-3.6437,-4.3436,-5.0092,-5.6082,-5.9869,-6.299,-6.5358,-6.5764,-6.6373,-6.7151,-6.7996,-6.8402,-6.8436,-6.9214,-6.978,-7.0191,-6.9712,-6.9854,-6.9852,-6.4352,-5.7751,-5.1074,-4.8312,-4.3557,-3.8093,-3.5897,-3.5687,-3.5225,-2.743,0.0,0.0,0.0,0.0,0.0,0.0,0.0,0.0,0.0,0.0,0.0,0.0,0.0,0.0,0.0,0.0,0.0,0.0,0.0,0.0,0.0,0.0,0.0,0.0,-3.3195,-3.8307,-4.0503,-4.3315,-4.6452,-4.997,-5.2503,-5.3618,-5.2669,-5.382,-5.3753,-5.1664,-5.2337,-5.2638,-5.2198,-5.2164,-5.2367,-5.2807,-5.2807,-5.3209,-5.3946,-5.4391,-5.5179,-5.6204,-5.6668,-5.7413,-5.8326,-5.8591,-5.8913,-5.9319,-5.9543,-5.9224,-5.84,-5.6476,-5.5682,-5.5511,0.0,0.0,0.0,0.0,-5.151,-5.1279,0.0,0.0,0.0,0.0,0.0,0.0,0.0,-2.0033,-2.3629,-3.1831,-3.8417,-4.5951,-5.5376,-6.167,-6.511,-6.4883,-5.8197,-5.0021,-4.07,-3.5062,-3.7124,-4.8329,-5.2163,-5.7137,-6.3869,-6.5459,-6.6812,-6.803,-6.8199,-6.8605,-6.9214,-6.9316,-6.935,-6.9383,-7.0128,-7.0994,-7.1827,-7.2,-7.2687,-7.3505,-7.2192,-6.6358,-5.821,-5.6847,-5.2222,-4.64,-4.5408,-4.387,-4.168,-3.7132,0.0,0.0,0.0,0.0,0.0,0.0,0.0,0.0,0.0,0.0,0.0,0.0,0.0,0.0,0.0,0.0,0.0,0.0,0.0,0.0,0.0,0.0,0.0,0.0,-3.6961,-4.3032,-4.872,-5.027,-5.1251,-5.23,-5.3856,-5.4458,-5.3434,-5.4146,-5.4051,-5.2434,-5.3039,-5.3551,-5.3619,-5.3551,0.0,0.0,0.0,-5.4014,-5.4572,-5.4861,-5.5658,-5.6912,-5.6964,-5.758,-5.8713,-5.8756,-5.9248,-6.0103,-6.0008,-6.0303,-6.0535,-5.7527,-5.6082,-5.5775,-5.5724,-5.3741,-5.1085,-5.2567,-5.2626,-5.2164,0.0,0.0,0.0,0.0,0.0,0.0,0.0,-1.9709,-2.3221,-3.1807,-3.7486,-4.4181,-5.3146,-5.893,-6.3079,-6.5295,-5.7264,-4.9094,-4.1805,-4.3277,-4.7173,-5.3123,-5.9127,-6.3789,-6.6981,-6.8538,-6.918,-6.8876,-7.006,-7.0432,-6.9992,-7.0601,-7.0872,-7.0939,-7.165,-7.2171,-7.2658,-7.3871,-7.5117,-7.6264,-7.594,-7.2449,-6.723,-6.5707,-6.3909,-6.1784,-5.9006,-5.9371,-5.9724,-4.9856,-4.7267,-4.6748,-3.8474,-3.0335,0.0,0.0,0.0,0.0,0.0,0.0,0.0,0.0,0.0,0.0,0.0,0.0,0.0,0.0,0.0,0.0,0.0,0.0,0.0,-3.909,-4.532,-5.0575,-5.2365,-5.4296,-5.4938,-5.345,-5.5108,-5.6052,-5.5232,-5.5339,-5.5342,-5.4962,-5.4023,-5.3754,-5.4363,-5.3822,-5.3518,-5.3518,-5.4689,-5.5104,-5.4606,-5.6475,-5.7227,-5.6912,-5.7498,0.0,-5.8676,-5.9065,-5.9559,-6.0132,-6.047,-6.0695,-6.075,-6.0073,-5.8473,-5.6374,-5.5895,-5.4203,-5.2125,-5.2451,-5.2451,-5.2336,0.0,0.0,0.0,0.0,0.0,0.0,0.0,-2.0154,-2.2765,-2.9152,-3.3584,-3.8639,-4.5219,-4.9483,-5.2268,-5.3411,-4.8458,-4.4224,-4.1741,-4.7101,-5.374,-6.1009,-6.5192,-6.8436,-7.0635,-7.1819,-7.2225,-7.1853,-7.2597,-7.2766,-7.2394,-7.2394,-7.2394,-7.2428,-7.28,-7.3582,-7.4763,-7.5919,-7.7215,-7.842,-7.882,-7.7073,-7.4051,-7.2474,-7.1143,-6.9779,-6.732,-6.6733,-6.5946,-5.8665,-5.6248,-5.5232,-4.8945,-4.186,-3.4782,0.0,0.0,0.0,0.0,0.0,0.0,0.0,0.0,0.0,0.0,0.0,0.0,0.0,0.0,-3.242,-3.3802,0.0,-4.2955,-4.4575,-5.0051,-5.4356,-5.5076,-5.6731,-5.7239,-5.5378,-5.6461,-5.707,-5.6325,-5.6258,-5.6122,-5.575,-5.504,-5.46,-5.46,-5.46,-5.4601,-5.4624,-5.5731,-5.6326,-5.6325,-5.7532,-5.7913,-5.7449,-5.7821,-5.8238,-5.8713,-5.8951,-5.9424,-6.0132,-6.0338,-6.0559,-6.0804,-6.0804,-5.9127,-5.6566,-5.6258,-5.5297,-5.3972,-5.3413,-5.3028,-5.2913,0.0,0.0,0.0,0.0,0.0,0.0,0.0,-2.0474,-2.2084,-2.6319,-2.9279,-3.2662,-3.7053,-3.9674,-4.0535,-3.9127,-4.037,-4.1517,-4.2137,-5.0559,-5.9481,-6.8402,-7.0229,-7.1954,-7.3883,-7.4661,-7.5067,-7.5067,-7.5067,-7.5067,-7.5033,-7.4289,-7.3916,-7.3916,-7.4296,-7.55,-7.7107,-7.8299,-7.9432,-8.0571,-8.1232,-8.0608,-7.9103,-7.7451,-7.5799,-7.4147,-7.2239,-6.9301,-6.6133,-6.4002,-6.1532,-5.9091,-5.751,-5.2753,-4.6159,-3.7958,-3.4925,0.0,0.0,0.0,0.0,0.0,0.0,0.0,0.0,-3.1234,-3.3025,-3.453,-3.672,-3.8996,-4.1184,-4.5061,-4.8514,-5.0445,-5.4225,-5.7101,-5.7632,-5.8739,-5.8896,-5.7408,-5.7746,-5.7881,-5.7306,-5.6968,-5.663,-5.6156,-5.5886,-5.5513,-5.504,-5.5446,-5.5792,-5.5992,-5.6738,-5.7504,-5.832,-5.8477,-5.8419,-5.8217,-5.8217,-5.8386,-5.8713,-5.8713,-5.9139,-5.9946,-6.015,-6.0453,-6.0825,-6.0796,-5.9473,-5.7373,-5.712,-5.672,-5.6126,-5.4818,-5.4049,-5.3895,0.0,0.0,0.0,0.0,0.0,0.0,0.0,0.0,-2.092,-2.553,-2.6902,-2.9239,-3.3868,-3.5711,-3.4939,-3.0861,-4.1997,-4.8094,-4.5164,-5.7103,-6.6576,-7.1684,-7.3308,-7.4525,-7.5439,-7.6217,-7.6657,-7.6657,-7.6657,-7.6657,-7.6623,-7.5811,-7.5439,-7.5567,-7.7228,-7.8326,-7.8886,-8.1399,-8.2648,-8.303,-8.3104,-8.259,-8.1599,-7.9984,-7.8369,-7.6533,-7.345,-6.7794,-6.2168,-6.4323,-6.085,-5.6422,-6.0664,-5.7498,-5.1466,-4.7793,-4.1113,-3.3126,-2.4798,-2.188,-2.1456,-2.3053,-2.6422,-3.1303,0.0,-4.0516,-4.2091,-4.7455,-4.9853,-5.1527,-5.331,-5.5757,-5.8106,-5.9849,-6.0558,-6.0909,-6.1016,-6.1018,-6.0486,-5.8964,-5.8829,-5.8863,-5.8761,-5.7577,-5.7036,-5.7611,-5.6461,-5.5953,-5.6528,-5.6021,-5.603,-5.672,-5.7544,-5.8352,-5.9167,-5.9807,-5.9773,-5.9098,-5.9098,-5.894,-5.8713,-5.8713,-5.899,-5.953,-6.0365,-6.0733,-6.079,-6.0776,-6.0589,-6.0204,-5.8973,-5.8412,-5.8127,-5.6203,-5.5472,-5.5434,0.0,0.0,0.0,0.0,0.0,0.0,0.0,0.0,0.0,-2.1696,-2.1955,-2.2951,-2.5394,-2.638,-2.5871,-2.3421,-3.5426,-4.3827,-4.5362,-5.8144,-6.8064,-7.3443,-7.554,-7.6927,-7.7671,-7.8855,-7.9464,-7.9464,-7.9464,-7.9228,-7.8788,-7.8716,-7.8441,-7.8121,-7.9618,-8.0647,-8.1466,-8.2998,-8.3846,-8.4132,-8.4609,-8.3471,-8.1379,-8.0204,-7.7598,-7.3868,-6.8822,-6.4137,0.0,-5.9365,-5.7273,-5.5728,-6.0066,-5.6928,-5.1131,-4.8436,-4.1925,-3.527,-3.3795,-3.0351,-2.8925,-3.6568,-3.8936,-4.0867,-4.6715,-4.9286,-5.1067,-5.3207,-5.5203,-5.7105,-5.9218,-6.0884,-6.2068,-6.2711,-6.4018,-6.4214,-6.2341,-6.2013,-6.1197,-5.9235,-5.8254,-5.7881,-5.8321,-5.7408,-5.7103,-5.7814,-5.734,-5.6934,-5.6799,-5.6918,-5.7354,-5.8246,-5.9064,-5.9799,-6.061,-6.0457,-6.0015,-5.9208,-5.8731,-5.8428,-5.8282,-5.8282,-5.8549,-5.9028,-5.9681,-6.0304,-6.0771,-6.0529,-6.0533,-6.0742,-6.0165,-5.9511,-5.8742,-5.7242,-5.628,-5.5682,0.0,0.0,0.0,0.0,0.0,0.0,0.0,0.0,0.0,0.0,-1.8424,-1.8592,-1.9499,-2.0022,-2.0005,-1.9273,-2.9355,-3.833,-4.4504,-5.6493,-6.666,-7.3984,-7.6657,-7.8517,-7.9701,-8.0953,-8.1697,-8.19,-8.1697,-8.1426,-8.1088,-8.1551,-8.1425,-8.0997,-8.2475,-8.3574,-8.4344,-8.526,-8.5663,-8.5637,-8.6004,-8.4352,-8.1452,-7.9507,-7.5422,-7.0062,-6.4311,-5.9537,-5.5526,-5.2519,-5.059,-5.011,-5.4301,-5.2579,-4.8537,-4.6152,-3.959,-3.3928,-3.7905,-3.5922,-3.545,-4.6368,-4.9104,-4.9972,-5.3335,-5.6111,-5.7797,-5.7071,-5.8522,-6.0517,-6.2494,-6.3577,-6.4344,-6.4882,-6.6213,-6.6383,-6.4068,-6.2989,-6.1467,-5.8998,-5.7205,-5.6393,-5.6934,-5.6867,-5.7036,-5.7543,-5.778,-5.7645,-5.7137,-5.781,-5.8671,-5.9547,-6.0131,-6.0772,-6.1594,-6.0786,-6.0015,-5.9208,-5.8768,-5.8371,-5.8231,-5.8326,-5.8503,-5.8753,-5.9176,-5.9782,-6.0403,-6.0188,-6.0365,-6.0781,-6.0781,-6.0281,-5.9435,-5.828,-5.6973,-5.572,0.0,0.0,0.0,0.0,0.0,0.0,0.0,0.0,0.0,0.0,0.0,0.0,0.0,-1.9687,-1.998,-1.9696,-2.6408,-3.4277,-4.2802,-5.2294,-6.232,-7.3071,-7.6386,-7.8991,-8.119,-8.1968,-8.2712,-8.3422,-8.2712,-8.2712,-8.3389,-8.3891,-8.4119,-8.4179,-8.6465,-8.7516,-8.7595,-8.8765,-8.883,-8.8023,-8.7288,-8.5527,-8.281,-7.8038,-7.2157,-6.5945,-6.1692,-5.4385,-4.6411,-4.4422,-4.0104,-3.6473,-4.1835,-4.4113,-4.4353,-4.1938,-3.3921,-2.695,-3.2594,-3.422,-3.6489,-4.5517,-5.2759,-5.7875,-5.8779,-6.0158,-6.1025,-6.0154,-6.1206,-6.2566,-6.3505,-6.4312,-6.5575,-6.794,-6.7609,-6.6969,-6.7011,-6.4376,-6.1264,-5.8287,-5.5987,-5.4668,-5.4702,-5.5953,-5.6799,-5.6833,-5.7476,-5.7881,-5.7848,-5.8668,-5.9474,-6.03,-6.0418,-6.0772,-6.1594,-6.0786,-6.0015,-5.9208,-5.9647,-5.9417,-5.8676,-5.9139,-5.9102,-5.8753,-5.9176,-5.9389,-5.9496,-5.9916,-6.0365,-6.0781,-6.0781,-6.0781,-6.0589,-5.9473,-5.7643,-5.572,0.0,0.0,0.0,0.0,0.0,0.0,0.0,0.0,0.0,0.0,0.0,0.0,0.0,0.0,0.0,0.0,-2.5377,-3.1528,-3.6881,-4.8527,-5.7984,-6.4098,-7.2134,-7.7063,-7.8348,-8.0547,-8.2035,-8.278,-8.3326,-8.3655,-8.3994,-8.5675,-8.6524,-8.6573,-8.762,-8.7998,-8.8034,-8.7882,-8.7031,-8.5747,-8.4939,-8.0568,-7.4206,-7.1417,-6.4649,-5.5984,0.0,-4.5348,-4.0778,-3.8555,-3.6059,-3.4661,-3.8894,-3.7681,-3.3941,-2.9974,-3.064,-3.3787,-3.878,-4.2568,-4.7095,-5.5631,-6.0643,-6.3517,-6.374,-6.3723,-6.3306,-6.1945,-5.8496,-5.5822,-5.6044,-5.4025,-5.4156,-5.9779,-6.1816,-6.3542,-6.579,-6.4822,-6.2009,-5.7036,-5.5784,-5.4532,-5.2536,-5.3721,-5.504,-5.6021,-5.7226,-5.7947,-5.7947,-5.9249,-6.0344,-6.1171,-6.1207,-6.1309,-6.1594,-6.0786,-6.0015,-5.9208,-5.9727,-6.0297,-6.0792,-6.0448,-6.0148,-6.0003,-5.9583,-5.9559,-5.9885,-6.0006,-6.0365,-6.0781,-6.0781,-6.0781,-6.0742,-6.0358,-5.9742,-5.8742,0.0,0.0,0.0,0.0,0.0,0.0,0.0,0.0,0.0,0.0,0.0,0.0,0.0,0.0,0.0,0.0,0.0,-2.7774,-3.2983,-4.2005,-4.959,-5.4912,-6.2838,-6.7435,-6.8122,-7.0603,-7.2085,-7.2557,-7.5811,-7.7698,-7.8098,-8.2852,-8.5201,-8.5531,-8.65,-8.6921,-8.6848,-8.6077,-8.3814,-8.0751,-7.945,-7.4033,-6.6305,-6.3609,-5.7091,0.0,-4.3769,-3.9495,-3.5877,-3.3623,-3.2091,-3.1646,-3.4751,-3.2252,-2.8038,-2.7211,-3.0307,-3.5741,-4.3992,-4.9137,-5.423,-6.2479,-6.6135,-6.7391,-6.6399,-6.5688,-6.4104,-6.0122,-5.5542,-5.1682,-4.9552,-4.6877,-4.7237,-5.4416,-5.6801,-5.9438,-6.4241,-6.3565,-6.1095,-5.6968,-5.5784,-5.4568,-5.2618,-5.3301,-5.4393,-5.5621,-5.7118,-5.8133,-5.8421,-5.9951,-6.1063,-6.1568,-6.1865,-6.1887,-6.1594,-6.108,-6.0367,-5.9456,-6.0282,-6.1018,-6.1705,-6.1375,-6.1109,-6.0909,-6.0037,-5.9823,-6.0103,-6.0103,-6.0365,-6.0781,-6.0781,-6.0781,-6.0781,-6.0781,-6.0804,-6.0496,0.0,0.0,0.0,0.0,0.0,0.0,0.0,0.0,0.0,0.0,0.0,0.0,0.0,0.0,0.0,0.0,0.0,0.0,-3.079,-3.3208,-3.7972,-4.6034,-4.9559,-5.1627,-5.2184,-5.3751,-5.4622,-5.4728,-6.1633,-6.5503,-6.6512,-7.522,-7.972,-8.0476,-8.2417,-8.3331,-8.3294,-8.2458,-7.8719,-7.3171,-7.1115,-6.611,-5.9313,-5.5004,-4.978,-4.4328,-4.1292,-3.6738,-3.1954,-2.9929,-2.8327,-2.7658,-2.9699,-2.8388,-2.7269,-3.3524,-3.321,-3.3802,-4.8083,-5.3956,-5.798,-6.5896,-6.9009,-6.9398,-6.6815,-6.599,-6.3341,-5.5198,-5.2487,-4.9854,-4.4138,-4.2751,-4.4787,-5.1839,-5.3069,-5.5547,-6.264,-6.1282,-5.9146,-5.8196,-5.6229,-5.487,-5.4745,-5.4703,-5.5015,-5.5876,-5.7265,-5.8387,-5.9228,-6.0798,-6.1659,-6.1659,-6.2376,-6.2401,-6.1594,-6.152,-6.096,-6.0013,-6.1281,-6.1785,-6.1582,-6.1979,-6.1914,-6.1459,-6.0514,-6.0132,-6.0132,-6.0132,-6.0391,-6.0781,-6.0781,-6.0781,-6.0781,-6.0781,-6.0781,-6.0781,0.0,0.0,0.0,0.0,0.0,0.0,0.0,0.0,0.0,0.0,0.0,0.0,0.0,0.0,0.0,0.0,0.0,0.0,-2.4345,-2.9358,-3.367,-3.6734,-4.3739,-4.8058,-4.9194,-5.119,-5.252,-5.3123,-5.5893,-5.7694,-5.8657,-6.2453,-6.4315,-6.447,-6.5345,-6.5826,-6.5947,-6.5478,-6.4459,-6.3012,-6.1795,-5.6988,-5.0275,-4.8289,-4.3261,-3.7221,-3.6238,-3.5198,-3.3938,-3.1656,-3.0846,-3.1218,-3.3594,-3.3794,-3.4318,-4.0342,-4.378,-4.7548,-5.655,-6.2141,-6.6226,-6.9577,-7.0128,-6.9462,-6.7532,-6.2676,-5.7398,-5.3502,-4.5342,-3.827,-3.624,-3.5346,-3.7644,-4.6053,-5.1796,-5.7769,-6.5138,-6.6129,-6.4777,-6.1195,-6.0183,-5.8878,-5.6588,-5.6341,-5.6892,-5.8279,-5.8765,-5.9322,-6.01,-6.1676,-6.2515,-6.2515,-6.2705,-6.2401,-6.1594,-6.0419,-6.049,-6.1768,-6.1525,-6.2334,-6.4107,-6.2977,-6.2585,-6.2734,-6.1275,-6.0622,-6.0622,-6.0622,-6.0671,-6.0781,-6.0781,-6.0781,-6.0781,-6.0781,-6.0781,-6.0781,0.0,0.0,0.0,0.0,0.0,0.0,0.0,0.0,0.0,0.0,0.0,0.0,0.0,0.0,0.0,0.0,0.0,0.0,0.0,-2.5427,-2.7807,-2.8396,-3.3439,-3.629,-3.6495,-3.8109,-3.9314,-4.0238,-4.4092,-4.6639,-4.7979,-5.2465,-5.4789,-5.5183,-5.5687,-5.6078,-5.6418,-5.5826,-5.4626,0.0,0.0,-4.7726,-4.2122,-4.1299,-3.8307,-3.4428,-3.4343,-3.4718,-3.5342,-3.5811,-3.6396,-3.7178,-3.8826,-3.9494,-4.0951,-4.7452,-5.0629,-5.3584,-6.1019,-6.6141,-6.9559,-7.047,-7.0337,-6.8597,-6.3137,-5.8682,-5.3376,-4.5398,-3.8722,-3.3692,-3.1504,-3.1436,-3.4695,-4.4042,-4.9576,-5.5646,-6.4009,-6.5402,-6.4675,-6.2372,-6.1805,-6.0757,-5.8709,-5.8494,-5.8951,-6.0238,-5.9651,-5.9832,-6.0929,-6.2128,-6.2805,-6.2805,-6.2805,-6.2585,-6.2144,-6.1227,-6.1051,-6.153,-6.2011,-6.2743,-6.366,-6.2947,-6.2863,-6.3205,-6.1512,-6.0781,-6.0781,-6.0781,-6.0781,-6.0781,-6.0781,-6.0781,-6.0781,-6.0781,-6.0781,-6.0781,0.0,0.0,0.0,0.0,0.0,0.0,0.0,0.0,0.0,0.0,0.0,0.0,0.0,0.0,0.0,0.0,0.0,0.0,0.0,0.0,-2.2214,-2.2111,-2.2893,-2.2887,-2.189,-2.2766,-2.3651,-2.4406,-3.073,-3.4649,-3.6411,-4.2943,-4.6488,-4.74,-4.7915,-4.8564,-4.9189,-4.8452,-4.6234,-4.3202,-4.2068,-3.9229,-3.5573,0.0,-3.4564,-3.3931,-3.4133,-3.482,-3.6257,-4.0492,-4.2634,-4.3699,-4.4888,-4.5747,-4.768,-5.4314,-5.5521,-5.6225,-6.3436,-6.7659,-7.0001,-6.9893,-6.9721,-6.6915,-5.6776,-5.4266,-4.9959,-3.554,-3.3043,-3.2489,-2.9387,-3.0212,-3.4627,-4.4429,-4.7746,-5.2362,-6.1725,-6.2648,-6.2567,-6.3146,-6.2541,-6.1712,-6.0792,-6.0594,-6.0897,-6.1691,-6.0435,-6.0274,-6.1655,-6.2438,-6.2805,-6.2805,-6.2805,-6.2805,-6.2805,-6.2634,-6.1985,-6.0856,-6.2562,-6.3003,-6.2324,-6.2509,-6.2863,-6.3205,-6.1512,-6.0781,-6.0781,-6.0781,-6.0781,-6.0781,-6.0781,-6.0781,-6.0781,-6.0781,-6.0781,-6.0781,0.0,0.0,0.0,0.0,0.0,0.0,0.0,0.0,0.0,0.0,-1.9364,-2.0058,0.0,0.0,0.0,0.0,0.0,0.0,0.0,0.0,0.0,-2.2245,-2.2374,-2.2563,-2.2869,-2.3606,-2.4163,-2.4402,-2.5786,-2.6932,-2.7831,-2.8519,-2.9235,-3.0046,-3.0427,-3.1191,-3.2168,-3.2386,-3.3201,-3.4281,-3.4101,-3.3876,-3.3582,-3.3333,0.0,0.0,-3.321,-3.4481,-3.6422,-4.1418,-4.4384,-4.6759,-5.1039,-5.3427,-5.5319,-5.917,-6.1465,-6.3509,-6.6882,-6.9141,-7.0487,-6.9883,-6.8342,-6.4447,-5.4938,-4.9664,-4.4078,-3.458,-3.0409,-2.9022,-3.0482,-3.219,-3.6346,-4.5608,-4.9811,-5.4938,-6.3454,-6.5234,-6.5715,-6.5807,-6.5113,-6.4071,-6.253,-6.1762,-6.1702,-6.2548,-6.1715,-6.1605,-6.2548,-6.2732,-6.2805,-6.2805,-6.2805,-6.2805,-6.2805,-6.1846,-6.1967,-6.3052,-6.2478,-6.3043,-6.4508,-6.3169,-6.2863,-6.3205,-6.1512,-6.0781,-6.0781,-6.0781,-6.0781,-6.0781,-6.0781,-6.0781,-6.0781,-6.0781,-6.0781,-6.0781,0.0,0.0,0.0,0.0,0.0,0.0,0.0,-1.8187,-1.8805,-1.9092,-1.9805,-2.0289,-2.0388,-2.0357,0.0,0.0,0.0,0.0,0.0,0.0,0.0,0.0,-2.1859,-2.1956,-2.2112,-2.2467,-2.2957,-2.3517,0.0,-2.4477,-2.5079,-2.4837,-2.4802,-2.4941,-2.5083,-2.5754,-2.6847,-2.7252,-2.866,-3.0588,-3.1122,-3.167,-3.2177,0.0,0.0,0.0,-3.2393,-3.3637,-3.5712,-3.9159,-4.2087,-4.546,-5.2234,-5.5736,-5.7322,-5.7395,-6.0634,-6.4053,-6.3876,-6.6815,-6.9782,-6.8593,-6.6616,-6.1962,-5.042,-4.5903,-4.118,-3.1061,-2.8343,-2.8572,-3.0911,-3.2834,-3.6135,-4.2296,-4.686,-5.2034,-5.8988,-6.1543,-6.3356,-6.5044,-6.4897,-6.42,-6.2915,-6.2071,-6.1924,-6.2768,-6.2034,-6.1961,-6.2768,-6.2805,-6.2805,-6.2805,-6.2805,-6.2805,-6.2805,-6.2288,-6.2353,-6.296,-6.284,-6.3351,-6.4444,-6.3192,-6.2863,-6.3205,-6.1512,-6.0781,-6.0781,-6.0781,-6.0781,-6.0781,-6.0781,-6.0781,-6.0781,-6.0781,-6.0781,-6.0781,0.0,0.0,0.0,0.0,0.0,0.0,0.0,-1.841,-1.8931,-1.9531,-2.0091,-2.0423,-2.0423,-2.0426,-2.046,0.0,0.0,0.0,0.0,0.0,0.0,0.0,0.0,0.0,-2.1247,0.0,0.0,-2.2701,-2.3325,0.0,0.0,0.0,0.0,0.0,-2.4165,-2.464,-2.5615,-2.6146,-2.7271,0.0,0.0,-3.0268,-3.0747,0.0,0.0,0.0,0.0,-3.2343,-3.4479,-3.6348,-3.8942,-4.2644,-4.9839,-5.3754,-5.5511,-5.4494,-5.8287,-6.2581,-6.1868,-6.5619,-6.9366,-6.7898,-6.5424,-5.9831,-4.6725,-4.3186,-3.9409,-2.7984,-2.7113,-2.9024,-3.1086,-3.2336,-3.4445,-3.8753,-4.2089,-4.6613,-5.3656,-5.6563,-5.9408,-6.3356,-6.398,-6.3759,-6.2879,-6.2218,-6.2108,-6.2768,-6.2218,-6.2144,-6.2768,-6.2805,-6.2805,-6.2805,-6.2805,-6.2855,-6.2965,-6.2925,-6.2888,-6.2963,-6.3343,-6.3837,-6.4297,-6.3236,-6.2891,-6.3066,-6.168,-6.0911,-6.0647,-6.0757,-6.0781,-6.0781,-6.0781,-6.0781,-6.0781,-6.0781,-6.0781,-6.0781,0.0,0.0,0.0,0.0,0.0,0.0,0.0,-1.8467,-1.8991,-1.9625,-2.0156,-2.0494,-2.0494,-2.0392,-2.0423,0.0,0.0,0.0,0.0,0.0,0.0,0.0,0.0,0.0,0.0,0.0,0.0,-2.2702,-2.2895,0.0,0.0,0.0,0.0,0.0,0.0,-2.4141,-2.4931,-2.5903,0.0,0.0,0.0,0.0,0.0,0.0,0.0,0.0,0.0,-3.0302,-3.2731,-3.4813,-3.6965,-3.9425,-4.2812,-4.5972,-4.9338,-5.3874,-5.7636,-6.1605,-6.7199,-6.9633,-7.0484,-6.9671,-6.549,-5.8509,-4.6576,-4.2295,-3.7991,-2.7875,-2.7161,-2.9185,-3.1662,-3.018,-3.0926,-3.8048,-3.7099,-3.9531,-5.1379,-5.3584,-5.6191,-6.2192,-6.3613,-6.3759,-6.2879,-6.2732,-6.2732,-6.2805,-6.2732,-6.2732,-6.2805,-6.2805,-6.2805,-6.2805,-6.2805,-6.3062,-6.3543,-6.3228,-6.3688,-6.4851,-6.381,-6.418,-6.5654,-6.4001,-6.3039,-6.2633,-6.2196,-6.1262,-6.0189,-6.0622,-6.0781,-6.0781,-6.0781,-6.0781,-6.0781,-6.0781,-6.0781,-6.0781,0.0,0.0,0.0,0.0,0.0,0.0,-1.7777,-1.8704,-1.9404,-1.9562,-2.0024,-2.0392,-2.0457,-2.0289,-2.0289,0.0,0.0,0.0,0.0,0.0,0.0,0.0,0.0,0.0,0.0,0.0,-2.1984,-2.2108,-2.2599,0.0,0.0,0.0,0.0,0.0,0.0,-2.3917,-2.458,-2.5812,0.0,0.0,0.0,0.0,0.0,0.0,0.0,0.0,0.0,0.0,-3.0219,-3.1399,-3.2254,-3.3168,-3.484,-3.6678,-3.9148,-4.4524,-5.2379,-5.946,-6.0006,-6.5407,-7.0522,-6.9283,-6.4448,-5.7438,-4.7864,-4.2362,-3.7113,-2.937,-2.8123,-2.8728,-2.98,-2.89,-2.8855,-3.1385,-3.166,-3.4693,-4.3659,-4.6047,-4.9898,-5.8187,-5.9905,-6.086,-6.1961,-6.2071,-6.2071,-6.2071,-6.2548,-6.2805,-6.2805,-6.2805,-6.2805,-6.2805,-6.2805,-6.2904,-6.3121,-6.3301,-6.38,-6.4661,-6.3947,-6.4419,-6.582,-6.4089,-6.3476,-6.3756,-6.2617,-6.1785,-6.1301,-6.0926,-6.0781,-6.0781,-6.0781,-6.0781,-6.0781,-6.0781,-6.0781,-6.0781,0.0,0.0,0.0,0.0,0.0,-1.7535,-1.7861,-1.8805,-1.9531,-1.978,-2.0115,-2.0357,-2.0388,-2.022,-2.022,-2.046,0.0,0.0,0.0,0.0,0.0,0.0,0.0,0.0,0.0,0.0,-2.1464,-2.168,-2.2236,-2.2396,0.0,0.0,-2.2485,-2.2278,0.0,0.0,0.0,0.0,0.0,0.0,0.0,0.0,0.0,0.0,0.0,0.0,0.0,0.0,0.0,0.0,0.0,-2.9214,-2.9746,-3.0665,-3.2546,-3.8077,-4.6607,-5.4425,-5.5139,-6.1404,-6.7741,-6.7862,-6.2651,-5.5525,-4.8398,-4.1719,-3.5552,-3.0188,-2.8716,-2.8381,-2.835,-2.8137,-2.763,-2.652,-2.774,-3.0812,-3.6505,-3.9778,-4.4314,-5.1538,-5.4143,-5.6259,-5.876,-6.0774,-6.1961,-6.1961,-6.2475,-6.2805,-6.2805,-6.2805,-6.2805,-6.2805,-6.2805,-6.2904,-6.3062,-6.3408,-6.3975,-6.459,-6.4063,-6.4547,-6.582,-6.4089,-6.3693,-6.4346,-6.3002,-6.2233,-6.1851,-6.1373,-6.1012,-6.0781,-6.0781,-6.0781,-6.0781,-6.0781,-6.0781,-6.0781,0.0,0.0,0.0,0.0,0.0,0.0,-1.8487,-1.8829,-1.9307,-2.034,-2.0494,-2.046,-2.032,-2.0185,-2.0185,-2.0388,0.0,0.0,0.0,0.0,0.0,0.0,0.0,0.0,0.0,0.0,-2.1371,-2.1589,-2.1738,-2.2162,-2.2857,-2.2429,-2.2521,-2.3103,0.0,0.0,0.0,0.0,0.0,0.0,0.0,0.0,0.0,0.0,0.0,0.0,0.0,0.0,0.0,0.0,0.0,0.0,0.0,-2.9496,-3.1657,-3.732,-4.1221,-4.5805,-5.5677,-5.947,-6.1552,-6.5547,-6.004,-5.2376,-4.7464,-3.9905,-3.3018,-2.9777,-2.8763,-2.8314,-2.8069,-2.802,-2.735,-2.5369,-2.6012,-2.7935,-3.1341,-3.629,-4.0186,-4.1963,-4.6175,-4.9959,-5.273,-5.8936,-6.2805,-6.2805,-6.2805,-6.2805,-6.2805,-6.2805,-6.2805,-6.2805,-6.2805,-6.3062,-6.3587,-6.3631,-6.4099,-6.5099,-6.4222,-6.4547,-6.582,-6.4089,-6.3526,-6.3863,-6.3475,-6.2567,-6.1459,-6.1889,-6.1589,-6.0781,-6.0781,-6.0781,-6.0781,-6.0781,-6.0781,-6.0781,0.0,0.0,0.0,0.0,0.0,0.0,0.0,-1.8745,-1.9531,-1.9779,-2.0247,-2.0494,-2.0426,-2.0357,-2.0323,-2.046,0.0,0.0,0.0,0.0,0.0,0.0,0.0,0.0,0.0,0.0,-2.1464,-2.168,-2.1768,-2.19,-2.2068,-2.1658,-2.1832,-2.2507,-2.276,-2.3288,0.0,0.0,0.0,0.0,0.0,0.0,-2.59,0.0,0.0,0.0,0.0,0.0,0.0,0.0,0.0,0.0,0.0,0.0,0.0,-3.3321,-3.7868,-4.2893,-4.6665,-5.0712,-5.408,-5.5014,-5.0843,-4.5564,-4.2007,-3.6818,-3.2019,-2.9483,-2.8962,-2.8786,-2.8327,-2.8484,-2.8192,-2.6681,-2.6792,-2.8,-3.0522,-3.5545,-4.0397,-4.4327,-5.185,-5.7498,-5.9488,-6.1579,-6.2805,-6.2805,-6.2805,-6.2805,-6.2805,-6.3121,-6.3168,-6.2805,-6.2805,-6.2904,-6.3062,-6.3808,-6.4294,-6.4626,-6.445,-6.491,-6.5859,-6.4705,-6.4578,-6.5202,-6.4501,-6.3962,-6.3514,-6.2526,-6.1935,-6.1627,-6.1012,-6.0781,-6.0781,-6.0781,-6.0781,-6.0781,0.0,0.0,0.0,0.0,0.0,0.0,0.0,-1.9092,-1.9783,-1.9937,-2.0311,-2.0561,-2.0527,-2.0494,-2.0527,-2.0662,0.0,0.0,0.0,0.0,0.0,0.0,0.0,0.0,0.0,-2.134,-2.1526,-2.1738,-2.1882,-2.1945,-2.1886,-2.1786,-2.1812,-2.1949,-2.2212,-2.2569,0.0,0.0,0.0,0.0,0.0,0.0,-2.5222,0.0,0.0,0.0,0.0,0.0,0.0,0.0,0.0,0.0,0.0,0.0,0.0,0.0,-3.4215,-3.7961,-4.0734,-4.4103,-4.7031,-4.7802,-4.4611,-4.0607,-3.8363,-3.4466,-3.0826,-2.9108,-2.9051,-2.9123,-2.8645,-2.8606,-2.8293,-2.7049,-2.7195,-2.7619,-2.8122,-3.274,-3.8048,-4.3243,-5.1946,-5.8042,-5.9233,-6.1432,-6.2805,-6.2805,-6.2805,-6.2904,-6.3073,-6.3408,-6.3543,-6.3408,-6.3408,-6.3408,-6.3408,-6.4059,-6.4481,-6.4661,-6.4726,-6.4999,-6.5397,-6.4859,-6.4897,-6.5397,-6.4859,-6.4589,0.0,-6.3128,-6.2358,-6.2012,-6.1127,-6.0781,-6.0781,-6.0781,-6.0781,-6.0781,0.0,0.0,0.0,0.0,0.0,0.0,0.0,0.0,-2.0004,-2.0632,-2.0726,-2.0662,-2.0561,-2.0597,-2.073,-2.0926,0.0,0.0,0.0,0.0,0.0,0.0,0.0,0.0,0.0,-2.1402,-2.1524,-2.1827,-2.2084,-2.2198,-2.2237,-2.2485,-2.2228,-2.1522,-2.1685,-2.1516,0.0,0.0,0.0,0.0,-2.4229,-2.4303,0.0,0.0,0.0,0.0,0.0,0.0,0.0,0.0,0.0,0.0,0.0,0.0,0.0,0.0,0.0,0.0,0.0,-3.9119,-4.0158,-4.3009,-4.0481,-3.7,-3.6026,-3.2704,0.0,-2.8714,-2.8953,-2.9296,-2.8879,-2.8495,-2.789,-2.6747,-2.7297,-2.7069,-2.4819,-2.9206,-3.4705,-4.0319,-4.8388,-5.3687,-5.4036,-5.9343,-6.2805,-6.2805,-6.2805,-6.3014,-6.3543,-6.3631,-6.3892,-6.437,-6.4444,-6.4444,-6.437,-6.4407,-6.4661,-6.5099,-6.513,-6.4958,-6.4589,-6.4589,-6.4589,-6.4512,-6.4589,-6.4551,-6.4436,-6.3705,-6.2897,-6.2012,-6.1204,-6.0858,-6.0781,-6.0781,-6.0781,-6.0781,0.0,0.0,0.0,0.0,0.0,0.0,0.0,0.0,0.0,0.0,-2.0828,-2.0893,-2.1023,-2.1023,-2.1119,0.0,0.0,0.0,0.0,0.0,0.0,0.0,0.0,0.0,0.0,-2.1587,-2.1768,-2.2027,-2.2079,-2.2226,-2.2398,-2.1421,-2.1167,-2.1562,-2.0679,-2.0713,0.0,0.0,0.0,0.0,-2.417,-2.441,0.0,0.0,0.0,0.0,-2.5265,-2.5735,0.0,0.0,0.0,0.0,0.0,0.0,0.0,0.0,-3.0757,-3.188,-3.278,0.0,-3.291,-3.3057,-3.2112,-3.1048,0.0,-2.9722,-2.8903,-2.8508,-2.9002,-2.928,-2.8658,-2.8922,-2.8904,-2.8107,-2.8155,-2.7929,-2.6908,-3.4889,-4.2639,-4.7571,-5.4907,-5.9383,-5.8884,-6.1226,-6.2805,-6.2805,-6.2805,-6.2855,-6.2965,-6.3766,-6.4255,-6.437,-6.5137,-6.5168,-6.4407,-6.4731,-6.5003,-6.5099,-6.5542,-6.532,-6.4589,-6.4589,-6.4243,-6.3628,-6.432,-6.4205,-6.3628,-6.4089,-6.3435,-6.2089,-6.1858,-6.1396,-6.0781,-6.0781,-6.0781,-6.0781,0.0,0.0,0.0,0.0,0.0,0.0,0.0,0.0,0.0,0.0,0.0,0.0,0.0,0.0,0.0,0.0,0.0,0.0,0.0,0.0,0.0,0.0,0.0,-2.1827,-2.1853,-2.1974,-2.2147,-2.2309,-2.2419,-2.2535,-2.2615,-2.1967,-2.1485,-2.1127,-1.9952,-2.0011,0.0,0.0,0.0,0.0,-2.4182,0.0,0.0,0.0,0.0,0.0,-2.4823,-2.5231,0.0,-2.5586,-2.6319,-2.7038,0.0,0.0,0.0,0.0,-3.027,-3.1162,-3.0467,-3.044,-3.0398,-2.9617,-2.9152,-2.8826,-2.8621,-2.8821,-2.8848,-2.8327,-2.9002,-2.9539,-2.902,-2.9279,-2.9422,-2.9055,-3.0284,-3.1814,-3.3379,-4.1525,-4.8351,-5.1157,-5.7675,-6.1771,-6.152,-6.2291,-6.2805,-6.2805,-6.2805,-6.2904,-6.3168,-6.3937,-6.4481,-6.4696,-6.5485,-6.5635,-6.5105,-6.5359,-6.5255,-6.4872,-6.5167,-6.4859,-6.4012,-6.4012,-6.3743,-6.3358,-6.4205,-6.4128,-6.3358,-6.382,-6.3243,-6.205,-6.1666,-6.1204,-6.0781,-6.0781,-6.0781,-6.0781,0.0,0.0,0.0,0.0,0.0,0.0,0.0,0.0,0.0,0.0,0.0,0.0,0.0,0.0,0.0,0.0,0.0,0.0,0.0,0.0,0.0,0.0,0.0,-2.2141,-2.2248,-2.2364,-2.2508,-2.2676,-2.2799,-2.2876,-2.2876,-2.2898,-2.2165,-2.0714,-1.9791,-1.9756,0.0,0.0,-2.2502,-2.3115,-2.4157,0.0,0.0,0.0,0.0,0.0,0.0,0.0,0.0,-2.5177,-2.5779,-2.6742,-2.7066,0.0,0.0,0.0,0.0,0.0,-2.9585,-2.995,-3.0316,-2.9494,-2.8996,-2.8654,-2.8573,-2.8848,-2.8965,-2.8278,-2.9055,-2.9879,-2.9973,-3.0202,-3.0575,-3.1098,-3.3922,-3.7319,-4.1068,-4.7681,-5.2233,-5.2578,-5.8498,-6.2517,-6.256,-6.2708,-6.2805,-6.2805,-6.2805,-6.294,-6.3267,-6.3791,-6.4292,-6.4775,-6.5168,-6.5436,-6.5589,-6.568,-6.5243,-6.4397,-6.4397,-6.3935,-6.3128,-6.3128,-6.3051,-6.2974,-6.3858,-6.3705,-6.2935,-6.3205,-6.2743,-6.182,-6.1243,-6.0935,-6.0781,-6.0781,-6.0781,-6.0781,0.0,0.0,0.0,0.0,0.0,0.0,0.0,0.0,0.0,0.0,0.0,0.0,0.0,0.0,0.0,0.0,0.0,0.0,0.0,0.0,0.0,0.0,-2.2767,-2.2487,-2.2535,-2.2588,-2.2747,-2.2927,-2.2902,-2.3003,-2.3199,-2.2398,-2.1674,-2.1057,-2.1038,-2.0789,-2.0495,-2.2386,-2.2768,-2.2231,-2.3934,0.0,0.0,0.0,0.0,0.0,0.0,0.0,0.0,-2.5673,-2.5669,-2.5374,-2.5914,0.0,0.0,0.0,0.0,0.0,-2.9858,-2.9923,-2.9823,-2.9412,-2.8978,-2.8734,-2.9071,-2.8635,-2.8278,-2.8794,-2.9261,-3.0214,-3.2251,-3.3425,-3.5021,-3.7864,-4.0383,-4.2704,-4.4821,-5.0268,-5.3869,-5.3273,-5.9235,-6.2879,-6.1565,-6.2251,-6.2805,-6.2805,-6.2805,-6.2561,-6.1923,-6.2413,-6.2928,-6.3385,-6.3213,-6.3465,-6.4191,-6.4615,-6.4359,-6.3512,-6.3512,-6.3089,-6.2281,-6.2281,-6.1858,-6.1243,-6.2089,-6.1973,-6.1281,-6.2704,-6.2397,-6.105,-6.1666,-6.1435,-6.0781,-6.0781,-6.0781,-6.0781,0.0,0.0,0.0,0.0,0.0,0.0,0.0,0.0,0.0,0.0,0.0,0.0,0.0,0.0,0.0,0.0,0.0,0.0,0.0,0.0,0.0,-2.3989,-2.3684,-2.3276,-2.2834,-2.2876,-2.2977,-2.3102,-2.3102,-2.3175,-2.3271,-2.24,-2.1963,-2.1831,-2.1076,-2.0677,-2.0657,-2.202,-2.2396,-2.2219,0.0,0.0,0.0,0.0,0.0,0.0,0.0,0.0,0.0,0.0,-2.5754,-2.5881,-2.6399,0.0,0.0,0.0,0.0,0.0,-2.897,-2.9491,-3.0369,-3.1934,-3.0662,-2.9111,-2.9374,-2.9048,-2.8831,-2.9284,-2.9649,-3.0596,-3.299,-3.4856,-3.8186,-4.4759,-4.6987,-4.9142,-5.2756,-5.6329,-5.8432,-5.7935,-6.1092,-6.3023,-6.2188,-6.2475,-6.2805,-6.2805,-6.2805,-6.2438,-6.163,-6.2094,-6.2267,-6.2103,-6.2416,-6.2574,-6.2536,-6.3015,-6.2938,-6.2295,-6.2554,-6.2474,-6.2089,-6.1589,-6.1435,-6.1512,-6.1935,-6.1589,-6.0896,-6.2127,-6.1935,-6.0819,-6.1243,-6.1127,-6.0781,-6.0781,-6.0781,-6.0781,0.0,0.0,0.0,0.0,0.0,0.0,0.0,0.0,0.0,0.0,0.0,0.0,0.0,0.0,0.0,0.0,0.0,0.0,0.0,0.0,-2.338,-2.4506,-2.4392,-2.411,-2.3638,-2.3714,-2.3763,-2.3813,-2.3861,-2.3803,-2.3626,-2.3046,-2.2825,-2.2767,-2.1622,-2.1165,-2.1316,-2.2168,-2.2539,-2.2585,0.0,0.0,0.0,0.0,0.0,0.0,0.0,0.0,0.0,0.0,0.0,0.0,0.0,0.0,0.0,-2.6439,-2.7091,-2.762,-2.781,-2.879,-3.0375,-3.2901,-3.1698,-3.0356,-3.2303,-3.2127,-3.1842,-3.2757,-3.3073,-3.3795,-3.5972,-3.8683,-4.2926,-4.9994,-5.2489,-5.5145,-5.9699,-6.149,-6.2366,-6.2406,-6.2862,-6.3181,-6.2988,-6.2904,-6.2805,-6.2805,-6.2805,-6.2365,-6.1374,-6.1698,-6.1602,-6.0953,-6.1425,-6.1462,-6.1077,-6.1437,-6.1505,-6.1239,-6.1645,-6.1781,-6.1781,-6.1089,-6.1166,-6.1781,-6.1781,-6.1396,-6.0858,-6.1512,-6.1396,-6.0781,-6.0781,-6.0781,-6.0781,-6.0781,-6.0781,-6.0781,0.0,0.0,0.0,0.0,0.0,0.0,0.0,0.0,0.0,0.0,0.0,0.0,0.0,0.0,0.0,0.0,0.0,0.0,0.0,0.0,-2.3667,-2.5243,-2.4725,-2.4731,-2.549,-2.5567,-2.5593,-2.5593,-2.5704,-2.5337,-2.4611,-2.4587,-2.4271,-2.3723,-2.378,-2.3493,-2.299,-2.4062,-2.3998,-2.3316,-2.427,0.0,0.0,0.0,0.0,0.0,0.0,0.0,0.0,0.0,0.0,0.0,0.0,0.0,-2.5084,-2.5603,-2.5926,-2.6241,-2.6957,-2.7849,-2.8651,-2.9279,-3.0297,-3.3072,-4.0401,-3.9959,-3.8988,-4.2289,-4.2396,-4.2442,-4.413,-4.8245,-5.1499,-5.1777,-5.5728,-5.9696,-6.248,-6.2933,-6.3311,-6.4106,-6.3825,-6.3556,-6.3505,-6.3073,-6.2805,-6.2805,-6.2805,-6.2144,-6.0566,-6.054,-6.0379,-6.0095,-5.9393,-5.9358,-6.0068,-6.0183,-6.0453,-6.0834,-6.0896,-6.0896,-6.0896,-6.0819,-6.0819,-6.0896,-6.0896,-6.0858,-6.0781,-6.0858,-6.0858,-6.0781,-6.0781,-6.0781,-6.0781,-6.0781,-6.0781,-6.0781,0.0,0.0,0.0,0.0,0.0,0.0,0.0,0.0,0.0,0.0,0.0,0.0,0.0,0.0,0.0,0.0,0.0,0.0,0.0,0.0,-2.4408,-2.5596,-2.5409,-2.5913,-2.7299,-2.632,-2.5821,-2.5847,-2.5446,-2.5123,-2.48,-2.432,-2.4035,-2.3899,-2.3389,-2.318,-2.3219,-2.3486,-2.3529,-2.3529,-2.4297,-2.4596,0.0,0.0,0.0,0.0,0.0,0.0,0.0,0.0,-2.5094,-2.5045,-2.6084,-2.5855,-2.5304,-2.5958,-2.5894,-2.58,-2.6647,-2.9214,-3.2115,-3.3917,-3.493,-3.6335,-3.9436,-4.0826,-4.2142,-4.4596,-4.5296,-4.5966,-4.7548,-5.1008,-5.4004,-5.5252,-5.8274,-6.1091,-6.2861,-6.3087,-6.3088,-6.315,-6.2571,-6.216,-6.2308,-6.1739,-6.152,-6.2034,-6.1594,-6.0823,-5.9722,-5.9648,-5.9375,-5.8762,-5.8735,-5.8862,-5.9201,-5.9505,-5.976,-5.9916,-6.0508,-6.0781,-6.0781,-6.0781,-6.0781,-6.0781,-6.0781,-6.0781,-6.0781,-6.0781,-6.0781,-6.0781,-6.0781,-6.0781,-6.0781,-6.0781,-6.0781,-6.0781,0.0,0.0,0.0,0.0,0.0,0.0,0.0,0.0,0.0,0.0,0.0,0.0,0.0,0.0,0.0,0.0,0.0,0.0,-2.4433,-2.4448,-2.4903,-2.5811,-2.5847,-2.6647,-2.8291,-2.7235,-2.6673,-2.6698,-2.6249,-2.5816,-2.5311,-2.4757,-2.4302,-2.3939,-2.3293,-2.3159,-2.3523,-2.3346,-2.3488,-2.3858,-2.436,-2.4564,0.0,0.0,0.0,0.0,0.0,0.0,0.0,0.0,-2.5154,-2.5545,-2.5984,-2.5799,-2.5464,-2.5743,-2.5705,-2.5633,-2.6041,-2.939,-3.3279,-3.5178,-3.7489,-3.97,-4.1379,-4.2271,-4.3738,-4.7234,-4.8712,-4.9519,-4.9909,-5.2273,-5.4562,-5.5908,-5.8831,-6.123,-6.2133,-6.2473,-6.2384,-6.1849,-6.1285,-6.0995,-6.1202,-6.0713,-6.0639,-6.119,-6.0713,-6.0052,-5.9245,-5.9208,-5.8841,-5.8033,-5.8326,-5.8503,-5.8503,-5.8951,-5.9176,-5.9176,-5.9977,-6.0456,-6.0597,-6.0734,-6.0781,-6.0781,-6.0781,-6.0781,-6.0781,-6.0781,-6.0781,-6.0781,-6.0781,-6.0781,-6.0781,-6.0781,-6.0781,-6.0781,0.0,0.0,0.0,0.0,0.0,0.0,0.0,0.0,0.0,0.0,0.0,0.0,0.0,0.0,0.0,0.0,0.0,0.0,-2.4704,-2.4633,-2.5062,-2.5971,-2.6007,-2.6749,-2.8344,-2.8484,-2.8484,-2.8406,-2.8484,-2.773,-2.6222,-2.6268,-2.5441,-2.3878,-2.3816,-2.3858,-2.3996,-2.4019,-2.4116,-2.4303,-2.4513,-2.4564,-2.453,0.0,0.0,0.0,0.0,0.0,0.0,0.0,-2.4326,-2.5146,-2.4802,-2.5078,-2.5368,-2.4726,-2.5072,-2.5581,-2.5084,-2.7888,-3.1067,-3.1411,-3.6748,-4.3175,-4.7995,-4.5431,-4.4061,-5.1091,-5.3574,-5.3815,-5.1573,-5.2668,-5.3669,-5.311,-5.717,-6.0382,-6.0382,-6.108,-6.1263,-6.0493,-6.0382,-6.0382,-6.0382,-6.0382,-6.0382,-6.0382,-6.0382,-6.0052,-5.9245,-5.9208,-5.8841,-5.8033,-5.7997,-5.7997,-5.7997,-5.8461,-5.8676,-5.8713,-5.9139,-5.9625,-6.0103,-6.0597,-6.0781,-6.0781,-6.0781,-6.0781,-6.0781,-6.0781,-6.0781,-6.0781,-6.0781,-6.0781,-6.0781,-6.0781,-6.0781,-6.0781,0.0,0.0,0.0,0.0,0.0,0.0,0.0,0.0,0.0,0.0,0.0,0.0,0.0,0.0,0.0,0.0,0.0,0.0,-2.6304,-2.6249,-2.6407,-2.6683,-2.6835,-2.7439,-2.8536,-2.8191,-2.8239,-2.8687,-2.8226,-2.747,-2.6469,-2.591,-2.5104,-2.4112,-2.3837,-2.3858,-2.4056,-2.3878,-2.3999,-2.4303,-2.4321,-2.4355,-2.4408,0.0,0.0,0.0,0.0,0.0,0.0,0.0,0.0,0.0,-2.5341,-2.5577,-2.5654,-2.5862,-2.6716,-2.7632,-2.7702,-3.1917,-3.6468,-3.7492,-4.08,-4.4465,-4.7043,-4.7243,-4.7404,-4.9027,-5.4378,-5.7148,-5.1973,-5.4388,-5.6766,-5.547,-5.7647,-5.9575,-5.9575,-5.9758,-5.9832,-5.9612,-5.9061,-5.8951,-5.9501,-5.9061,-5.8951,-5.9538,-5.9024,-5.8621,-5.8364,-5.8364,-5.8253,-5.7997,-5.7997,-5.7997,-5.7997,-5.8142,-5.8194,-5.8194,-5.8713,-5.9139,-5.9625,-6.0103,-6.0311,-6.0338,-6.0647,-6.0781,-6.0781,-6.0781,-6.0781,-6.0781,-6.0781,-6.0781,-6.0781,-6.0781,-6.0781,-6.0781,0.0,0.0,0.0,0.0,0.0,0.0,0.0,0.0,0.0,0.0,-2.7341,-2.7465,0.0,0.0,0.0,0.0,0.0,0.0,-2.697,-2.7014,-2.7056,-2.7107,-2.7283,-2.7828,-2.8773,-2.8498,-2.8419,-2.8462,-2.7691,-2.6906,-2.6119,-2.5665,-2.4983,-2.4132,-2.3858,-2.3837,-2.3976,-2.3816,-2.3939,-2.4229,-2.4173,-2.4211,-2.4229,0.0,0.0,0.0,0.0,0.0,0.0,0.0,0.0,0.0,-2.5454,-2.5607,-2.5702,-2.6468,-2.7796,-2.9136,-2.9567,-3.4436,-3.9711,-4.1055,-4.4338,-4.7387,-4.8084,-4.9342,-5.0454,-5.0664,-5.5201,-5.8194,-5.5198,-5.6195,-5.7302,-5.6964,-5.8179,-5.9098,-5.8767,-5.9024,-5.9098,-5.8767,-5.829,-5.818,-5.8694,-5.829,-5.8217,-5.8694,-5.8253,-5.7997,-5.7997,-5.7997,-5.7997,-5.7997,-5.7997,-5.785,-5.7519,-5.7519,-5.7373,-5.7042,-5.7654,-5.7959,-5.7902,-5.9223,-5.9823,-5.9855,-6.0132,-6.0338,-6.0508,-6.0508,-6.0622,-6.0781,-6.0781,-6.0781,-6.0781,-6.0781,-6.0781,-6.0781,0.0,0.0,-2.7804,-2.6866,0.0,0.0,0.0,0.0,0.0,0.0,-2.7587,-2.7677,0.0,0.0,0.0,-2.8081,-2.8109,-2.7851,-2.7183,-2.7199,-2.7302,-2.7416,-2.7562,-2.8114,-2.9112,-2.9104,-2.8762,-2.8005,-2.7101,-2.6229,-2.5444,-2.5502,-2.5019,-2.4105,-2.3955,-2.3894,-2.3904,-2.3831,-2.3919,-2.4097,-2.4097,-2.4097,-2.4078,-2.3919,0.0,0.0,0.0,0.0,0.0,0.0,0.0,0.0,-2.5295,-2.535,-2.5641,-2.6578,-2.839,-3.0246,-3.1113,-3.5984,-4.1225,-4.3142,-4.772,-5.1525,-5.0946,-5.1936,-5.3208,-5.3831,-5.566,-5.7666,-5.9296,-5.7584,-5.6381,-5.7776,-5.8621,-5.8841,-5.8107,-5.8621,-5.8804,-5.7997,-5.796,-5.7923,-5.7776,-5.7923,-5.796,-5.7886,-5.7886,-5.7886,-5.7886,-5.7813,-5.7776,-5.7776,-5.7776,-5.7446,-5.6712,-5.6712,-5.6308,-5.5611,-5.6418,-5.6418,-5.5802,-5.824,-5.9354,-5.9389,-5.9389,-5.9625,-6.0044,-6.0044,-6.0311,-6.0734,-6.0734,-6.0757,-6.0781,-6.0781,-6.0781,-6.0781,0.0,0.0,-2.836,-2.7969,0.0,0.0,0.0,0.0,0.0,0.0,0.0,0.0,0.0,0.0,0.0,-2.8116,-2.8191,-2.8201,-2.8102,-2.8206,-2.8334,-2.8408,-2.8649,-2.8927,-2.9344,-2.8717,-2.8349,-2.8163,-2.7937,-2.7101,-2.5634,-2.5707,-2.543,-2.4913,-2.4215,-2.4205,-2.4715,-2.4085,-2.3919,-2.4097,-2.4019,-2.4036,-2.3996,-2.3747,-2.3616,0.0,0.0,0.0,0.0,0.0,0.0,0.0,-2.5402,-2.553,-2.5866,-2.6614,-2.8513,-3.1088,-3.4225,-3.8245,-4.276,-4.7867,-5.2344,-5.5735,-5.6181,-5.6539,-5.504,-4.8657,-5.3889,-5.8443,-5.4495,-5.6317,-5.8327,-5.8033,-5.8143,-5.8217,-5.8033,-5.8143,-5.796,-5.7152,-5.7629,-5.7483,-5.6235,-5.7262,-5.774,-5.7116,-5.7079,-5.7079,-5.7079,-5.6455,-5.6124,-5.6124,-5.6124,-5.6014,-5.5868,-5.5868,-5.5757,-5.5611,-5.6418,-5.6712,-5.6565,-5.8145,-5.9028,-5.9389,-5.9389,-5.9458,-5.9526,-5.9526,-5.9823,-6.0255,-6.0255,-6.0482,-6.0781,-6.0781,-6.0781,-6.0781,0.0,0.0,0.0,0.0,0.0,0.0,0.0,0.0,0.0,0.0,0.0,0.0,0.0,-2.8191,0.0,0.0,-2.8406,-2.8484,-2.8587,-2.8687,-2.881,-2.8952,-2.9156,-2.9307,-2.9431,-2.91,-2.8727,-2.8316,-2.7904,-2.7196,-2.6265,-2.5875,-2.5523,-2.525,-2.4807,-2.4624,-2.4664,-2.4222,-2.4135,-2.4284,-2.4114,-2.4016,-2.3976,-2.3674,-2.3585,-2.3562,-2.3199,0.0,0.0,0.0,0.0,0.0,0.0,0.0,-2.5946,-2.6817,-2.879,-3.1446,-3.524,-3.9612,-4.4831,-5.1912,-5.5537,-5.7483,-5.7886,-5.7997,-5.6813,-5.2565,-5.5733,-5.849,-5.5931,-5.7178,-5.851,-5.807,-5.7997,-5.7997,-5.7997,-5.7666,-5.7262,-5.6859,-5.6822,-5.6772,-5.6515,-5.7074,-5.7413,-5.7441,-5.7196,-5.7006,-5.6883,-5.6437,-5.6214,-5.6214,-5.6214,-5.6067,-5.5657,-5.5657,-5.5471,-5.5099,-5.5879,-5.6474,-5.6883,-5.7905,-5.8058,-5.7598,-5.797,-5.8052,-5.794,-5.8352,-5.8627,-5.8959,-5.9798,-6.0135,-6.0242,-6.0666,-6.0781,-6.0781,0.0,0.0,0.0,0.0,0.0,0.0,0.0,0.0,0.0,0.0,0.0,0.0,0.0,-2.8432,-2.8484,0.0,0.0,0.0,-2.904,-2.9282,-2.9398,-2.9465,-2.9576,-2.9603,-2.955,-2.9664,-2.9362,-2.8666,-2.7821,-2.7416,-2.7286,-2.6079,-2.5539,-2.5568,-2.5507,-2.513,-2.4596,-2.4506,-2.4486,-2.4513,-2.4229,-2.4056,-2.3976,-2.3674,-2.3562,-2.3539,-2.3271,-2.3425,-2.3741,-2.3616,0.0,0.0,0.0,0.0,-2.5943,-2.7055,-2.884,-3.1256,-3.5052,-4.0533,-4.7019,-5.4546,-5.7116,-5.7813,-5.796,-5.8051,-5.8201,-5.8446,-5.8215,-5.8226,-5.898,-5.8373,-5.785,-5.796,-5.7776,-5.7629,-5.7776,-5.7116,-5.6573,-5.6515,-5.5999,-5.6034,-5.6891,-5.6867,-5.706,-5.7627,-5.7304,-5.7005,-5.6719,-5.653,-5.6493,-5.6493,-5.6493,-5.6187,-5.5503,-5.5503,-5.5163,-5.4522,-5.5314,-5.6036,-5.6719,-5.7472,-5.7007,-5.5742,-5.6353,-5.6467,-5.6251,-5.696,-5.7334,-5.7616,-5.9083,-5.9599,-5.9588,-6.0165,-6.055,-6.0781,0.0,0.0,0.0,0.0,0.0,0.0,0.0,0.0,0.0,0.0,-2.838,-2.8432,-2.8562,-2.8562,-2.8637,-2.8749,-2.8868,-2.9269,-2.9953,0.0,0.0,-3.0553,-3.0617,-3.0358,-2.9681,-2.9808,-2.9822,-2.9708,-2.8839,-2.8593,-2.894,-2.6655,-2.5834,-2.6286,-2.6279,-2.5947,-2.5355,-2.526,-2.4986,-2.4564,-2.4303,-2.4114,-2.3976,-2.3825,-2.3629,-2.3448,-2.3517,-2.4037,-2.4608,-2.3845,-2.406,0.0,0.0,0.0,-2.5968,-2.7018,-2.8143,-2.9929,-3.4008,-4.1272,-4.8852,-5.3555,-5.5868,-5.7152,-5.785,-5.8326,-5.8409,-5.7742,-5.7808,-5.8179,-5.8656,-5.7802,-5.7189,-5.7886,-5.6822,-5.6161,-5.6859,-5.6271,-5.5601,-5.5278,-5.5726,-5.5809,-5.4995,-5.6127,-5.6654,-5.6074,-5.5965,-5.5894,-5.5847,-5.5201,-5.4824,-5.4824,-5.4824,-5.4786,-5.4673,-5.4673,-5.4597,-5.4522,-5.5314,-5.5734,-5.5885,-5.6692,-5.6706,-5.6134,-5.5865,-5.5728,-5.5748,-5.6206,-5.663,-5.7068,-5.771,-5.8604,-5.9435,-5.8858,-5.955,-6.0704,0.0,0.0,0.0,0.0,0.0,0.0,0.0,0.0,0.0,0.0,0.0,-2.8612,-2.8868,-2.8797,-2.8858,-2.9067,-2.954,-3.0243,-3.1191,-3.1688,-3.1645,-3.0902,-3.0979,-3.0638,-2.9822,-2.9943,-2.9991,-2.9991,-2.9156,-2.8974,-2.9456,-2.8219,-2.7701,-2.7716,-2.7705,-2.7449,-2.7007,-2.6811,-2.6209,-2.5373,-2.5504,-2.5077,-2.4413,-2.4981,-2.4911,-2.4599,-2.5195,-2.5457,-2.5494,-2.498,-2.4766,-2.4669,-2.4262,0.0,0.0,0.0,-2.7363,-2.9518,-3.428,-4.0463,-4.6544,-5.0652,-5.3549,-5.5794,-5.7042,-5.7666,-5.7933,-5.7791,-5.7566,-5.7564,-5.8241,-5.7528,-5.7113,-5.7935,-5.7115,-5.6442,-5.6815,-5.6182,-5.5585,-5.5428,-5.5313,-5.5333,-5.5511,-5.5971,-5.6267,-5.6431,-5.6188,-5.5931,-5.5733,-5.5351,-5.5186,-5.5186,-5.5186,-5.5186,-5.5186,-5.5186,-5.5186,-5.5186,-5.5542,-5.5694,-5.5694,-5.5817,-5.5675,-5.524,-5.551,-5.5398,-5.5063,-5.5656,-5.589,-5.5996,-5.7159,-5.8106,-5.8858,-5.8934,-5.9742,-6.0742,0.0,0.0,0.0,0.0,0.0,0.0,0.0,0.0,0.0,0.0,0.0,-2.8773,-2.9082,0.0,0.0,0.0,-2.9906,-3.0719,-3.1727,-3.2217,-3.2127,-3.1374,-3.1634,-3.1324,-3.0311,-3.0388,-3.0357,-3.0142,-2.9479,-2.9308,-2.9662,-2.9514,-2.9365,-2.9208,-2.9296,-2.8925,-2.8184,-2.8144,-2.7454,-2.6387,-2.6802,-2.6284,-2.5373,-2.6585,-2.6528,-2.5949,-2.6958,-2.6918,-2.6417,-2.615,-2.5693,-2.5098,-2.4441,-2.504,0.0,0.0,0.0,-2.9296,-3.3923,-3.8193,-4.2399,-4.6836,-5.0285,-5.3072,-5.539,-5.6644,-5.7305,-5.7476,-5.737,-5.7377,-5.7756,-5.7149,-5.6866,-5.7657,-5.6979,-5.6342,-5.6568,-5.5885,-5.5422,-5.5517,-5.5019,-5.5084,-5.6129,-5.5912,-5.5968,-5.6643,-5.6357,-5.5949,-5.5434,-5.5588,-5.5588,-5.5395,-5.5588,-5.5703,-5.5703,-5.5703,-5.5703,-5.5703,-5.5703,-5.5703,-5.5703,-5.5399,-5.5107,-5.4828,-5.5221,-5.505,-5.456,-5.5259,-5.5388,-5.5222,-5.6599,-5.7608,-5.8357,-5.8742,-5.9704,-6.0781,0.0,0.0,0.0,0.0,0.0,0.0,0.0,0.0,0.0,0.0,0.0,-2.8905,-2.9259,-2.928,-2.9365,-2.9491,-2.9587,-3.002,-3.0885,-3.2562,-3.3167,-3.2351,-3.3177,0.0,-3.1355,-3.1398,-3.1057,-3.0279,-3.0163,-3.0052,-2.9867,-2.9801,-2.9983,-3.0448,-3.0796,-2.9916,-2.824,-2.8799,-2.837,-2.7365,-2.7811,-2.7642,-2.7204,-2.8552,-2.8202,-2.7148,-2.8287,-2.813,-2.7318,-2.7162,-2.689,-2.6533,-2.6079,-2.6376,-2.6863,0.0,0.0,0.0,-3.1926,-3.4,-3.6675,-4.2331,-4.5553,-4.8449,-5.2449,-5.5249,-5.6819,-5.5993,-5.709,-5.8004,-5.7197,-5.6359,-5.6036,-5.6832,-5.5659,-5.4899,-5.5659,-5.5088,-5.4716,-5.5064,-5.508,-5.525,-5.5698,-5.5698,-5.572,-5.5742,-5.5758,-5.5374,-5.4587,-5.528,-5.5357,-5.4587,-5.528,-5.5703,-5.5703,-5.5703,-5.5703,-5.5703,-5.5703,-5.5703,-5.5703,-5.5682,-5.5682,-5.5599,-5.4895,-5.4522,-5.4516,-5.4981,-5.5119,-5.5134,-5.5608,-5.6797,-5.8204,-5.7396,-5.8665,-6.0666,0.0,0.0,0.0,0.0,0.0,0.0,0.0,0.0,0.0,0.0,0.0,0.0,0.0,-2.9528,-2.9548,-2.9608,-3.0678,-3.1732,-3.2689,-3.3901,-3.422,-3.3462,-3.3761,0.0,0.0,-3.1558,-3.1162,-3.0292,-3.0316,-3.0254,-3.0104,-3.044,-3.0726,-3.0885,-3.1251,-3.1108,-3.0628,-3.1182,-3.0432,-2.8995,-2.957,-2.9172,-2.8388,-2.9225,-2.9334,-2.9233,-3.1196,-3.1776,-3.1789,-3.2343,-3.2264,-3.1554,-2.9212,-2.8504,-2.8443,-2.787,-2.7942,-2.8506,-2.9689,-3.1601,-3.3988,-3.715,-4.0174,-4.3027,-4.548,-4.9247,-5.216,-5.173,-5.432,-5.6549,-5.6203,-5.5907,-5.5963,-5.6843,-5.6002,-5.5377,-5.5658,-5.5454,-5.5312,-5.5446,-5.5508,-5.5554,-5.5703,-5.5241,-5.5126,-5.5665,-5.4703,-5.4203,-5.4472,-5.4241,-5.3972,-5.3664,-5.3933,-5.4357,-5.4934,-5.4357,-5.4626,-5.5703,-5.5164,-5.5203,-5.5703,-5.5703,-5.5703,-5.5703,-5.5399,-5.5262,-5.5262,-5.5423,-5.5815,-5.6337,-5.6467,-5.7242,-5.8319,-5.8511,-5.9165,-6.0012,0.0,0.0,0.0,0.0,0.0,-2.927,-2.9233,0.0,0.0,0.0,0.0,0.0,0.0,0.0,-2.9719,-2.979,-3.0897,-3.1948,-3.2918,-3.3827,-3.4235,-3.4036,-3.4304,0.0,0.0,-3.2481,-3.2045,-3.121,-3.0975,-3.0825,-3.0727,-3.0811,-3.0822,-3.0804,-3.1299,-3.1556,-3.1652,-3.1942,-3.1254,-3.0002,-3.0847,-3.0598,-3.0007,-3.2751,-3.3185,-3.2788,-3.5832,-3.6527,-3.5993,-3.6017,-3.5684,-3.4759,-3.1674,-2.9998,-2.9017,-2.8317,-2.8128,-2.8164,-2.8344,-2.9682,-3.1483,-3.3465,-3.5848,-3.8277,-4.0467,-4.4766,-4.8455,-4.8957,-5.2398,-5.5395,-5.5665,-5.5703,-5.5895,-5.6472,-5.6088,-5.5703,-5.5703,-5.5472,-5.528,-5.528,-5.5049,-5.4857,-5.4857,-5.4395,-5.428,-5.4818,-5.3818,-5.3318,-5.3626,-5.3356,-5.3203,-5.3203,-5.3203,-5.3472,-5.4049,-5.351,-5.3895,-5.528,-5.4741,-5.4934,-5.5703,-5.5703,-5.5703,-5.5703,-5.5703,-5.5703,-5.5703,-5.5703,-5.6049,-5.6588,-5.6896,-5.7511,-5.8396,-5.9204,-5.9704,-6.0012,0.0,-2.9943,-2.9737,-2.9645,-2.955,-2.9451,-2.9531,-2.9414,-2.9394,-2.9569,0.0,0.0,0.0,0.0,0.0,-3.0045,-3.0122,-3.0538,-3.1422,-3.2374,-3.3259,-3.412,-3.4952,0.0,-3.4212,-3.4212,-3.3812,-3.2987,-3.2188,-3.1769,-3.1672,-3.0814,-3.033,-3.024,-3.1026,-3.1257,-3.1092,-3.0976,-3.0701,-3.0424,-3.1787,-3.2032,-3.2264,-3.9114,-3.9862,-3.7807,-4.2063,-4.1989,-3.9643,-3.7927,-3.6857,-3.5834,-3.335,-3.0691,-2.851,-2.836,-2.8255,-2.8156,0.0,0.0,0.0,-3.1418,-3.2726,-3.4353,-3.7831,-4.2202,-4.6036,-4.7867,-5.1491,-5.4587,-5.5434,-5.5588,-5.5626,-5.5626,-5.5665,-5.5665,-5.5626,-5.4934,-5.4472,-5.4472,-5.3703,-5.3203,-5.3203,-5.3164,-5.3164,-5.3203,-5.3164,-5.2779,-5.1933,-5.2664,-5.3087,-5.3126,-5.3126,-5.3126,-5.3164,-5.3126,-5.3587,-5.4511,-5.4472,-5.4895,-5.5703,-5.5703,-5.5703,-5.5703,-5.5703,-5.5703,-5.5703,-5.5703,-5.5742,-5.5857,-5.6665,-5.755,-5.8434,-5.9204,-6.005,-6.0781,-3.0956,-3.0996,-3.0874,-3.0781,-3.0729,-3.0505,-2.9863,-2.977,-2.9753,0.0,0.0,0.0,-2.9959,-3.0022,-3.0312,-3.0944,-3.1628,-3.244,-3.3377,-3.4263,-3.4879,-3.5188,-3.5419,-3.5162,-3.4287,-3.4272,-3.387,-3.3059,-3.222,-3.1774,-3.173,-3.0821,-3.0364,-3.034,-3.0621,-3.071,-3.0713,-3.1559,-3.2181,-3.2765,-3.4843,-3.6287,-3.7491,-4.0666,-4.1665,-4.1649,-4.3875,-4.4605,-4.4391,-4.3681,-4.3085,-4.157,-3.5651,-3.1875,-2.9503,-2.8746,-2.8396,-2.8273,-2.8156,0.0,0.0,0.0,0.0,0.0,-3.3857,-3.6657,-3.9853,-4.4182,-4.7537,-5.0392,-5.2528,-5.3472,-5.3895,-5.3895,-5.4434,-5.4626,-5.3972,-5.3703,-5.3549,-5.3549,-5.3356,-5.3203,-5.3203,-5.2626,-5.251,-5.3164,-5.2087,-5.1279,-5.1048,-5.0664,-5.0741,-5.1356,-5.1395,-5.1664,-5.2241,-5.1664,-5.2433,-5.4472,-5.3857,-5.4318,-5.5703,-5.5703,-5.5703,-5.5703,-5.5703,-5.5703,-5.5703,-5.5703,-5.6434,-5.755,-5.7126,-5.7896,-5.9204,-5.9435,-5.9665,-5.9935,-3.0994,-3.0983,-3.0858,-3.0807,-3.076,-3.0576,-3.0067,-3.0273,-3.0516,0.0,0.0,0.0,-3.0662,-3.0682,-3.0929,-3.1468,-3.2045,-3.2852,-3.4122,-3.47,-3.5162,-3.5572,-3.5611,-3.5353,-3.4863,-3.4847,-3.4615,-3.4152,-3.2926,-3.2336,-3.2254,-3.1009,-3.043,-3.0458,-3.0479,-3.052,-3.0579,-3.1264,-3.2727,-3.4643,-3.54,-3.6993,-3.9339,-4.3362,-4.4445,-4.4407,-4.8122,-4.9566,-4.9454,-4.7941,-4.6101,-4.3378,-3.7103,-3.3743,-3.1696,-2.9844,-2.9083,-2.8631,-2.7807,-2.7745,-2.7779,-2.7547,0.0,0.0,-3.0479,-3.2895,-3.613,-4.0726,-4.3311,-4.563,-4.8683,-4.9029,-4.9259,-5.0355,-5.0952,-5.1721,-5.301,-5.2895,-5.2664,-5.2664,-5.2356,-5.2164,-5.2164,-5.1702,-5.1625,-5.2125,-5.0933,-5.001,-4.9625,-4.9125,-4.9086,-4.9586,-4.9971,-5.0394,-5.0856,-5.0741,-5.1625,-5.3395,-5.2895,-5.3549,-5.5203,-5.5203,-5.5395,-5.5703,-5.5703,-5.5703,-5.5742,-5.6088,-5.6819,-5.7742,-5.7588,-5.8357,-5.955,-5.9896,-6.005,-6.0127,0.0,-3.0494,-3.0368,-3.0379,-3.0386,-3.038,-3.0266,-3.0905,-3.1455,0.0,-3.224,-3.2474,-3.1749,-3.1725,-3.184,-3.1968,-3.1968,-3.266,-3.425,-3.4353,-3.4738,-3.5546,-3.5584,-3.5596,-3.5631,-3.5631,-3.5631,-3.5581,-3.4019,-3.3186,-3.3103,-3.1427,-3.0655,-3.0644,-3.0559,-3.0559,-3.0595,-3.054,-3.2724,-3.6178,-3.5283,-3.6814,-4.036,-4.7127,-4.8333,-4.7194,-5.3387,-5.5133,-5.4032,-5.0772,-4.7132,-4.313,-3.8411,-3.6082,-3.4477,-3.1556,-3.017,-2.9179,-2.7371,-2.7133,-2.7188,-2.6225,-2.6872,0.0,-2.8371,-3.0744,-3.3936,-3.7775,-3.9204,-4.0766,-4.4135,-4.3598,-4.3349,-4.5688,-4.632,-4.7972,-5.2202,-5.2125,-5.1625,-5.151,-5.0894,-5.0471,-5.0471,-5.0433,-5.0433,-5.0433,-4.9625,-4.8817,-4.8125,-4.8009,-4.8009,-4.8086,-4.8856,-4.9317,-4.9394,-5.0164,-5.101,-5.1895,-5.1895,-5.2779,-5.4357,-5.4357,-5.4741,-5.5434,-5.5511,-5.5549,-5.5626,-5.6511,-5.6973,-5.7203,-5.8011,-5.8858,-5.9742,-6.0396,-6.0704,-6.0781,-3.1367,-3.1426,-3.1379,-3.1354,-3.1864,-3.2067,-3.1418,-3.1429,-3.1826,-3.2506,-3.2863,-3.2937,-3.2736,-3.2721,-3.2991,-3.3672,-3.3724,-3.4148,-3.5251,-3.5265,-3.5367,-3.557,-3.562,-3.5631,-3.5693,-3.5693,-3.5643,-3.5581,-3.4565,-3.4041,-3.399,-3.2293,-3.1504,-3.1506,-3.0857,-3.0574,-3.0613,-3.053,-3.3121,-3.7517,-4.0178,-4.4125,-4.8827,-5.2806,-5.3976,-5.3713,-5.5104,-5.55,-5.481,-5.1193,-4.8255,-4.5469,-4.1863,-3.8877,-3.6279,-3.3969,-3.1715,-2.9612,-2.79,-2.7464,-2.7341,-2.6651,-2.7163,0.0,-3.0903,-3.0769,-3.1634,-3.6749,-3.6862,-3.69,-3.968,-4.0482,-4.0883,-4.1399,-4.3254,-4.5918,-4.9606,-5.0067,-4.9798,-4.9067,-4.8971,-4.8933,-4.8933,-4.8837,-4.876,-4.876,-4.7932,-4.7586,-4.8086,-4.7509,-4.7432,-4.8086,-4.8279,-4.8702,-4.9394,-4.9586,-5.0394,-5.1895,-5.1895,-5.2472,-5.3433,-5.3433,-5.3549,-5.3741,-5.4434,-5.4741,-5.478,-5.5626,-5.678,-5.805,-5.8242,-5.9204,-6.0473,-5.9935,-6.0204,-6.0781,-3.1081,-3.1128,-3.1097,-3.1003,0.0,0.0,0.0,-3.2352,-3.3057,-3.3554,-3.4036,-3.4174,-3.3693,-3.3655,-3.3786,-3.4173,-3.474,-3.5193,-3.5416,-3.6074,-3.6181,-3.5573,-3.5596,-3.562,-3.5659,-3.5643,-3.5631,-3.5596,-3.4334,-3.3677,-3.3604,-3.195,-3.1178,-3.1185,-3.1215,-3.1698,-3.2615,-3.3595,-3.6944,-4.1629,-4.1477,-4.4149,-4.8736,-5.3003,-5.4317,-5.4207,-5.6095,-5.6712,-5.5973,-5.2155,-4.969,-4.7599,-4.4586,-4.0602,-3.6911,-3.6414,-3.3408,-2.9863,-2.8307,-2.7569,-2.7142,-2.6814,-2.7118,0.0,0.0,-2.9626,-3.0527,-3.3798,-3.3384,-3.3121,-3.5373,-3.5356,-3.5623,-3.7356,-3.8782,-4.0861,-4.4364,-4.7223,-4.8813,-4.8445,-4.8459,-4.8484,-4.8484,-4.8459,-4.823,-4.7778,-4.726,-4.6932,-4.6932,-4.6509,-4.6432,-4.6855,-4.7278,-4.7702,-4.8163,-4.8971,-4.9817,-5.0664,-5.1087,-5.1741,-5.2549,-5.2549,-5.3049,-5.3857,-5.4318,-5.4741,-5.5164,-5.6011,-5.7126,-5.8319,-5.8319,-5.9319,-6.0742,-6.0319,-6.0435,-6.0781,-3.0621,-3.0557,-3.052,-3.0462,0.0,0.0,0.0,-3.286,-3.3797,-3.4019,-3.4825,-3.5461,-3.5637,-3.5393,-3.5355,-3.5748,-3.6517,-3.673,-3.6265,-3.6951,-3.7045,-3.6181,-3.5779,-3.5608,-3.5596,-3.562,-3.562,-3.5611,-3.424,-3.3545,-3.3473,-3.1835,-3.1194,-3.136,-3.1698,-3.3064,-3.5183,-3.6811,-4.0414,-4.4799,-4.2461,-4.3702,-4.747,-5.2345,-5.3635,-5.3267,-5.6772,-5.7882,-5.7188,-5.3818,-5.1963,-5.0556,-4.7171,-4.2481,-3.8196,-3.8109,-3.4438,-3.0113,-2.8689,-2.7792,-2.7288,-2.7326,-2.7434,-2.7549,0.0,0.0,0.0,-3.0921,-3.0456,-3.0371,-3.1819,-3.088,-3.0848,-3.365,-3.4573,-3.59,-3.8703,-4.3233,-4.6475,-4.6918,-4.696,-4.7095,-4.7517,-4.7855,-4.7738,-4.6992,-4.686,-4.648,-4.5834,-4.5719,-4.5624,-4.5624,-4.6317,-4.6778,-4.6894,-4.8394,-4.924,-4.9394,-5.0279,-5.1048,-5.1664,-5.1664,-5.251,-5.401,-5.4164,-5.4703,-5.5549,-5.6395,-5.7242,-5.8088,-5.8242,-5.9319,-6.0781,-6.0589,-6.0666,-6.0781,-3.069,-3.063,-3.0607,-3.0676,0.0,0.0,0.0,-3.1932,-3.2338,-3.3142,-3.4041,-3.6129,-4.0074,-3.9265,-3.9287,-4.138,-4.0805,-4.0116,-3.9604,-3.8252,-3.7794,-3.8397,-3.6555,-3.5534,-3.5615,-3.5665,-3.567,-3.5611,-3.5415,-3.5322,-3.5267,-3.3615,-3.3268,-3.3999,-3.2617,-3.3953,-3.7271,-3.7485,-3.9452,-4.2737,-4.6284,-4.9328,-5.2156,-5.5244,-5.5697,-5.4984,-5.7184,-5.8252,-5.8306,-5.6594,-5.6328,-5.5673,-5.0025,-4.5977,-4.2336,-3.7601,-3.3695,-3.0544,-2.8995,-2.8433,-2.8495,-2.912,-2.8936,-2.8935,-3.0182,0.0,-3.0022,-3.0195,0.0,-3.0129,-3.025,0.0,0.0,-3.0452,-3.2488,-3.4208,-3.4645,-3.725,-3.9653,-4.1209,-4.1396,-4.2086,-4.3883,-4.5476,-4.6261,-4.6047,-4.6027,-4.5995,-4.589,-4.5873,-4.5834,-4.5796,-4.5873,-4.624,-4.6894,-4.7817,-4.8625,-4.9394,-5.0279,-5.0741,-5.0818,-5.0818,-5.1318,-5.2241,-5.301,-5.3857,-5.4703,-5.5511,-5.6357,-5.7203,-5.8011,-5.9319,-6.0704,-5.9935,-6.0127,-6.0781,-3.0703,-3.0691,-3.0724,-3.069,0.0,0.0,-3.1911,-3.2322,-3.2926,-3.3817,-3.4235,-3.6909,-4.3385,-4.1036,-4.136,-4.724,-4.5068,-4.3512,-4.3868,-4.192,-4.1529,-4.3303,-3.9273,-3.756,-3.8772,-3.723,-3.6134,-3.5608,-3.5113,-3.4902,-3.4884,-3.3722,-3.3386,-3.3813,-3.4311,-3.6227,-3.9303,-4.2153,-4.4233,-4.5975,-4.9583,-5.097,-5.1281,-5.5254,-5.6953,-5.7258,-5.8132,-5.8874,-5.9223,-5.71,-5.6186,-5.557,-5.3966,-4.883,-4.3388,-4.3454,-3.925,-3.4791,-3.5723,-3.5951,-3.5666,-3.4584,-3.4197,-3.3363,-3.0414,-2.9973,-3.0121,-2.966,0.0,0.0,0.0,0.0,0.0,0.0,-3.1049,-3.2154,-3.3104,-3.4136,-3.6058,-3.9468,-3.9813,-4.0766,-4.3208,-4.3206,-4.344,-4.4501,-4.4482,-4.4459,-4.4523,-4.5402,-4.5905,-4.5866,-4.5851,-4.5988,-4.624,-4.7566,-4.8374,-4.8663,-5.0048,-5.0702,-5.0702,-5.0702,-5.1395,-5.2664,-5.3049,-5.3972,-5.5203,-5.5549,-5.6203,-5.7049,-5.7396,-5.855,-6.005,-6.0204,-6.0473,-6.0781,-3.0813,-3.0798,-3.0789,-3.0748,-3.1259,-3.1654,-3.1631,-3.2524,-3.3632,-3.4894,-3.5201,-3.8708,-4.7567,-4.5076,-4.5949,-5.3828,-5.1228,-4.8964,-4.8576,-4.5761,-4.4881,-4.6539,-4.1905,-3.9959,-4.1385,-3.9243,-3.7616,-3.6563,-3.5366,-3.4768,-3.4778,-3.3946,-3.375,-3.4082,-3.5588,-3.8383,-4.212,-4.58,-4.8514,-5.0553,-5.2794,-5.3005,-5.2265,-5.5061,-5.7141,-5.8575,-5.8799,-5.9575,-6.0179,-5.8311,-5.7378,-5.6963,-5.6746,-5.1818,-4.6397,-4.7886,-4.4124,-3.9941,-4.1892,-4.1892,-4.1147,-4.0273,-3.8498,-3.6034,-3.2481,-3.1061,-3.0327,-2.9713,-2.9999,0.0,0.0,0.0,-3.0328,-3.0228,0.0,-3.0739,-3.1903,-3.2178,-3.3777,-3.7773,-3.8671,-3.9692,-4.1668,-4.124,-4.1365,-4.2741,-4.2756,-4.2924,-4.349,-4.462,-4.5495,-4.5923,-4.5958,-4.5918,-4.5819,-4.7251,-4.8084,-4.824,-4.974,-5.0587,-5.0837,-5.0837,-5.1722,-5.33,-5.3318,-5.4241,-5.5742,-5.5818,-5.6165,-5.6665,-5.7225,-5.8127,-5.9281,-6.0127,-6.0589,-6.0781,-3.1055,-3.0852,-3.0796,-3.0788,-3.0824,-3.081,-3.0753,-3.2144,-3.3963,-3.615,-3.7185,-4.2044,-5.3491,-5.3304,-5.4913,-6.1298,-6.0108,-5.7481,-5.372,-4.9252,-4.6644,-4.6414,-4.3769,-4.2265,-4.2268,-4.1531,-4.044,-3.8984,-3.6826,-3.5754,-3.5732,-3.4948,-3.5009,-3.5801,-3.5872,-3.9751,-4.6242,-4.6782,-5.0326,-5.5605,-5.6032,-5.6854,-5.7687,-5.5427,-5.6036,-5.8226,-5.9053,-6.0221,-6.1353,-6.1277,-6.2,-6.2166,-5.7366,-5.5055,-5.3147,-4.8297,-4.6163,-4.532,-4.5266,-4.3426,-4.2219,-4.5268,-4.0119,-3.5109,-3.7986,-3.4526,-3.0672,-3.067,-3.0637,-3.0582,-3.0574,-3.052,-3.051,-3.05,-3.043,0.0,0.0,-3.1111,-3.2484,-3.5037,-3.6951,-3.802,-3.798,-3.9761,-4.0882,-4.0868,-4.0951,-4.1721,-4.3397,-4.3593,-4.4414,-4.6054,-4.6093,-4.603,-4.5909,-4.6791,-4.7661,-4.8509,-4.9375,-5.0279,-5.1106,-5.1106,-5.2011,-5.3591,-5.3589,-5.4434,-5.5895,-5.6109,-5.6032,-5.5895,-5.7726,-5.8418,-5.8434,-5.9242,-6.0089,-6.0781,-3.2372,-3.1928,-3.1477,-3.0973,-3.1278,-3.1763,-3.229,-3.3534,-3.6266,-4.1342,-4.2197,-4.7597,-6.1379,-5.9673,-6.0587,-6.832,-6.5114,-6.2546,-6.2203,-5.7427,-5.5352,-5.7198,-5.166,-4.8491,-4.8309,-4.5268,-4.2942,-4.1342,-3.8684,-3.7644,-3.8109,-3.6828,-3.6125,-3.5961,-3.7375,-4.0886,-4.5841,-4.8403,-5.1505,-5.4676,-5.5313,-5.4955,-5.424,-5.6209,-5.7964,-5.9475,-5.9741,-6.0352,-6.1019,-6.1019,-6.167,-6.2204,-6.0496,-5.8912,-5.7243,-5.4917,-5.3139,-5.2226,-5.3407,-5.3905,-5.3713,-5.2132,-4.8779,-4.4991,-4.1562,-3.799,-3.5123,-3.4091,-3.4581,-3.4443,-3.1854,-3.2269,-3.2392,-3.0781,-3.0548,-3.0768,0.0,-3.2508,-3.3877,-3.5238,-3.5867,-3.6671,-3.7802,-3.7473,-3.7706,-3.8967,-3.9069,-3.9843,-4.166,-4.2949,-4.4414,-4.6172,-4.6211,-4.617,-4.6036,-4.6899,-4.7712,-4.8514,-4.9382,-5.0274,-5.114,-5.1645,-5.2512,-5.3612,-5.4233,-5.5073,-5.6078,-5.6175,-5.6425,-5.6946,-5.8065,-5.8803,-5.938,-6.0089,-6.055,-6.0781,-3.3537,-3.2923,-3.2304,-3.1457,-3.2603,-3.3683,-3.3916,-3.7233,-4.0912,-4.4241,-4.8334,-5.4909,-6.5308,-6.552,-6.7516,-7.4133,-7.0882,-6.8015,-6.699,-6.3268,-6.1209,-6.152,-5.706,-5.4278,-5.3681,-4.9491,-4.6417,-4.469,-4.1216,-3.9586,-3.9663,-3.8558,-3.7605,-3.6913,-3.8549,-4.148,-4.531,-4.9022,-5.2155,-5.4776,-5.5861,-5.5407,-5.4454,-5.7194,-5.8359,-5.8678,-5.9917,-6.0725,-6.132,-6.1589,-6.2281,-6.2974,-6.2974,-6.2131,-6.1019,-6.0137,-5.9026,-5.8362,-5.9574,-5.9996,-5.9651,-5.7681,-5.4583,-5.0855,-4.6458,-4.3052,-4.0454,-3.9135,-3.8796,-3.804,-3.5842,-3.4788,-3.3677,-3.2096,-3.1188,-3.0969,0.0,-3.3045,-3.4195,-3.4943,-3.5264,-3.5849,-3.698,-3.6305,-3.6171,-3.7088,-3.7416,-3.8537,-4.0758,-4.1968,-4.3743,-4.6211,-4.6289,-4.625,-4.6172,-4.6719,-4.7571,-4.8644,-4.9217,-5.0069,-5.1245,-5.2064,-5.2929,-5.3787,-5.4651,-5.5503,-5.6301,-5.6675,-5.7063,-5.7503,-5.8629,-5.9359,-5.9881,-6.055,-6.0781,-6.0781,-3.4417,-3.3843,-3.3203,-3.2376,-3.4652,-3.6326,-3.5611,-4.2455,-4.7061,-4.5213,-5.506,-6.3156,-6.5767,-7.0973,-7.5441,-7.8405,-7.7194,-7.4001,-6.8622,-6.7012,-6.4409,-6.0231,-6.0159,-5.9607,-5.8316,-5.4037,-5.0937,-4.9124,-4.4299,-4.1531,-4.0617,-4.0014,-3.9303,-3.8539,-3.9356,-4.1574,-4.4927,-4.8526,-5.2318,-5.6097,-5.7769,-5.8335,-5.8174,-5.8335,-5.7251,-5.6107,-5.9565,-6.132,-6.2127,-6.2935,-6.3782,-6.4474,-6.4512,-6.4589,-6.4436,-6.3628,-6.3397,-6.3435,-6.3397,-6.1593,-6.0123,-6.1834,-5.735,-5.2587,-5.2601,-4.9547,-4.6434,-4.5494,-4.3139,-4.1446,-4.2044,-3.8055,-3.4631,-3.4381,-3.2377,-3.1086,-3.1856,-3.271,-3.3519,-3.4186,-3.5044,-3.5572,-3.5451,-3.6161,-3.6301,-3.55,-3.6166,-3.7817,-4.0631,-4.0849,-4.2524,-4.6094,-4.6289,-4.6328,-4.6367,-4.6367,-4.7226,-4.8945,-4.8945,-4.9805,-5.1445,-5.2344,-5.3203,-5.4062,-5.4961,-5.5742,-5.6484,-5.7478,-5.7741,-5.7663,-5.9359,-5.9946,-5.9958,-6.055,-6.0781,-6.0819,-3.531,-3.472,-3.4287,-3.4012,-3.5908,-3.7609,-3.807,-4.0457,-4.4524,-5.0936,-5.7004,-6.3339,-7.0317,-7.5927,-7.925,-7.947,-7.9103,-7.8196,-7.655,-7.448,-7.272,-7.1426,-6.9148,-6.6935,-6.4893,-5.8486,-5.5123,-5.5093,-4.6968,-4.3322,-4.3918,-4.1656,-3.984,-3.8533,-3.9331,-4.1552,-4.4841,-4.708,-5.1468,-5.7066,-5.9281,-5.8965,-5.7397,-5.9412,-5.8658,-5.6875,-5.9758,-6.0935,-6.1166,-6.1358,-6.2012,-6.2858,-6.3435,-6.4089,-6.4551,-6.432,-6.4743,-6.5089,-6.4576,-6.4397,-6.4372,-6.4334,-6.153,-5.8489,-5.7256,-5.4619,-5.1857,-4.986,-4.9187,-4.7689,-4.3656,-4.221,-4.0214,-3.5894,-3.3766,-3.2681,-3.285,-3.3627,-3.4429,-3.5083,-3.5403,-3.5791,-3.6228,-3.5921,-3.6113,-3.7133,-3.6779,-3.7715,-4.0492,-4.1305,-4.2759,-4.5117,-4.5898,-4.6601,-4.7266,-4.7266,-4.8125,-4.9883,-4.9883,-5.0391,-5.1445,-5.2969,-5.3789,-5.4062,-5.5625,-5.6367,-5.6601,-5.7532,-5.8228,-5.884,-5.9762,-6.0376,-6.0727,-6.0781,-6.0781,-6.0896,-3.693,-3.5885,-3.524,-3.5193,-3.7637,-4.0377,-4.2716,-4.5899,-5.0128,-5.5921,-6.3089,-6.8766,-7.1505,-7.7965,-8.1801,-8.1353,-8.0947,-8.0225,-7.8966,-7.8266,-7.7071,-7.5178,-7.3666,-7.1632,-6.9122,-6.2445,-5.8578,-5.7596,-4.9836,-4.5982,-4.5851,-4.3633,-4.1924,-4.074,-4.075,-4.2066,-4.444,-4.7959,-5.1979,-5.6242,-5.8704,-5.8773,0.0,-5.9142,-5.9219,-5.875,-6.0258,-6.0781,-6.0858,-6.1243,-6.1935,-6.2704,-6.3166,-6.3897,-6.4551,-6.4128,-6.4436,-6.482,-6.4397,-6.4663,-6.4986,-6.4638,-6.3461,-6.1973,-6.0248,-5.8725,-5.718,-5.5457,-5.4344,-5.2569,-4.9022,-4.6706,-4.3323,-3.714,-3.4551,-3.329,-3.323,-3.3954,-3.4602,-3.4936,-3.5338,-3.5971,-3.7049,-3.6727,-3.6688,-3.7233,-3.7474,-3.8678,-4.1119,-4.1351,-4.2461,-4.4773,-4.6471,-4.7029,-4.6345,-4.8279,-4.9375,-4.9609,-5.0,-5.082,-5.1992,-5.3398,-5.4219,-5.4648,-5.6015,-5.6836,-5.7226,-5.8125,-5.8945,-5.9802,-6.0423,-6.1039,-6.155,-6.1396,-6.1358,-6.1473,-3.8798,-3.7452,-3.6668,-3.6915,-4.0095,-4.4323,-4.9381,-5.4392,-5.8295,-6.0263,-6.9905,-7.5169,-7.1323,-7.8467,-8.3408,-8.3057,-8.2594,-8.1327,-7.8995,-8.0061,-7.9198,-7.5615,-7.5876,-7.4941,-7.23,-6.6097,-6.1649,-5.9102,-5.2702,-4.8789,-4.7217,-4.5621,-4.4424,-4.3561,-4.2749,-4.3039,-4.444,-4.9885,-5.3227,-5.5075,-5.7726,-5.8835,-5.8865,-5.8835,-5.9781,-6.1089,-6.1012,-6.0896,-6.0935,-6.1666,-6.2474,-6.3166,-6.3281,-6.382,-6.432,-6.3705,-6.3551,-6.3603,-6.3641,-6.3748,-6.3832,-6.3842,-6.4006,-6.3698,-6.2073,-6.1801,-6.1601,-6.0742,-5.8476,-5.6367,-5.5345,-5.0603,-4.4805,-3.8672,-3.5655,-3.3945,-3.3524,-3.4435,-3.4999,-3.4494,-3.5492,0.0,-3.764,-3.7732,-3.751,-3.7031,-3.8244,-3.983,-4.1775,-4.1174,-4.1986,-4.46,-4.7086,-4.7474,-4.5618,-4.9352,-5.0661,-4.9492,-5.0078,-5.1172,-5.2734,-5.3594,-5.4492,-5.5351,-5.6211,-5.7109,-5.7969,-5.8828,-5.9726,-6.0624,-6.1112,-6.1756,-6.2358,-6.232,-6.2358,-6.2551,-4.0248,-3.9916,-4.0289,-4.2181,-4.4582,-4.9522,-5.9204,-5.7037,-5.6877,-6.3981,-6.9508,-7.2997,-7.3517,-7.9925,-8.3685,-8.2332,-8.3179,-8.3521,-8.2935,-8.2482,-8.1843,-8.0941,-7.9747,-7.8481,-7.727,-6.9436,-6.5229,-6.494,-5.5403,-5.0356,-4.9545,-4.7029,-4.5026,-4.3519,-4.3419,-4.4569,-4.6879,-5.0622,-5.3953,-5.6982,-6.0142,-6.182,-6.2334,-6.1666,-6.2012,-6.2781,-6.2089,-6.1396,-6.0819,-6.0973,-6.1589,-6.2435,-6.3089,-6.3397,-6.3666,-6.4334,-6.4103,-6.3641,-6.3924,-6.4037,-6.4058,-6.4163,-6.4239,-6.3989,-6.2974,-6.2766,-6.2539,-6.164,-6.0508,-5.8905,-5.6458,-5.1014,-4.566,-4.1841,-3.9655,-3.745,-3.4697,-3.6829,-3.785,-3.5581,-3.7964,-3.9031,-3.7117,-3.6842,-3.7632,-3.9555,-3.9273,-3.9521,-4.0735,-4.1306,-4.2188,-4.3535,-4.5518,-4.7747,-5.0192,-5.033,-5.1328,-5.3086,-5.1797,-5.1719,-5.2734,-5.3594,-5.4492,-5.5351,-5.6211,-5.7109,-5.7969,-5.8828,-6.0117,-6.1484,-6.1481,-6.1985,-6.2752,-6.3166,-6.3743,-6.4345,-4.1885,-4.0849,-4.0604,-4.2514,-4.7038,-5.3119,-6.111,-6.2645,-6.4892,-7.0448,-7.3527,-7.5589,-7.6718,-8.129,-8.3937,-8.3047,-8.3642,-8.3773,-8.31,-8.2677,-8.2207,-8.1708,-8.09,-7.9669,-7.79,-7.1337,-6.7102,-6.5408,-5.7324,-5.2394,0.0,-4.8692,-4.6779,-4.487,-4.5755,-4.6729,-4.8005,-5.2282,-5.5286,-5.7461,-6.0766,-6.2589,-6.3281,-6.2858,-6.2974,-6.3243,-6.2858,-6.2435,-6.2089,-6.2089,-6.2397,-6.2704,-6.2704,-6.2743,-6.2781,-6.282,-6.2666,-6.2551,-6.2704,-6.2799,-6.2873,-6.2922,-6.2969,-6.2851,-6.2422,-6.2344,-6.2226,-6.1797,-6.1367,-6.0351,-5.8047,-5.3007,-4.871,-4.7075,-4.3516,-4.0385,-3.8735,-3.9518,-3.9616,-3.7831,-3.947,-4.023,-3.8942,-3.8344,-3.8501,-3.9682,-3.978,-4.0202,-4.1229,-4.12,-4.203,-4.3944,-4.6675,-4.8028,-4.7936,-5.1654,-5.2746,-5.1261,-5.2262,-5.3203,-5.4062,-5.4492,-5.5156,-5.6015,-5.6914,-5.7773,-5.8672,-5.9961,-6.0976,-6.168,-6.1562,-6.2309,-6.3476,-6.3652,-6.4518,-6.5615,-4.5955,-4.403,-4.2931,-4.5414,-5.0822,-5.6727,-6.2443,-6.8455,-7.3452,-7.6536,-7.8027,-7.9149,-7.9953,-8.2671,-8.4188,-8.3669,-8.3944,-8.3598,-8.2369,-8.2285,-8.1939,-8.1131,-8.1093,-8.0054,-7.7861,-7.3014,-6.8794,-6.5217,-5.9288,-5.457,-5.1022,-4.9985,-4.849,-4.6688,-4.8281,-4.9156,-4.9774,-5.4053,-5.6773,-5.8392,-6.1212,-6.2974,-6.382,-6.3666,-6.3705,-6.382,-6.3628,-6.3705,-6.3858,-6.3858,-6.3743,-6.3512,-6.2858,-6.2627,-6.2474,-6.1858,-6.1589,-6.1505,-6.1524,-6.1607,-6.1719,-6.1719,-6.1719,-6.1719,-6.1719,-6.1719,-6.1719,-6.1719,-6.1562,-6.0976,-5.9492,-5.5664,-5.2381,-5.1355,-4.6784,-4.3031,-4.2071,-4.1995,-4.1412,-3.9818,-4.1147,-4.1912,-4.1156,-4.0165,-3.9658,-3.9777,-4.0261,-4.0962,-4.1938,-4.1084,-4.1822,-4.4589,-4.7158,-4.7815,-4.6378,-5.2244,-5.3578,-5.0405,-5.2845,-5.4453,-5.5312,-5.5312,-5.5898,-5.6914,-5.7617,-5.8476,-5.957,-6.1094,-6.1719,-6.1719,-6.1797,-6.2758,-6.4131,-6.4117,-6.5097,-6.6448,-5.5341,-5.3321,-5.2513,-5.7733,-5.9127,-6.1733,-6.8512,-7.2381,-7.5922,-7.9813,-8.0488,-8.1094,-8.2395,-8.4012,-8.4431,-8.2909,-8.4016,-8.4099,-8.2401,-8.2285,-8.1939,-8.1131,-8.1093,-8.0631,-7.9592,-7.5361,-7.1353,-6.7659,-6.1876,-5.6582,-5.1753,-5.0262,-4.9123,-4.8344,-4.983,-5.1797,-5.4072,-5.5307,-5.8081,-6.1728,-6.2781,-6.4166,-6.5551,-6.4782,-6.4974,-6.5551,-6.4743,-6.4974,-6.5667,-6.5667,-6.5205,-6.4653,-6.4576,-6.4152,-6.3666,-6.3795,-6.268,-6.1523,-6.1654,-6.1677,-6.1719,-6.1719,-6.1719,-6.1719,-6.1719,-6.1719,-6.1719,-6.1719,-6.1055,-6.0469,-6.0273,-5.8476,-5.5731,-5.1833,-4.8699,-4.5385,-4.1568,-4.3704,-4.4219,-4.0187,-4.387,-4.5499,-4.2303,-4.1119,-4.09,-4.1672,-4.1012,-4.0989,-4.184,-4.1114,-4.1873,-4.4526,-4.4214,-4.6527,-5.1815,-5.1107,-5.2429,-5.5859,-5.4609,-5.4453,-5.5312,-5.5312,-5.6211,-5.7773,-5.7851,-5.8828,-6.0351,-6.1328,-6.1719,-6.1797,-6.2578,-6.3436,-6.436,-6.4939,-6.5756,-6.6651,-5.9775,-5.8902,-5.8539,-6.175,-6.4799,-6.8212,-7.2469,-7.5565,-7.8706,-8.2187,-8.2679,-8.3013,-8.402,-8.4632,-8.4703,-8.409,-8.361,-8.3054,-8.2362,-8.1862,-8.1439,-8.1093,-8.1093,-8.0708,-7.9823,-7.613,-7.2429,-6.8829,-6.4392,-5.9971,-5.5654,-5.4454,-5.3186,-5.2005,-5.3242,-5.4821,-5.6729,-5.8187,-6.0673,-6.3666,-6.4512,-6.5551,-6.659,-6.6244,-6.6013,-6.5859,-6.5513,-6.559,-6.5897,-6.5974,-6.5499,-6.4806,-6.4806,-6.4446,-6.3869,-6.346,-6.287,-6.2313,-6.183,-6.1719,-6.1719,-6.1719,-6.1719,-6.1719,-6.1719,-6.1719,-6.1719,-6.1719,-6.1406,-6.1172,-6.1172,-6.0156,-5.8538,-5.6265,-5.329,-5.0264,-4.743,-4.7893,-4.7484,-4.4666,-4.5718,-4.6137,-4.4694,-4.2776,-4.1978,-4.2807,-4.1506,-4.0822,-4.1158,-4.2419,-4.4071,-4.6162,-4.7456,-4.9356,-5.1843,-5.2784,-5.3575,-5.4268,-5.5153,-5.6015,-5.6875,-5.6875,-5.7773,-5.9414,-5.9414,-6.0078,-6.1211,-6.1562,-6.1992,-6.25,-6.2851,-6.3867,-6.5117,-6.5372,-6.6369,-6.7608,-6.5447,-6.486,-6.4476,-6.6577,-6.987,-7.2945,-7.4862,-7.7796,-8.0611,-8.3104,-8.3639,-8.4173,-8.5137,-8.5247,-8.517,-8.4939,-8.3785,-8.2862,-8.2324,-8.1785,-8.1362,-8.1093,-8.1093,-8.0823,-8.0208,-7.7092,-7.3841,-7.0604,-6.7046,-6.3023,-5.8611,-5.7364,-5.6337,-5.5553,-5.6708,-5.8104,-5.9651,-6.0964,-6.3012,-6.5397,-6.6013,-6.6744,-6.7475,-6.7475,-6.6974,-6.6244,-6.6244,-6.609,-6.5897,-6.6051,-6.5735,-6.5269,-6.5317,-6.4964,-6.4394,-6.3812,-6.331,-6.2851,-6.2265,-6.1914,-6.1719,-6.1719,-6.1719,-6.1719,-6.1719,-6.1719,-6.1719,-6.1719,-6.1719,-6.1719,-6.1719,-6.1211,-6.0301,-5.8849,-5.6211,-5.3602,-5.1412,-5.0742,-4.972,-4.7671,-4.7357,-4.7145,-4.659,-4.4637,-4.3723,-4.4544,-4.297,-4.1806,-4.1489,-4.3048,-4.4855,-4.6872,-4.8525,-5.0256,-5.2122,-5.3731,-5.4562,-5.4611,-5.6481,-5.7695,-5.8281,-5.8515,-5.9297,-6.039,-6.0664,-6.1133,-6.1719,-6.1719,-6.2226,-6.3047,-6.3281,-6.4453,-6.6015,-6.6289,-6.7305,-6.8592,-7.379,-7.2067,-7.1017,-7.4296,-7.4686,-7.4888,-7.5772,-7.8838,-8.14,-8.2208,-8.3054,-8.4247,-8.5901,-8.6094,-8.5786,-8.4978,-8.4901,-8.4132,-8.2401,-8.2285,-8.1939,-8.1131,-8.1093,-8.1093,-8.1093,-7.8592,-7.6015,-7.3476,-6.9903,-6.5252,-5.9639,-5.7851,-5.7489,-5.8432,-5.9864,-6.1543,-6.3243,-6.3281,-6.4743,-6.7051,-6.709,-6.7628,-6.8398,-6.8398,-6.7859,-6.709,-6.709,-6.6551,-6.5897,-6.6051,-6.6225,-6.6397,-6.6537,-6.61,-6.5586,-6.5586,-6.4336,-6.3008,-6.3008,-6.2344,-6.1719,-6.1719,-6.1719,-6.1719,-6.1719,-6.1719,-6.1719,-6.1719,-6.1719,-6.1719,-6.1719,-6.168,-6.082,-5.8164,-5.63,-5.4274,-5.159,-5.1307,-5.0391,-4.771,-4.8989,-4.9361,-4.7583,-4.6639,-4.6465,-4.7222,-4.5774,-4.4409,-4.3414,-4.2626,-4.3405,-4.5929,-4.5287,-4.7777,-5.3818,-5.3113,-5.4874,-5.9101,-5.914,-5.918,-5.9219,-6.0,-6.039,-6.0469,-6.1328,-6.168,-6.1719,-6.1719,-6.2226,-6.3086,-6.3945,-6.5351,-6.6992,-6.7851,-6.8672,-6.9492,-7.6446,-7.6733,-7.6752,-7.8217,-7.8769,-7.9523,-8.0907,-8.1593,-8.2631,-8.4632,-8.4632,-8.4901,-8.5978,-8.5093,-8.4516,-8.4863,-8.3324,-8.2324,-8.2285,-8.1785,-8.1362,-8.1093,-8.1093,-8.1093,-8.1093,-7.9708,-7.7746,-7.5207,-7.3398,-7.0354,-6.6288,-6.5268,-6.4616,-6.4354,-6.4257,-6.4834,-6.5897,-6.5897,-6.7051,-6.8859,-6.8859,-6.9052,-6.9206,-6.8629,-6.8244,-6.7898,-6.7321,-6.7321,-6.7628,-6.777,-6.7541,-6.7267,-6.7448,-6.7009,-6.6367,-6.5781,-6.5195,-6.4492,-6.332,-6.2812,-6.2422,-6.1836,-6.1719,-6.1719,-6.1719,-6.1719,-6.1719,-6.1719,-6.1719,-6.1719,-6.1719,-6.1211,-6.0312,-5.8828,-5.7718,-5.6101,-5.3377,-5.3104,-5.2395,-5.0316,-5.0082,-5.0102,-5.014,-4.8815,-4.8337,-4.9166,-4.8184,-4.7116,-4.6095,-4.7008,-4.8738,-5.1317,-5.2317,-5.4359,-5.7494,-5.6627,-5.7196,-5.9219,-5.9219,-5.9492,-6.0039,-6.0898,-6.1289,-6.1289,-6.1562,-6.1719,-6.1758,-6.2344,-6.3086,-6.3984,-6.4844,-6.625,-6.7812,-6.8086,-6.9101,-7.0312,-7.8177,-7.9369,-8.0144,-8.0428,-8.1321,-8.2285,-8.2978,-8.2939,-8.3478,-8.5401,-8.5478,-8.5555,-8.6055,-8.517,-8.4747,-8.5286,-8.3632,-8.2593,-8.2785,-8.2016,-8.14,-8.1093,-8.1093,-8.1093,-8.1093,-8.0246,-7.9015,-7.7438,-7.5503,-7.3321,-7.094,-6.9833,-6.9052,-6.8513,-6.8013,-6.8244,-6.9013,-6.9013,-6.9821,-7.1129,-7.1129,-7.0937,-7.0591,-7.0014,-6.9436,-6.8821,-6.8282,-6.8205,-6.8436,-6.8552,-6.832,-6.8041,-6.8302,-6.8093,-6.7539,-6.6406,-6.5859,-6.5351,-6.4258,-6.375,-6.3359,-6.2812,-6.2695,-6.2578,-6.2265,-6.1953,-6.1719,-6.1719,-6.1719,-6.1719,-6.1719,-6.125,-6.0508,-5.9258,-5.8672,-5.7575,-5.5192,-5.4623,-5.3923,-5.2434,-5.1874,-5.1635,-5.1888,-5.1206,-5.0972,-5.1492,-5.075,-5.0257,-5.0285,-5.0469,-5.1452,-5.3399,-5.5163,-5.7056,-5.9147,-5.8562,-5.8895,-6.0156,-6.0156,-6.0586,-6.1406,-6.1953,-6.2383,-6.2695,-6.2695,-6.2695,-6.2734,-6.3242,-6.3984,-6.4844,-6.539,-6.6836,-6.8633,-6.8672,-6.9765,-7.1172,-7.9058,-8.0325,-8.127,-8.1222,-8.2516,-8.3362,-8.2593,-8.317,-8.4016,-8.4939,-8.5747,-8.6209,-8.6286,-8.6247,-8.6209,-8.6209,-8.5363,-8.4439,-8.3478,-8.2708,-8.1939,-8.1131,-8.1093,-8.1093,-8.1093,-8.0323,-7.99,-7.99,-7.663,-7.4668,-7.3899,-7.2168,-7.1321,-7.1321,-7.1283,-7.1706,-7.2437,-7.2437,-7.2937,-7.3668,-7.363,-7.3091,-7.236,-7.2245,-7.1283,-6.9937,-6.9821,-6.9321,-6.8667,-6.8717,-6.8756,-6.8829,-6.9139,-6.9256,-6.8984,-6.75,-6.6445,-6.5781,-6.5703,-6.5039,-6.4375,-6.4336,-6.4297,-6.4101,-6.3281,-6.2461,-6.1875,-6.1797,-6.1797,-6.1758,-6.1719,-6.1601,-6.1015,-5.9453,-5.9101,-5.8398,-5.6562,-5.5742,-5.4917,-5.3928,-5.401,-5.3891,-5.3117,-5.3736,-5.4183,-5.4151,-5.3426,-5.3635,-5.5119,-5.3104,-5.2308,-5.3149,-5.4732,-5.6776,-5.924,-5.9279,-6.0115,-6.1797,-6.1836,-6.2305,-6.3086,-6.3086,-6.3515,-6.4297,-6.4297,-6.4297,-6.4297,-6.4375,-6.4883,-6.5703,-6.5742,-6.7305,-6.9492,-6.957,-7.0664,-7.2109,-7.8962,-8.0016,-8.0984,-8.1848,-8.2901,-8.3747,-8.4209,-8.4478,-8.5132,-8.6594,-8.6978,-8.7363,-8.8017,-8.7478,-8.7094,-8.7094,-8.5132,-8.3285,-8.1785,-8.2054,-8.1939,-8.1131,-8.1093,-8.1093,-8.1093,-8.09,-8.0785,-8.0785,-7.9323,-7.8515,-7.8284,-7.6592,-7.5784,-7.5745,-7.5091,-7.4899,-7.5091,-7.5091,-7.5207,-7.5361,-7.4668,-7.4284,-7.3976,-7.2668,-7.236,-7.2437,-7.1091,-7.0898,-7.1206,-7.0591,-7.0448,-7.0502,-6.9933,-6.9924,-6.9961,-6.914,-6.8281,-6.7422,-6.6758,-6.5976,-6.5117,-6.4453,-6.4297,-6.4258,-6.4023,-6.3828,-6.3515,-6.2812,-6.2695,-6.25,-6.1836,-6.0664,-5.9648,-5.9258,-5.8086,-5.6367,-5.3945,-5.4609,-5.4726,-5.3161,-5.4755,-5.6156,-5.663,-5.6241,-5.6245,-5.6834,-5.6138,-5.5549,-5.5294,-5.7177,-5.8072,-5.7655,-5.863,-5.9801,-6.1088,-6.1088,-6.1638,-6.2695,-6.3359,-6.3789,-6.3984,-6.3984,-6.4101,-6.4297,-6.4297,-6.4297,-6.4336,-6.5039,-6.582,-6.664,-6.7305,-6.8711,-7.039,-7.039,-7.1523,-7.3008,-7.9451,-8.049,-8.142,-8.2693,-8.3901,-8.4901,-8.5401,-8.5786,-8.6517,-8.7825,-8.8325,-8.8594,-8.8671,-8.8594,-8.8055,-8.6901,-8.5209,-8.3632,-8.2324,-8.2285,-8.1939,-8.1131,-8.1093,-8.1093,-8.1093,-8.1093,-8.1093,-8.1093,-8.0631,-8.0208,-7.9785,-7.8861,-7.8246,-7.7823,-7.7361,-7.713,-7.713,-7.713,-7.713,-7.7092,-7.663,-7.5976,-7.5207,-7.4284,-7.3745,-7.3399,-7.2437,-7.2399,-7.2706,-7.2245,-7.2168,-7.2178,-7.1755,-7.1841,-7.1934,-7.1281,-6.9961,-6.8633,-6.8203,-6.7734,-6.7187,-6.6289,-6.5781,-6.539,-6.5,-6.4609,-6.418,-6.3672,-6.3281,-6.2851,-6.2383,-6.0898,-5.9648,-5.9258,-5.8086,-5.6562,-5.4726,-5.5625,-5.6133,-5.5195,-5.6676,-5.7964,-5.8437,-5.8086,-5.7969,-5.8398,-5.804,-5.7586,-5.7127,-5.9183,-5.9832,-5.8633,-6.0156,-6.1406,-6.2305,-6.2695,-6.3125,-6.3594,-6.4492,-6.5117,-6.5508,-6.5508,-6.5703,-6.6055,-6.5664,-6.5703,-6.6133,-6.6601,-6.7265,-6.8086,-6.8594,-6.957,-7.0703,-7.0703,-7.1797,-7.3281,-8.0139,-8.1339,-8.2423,-8.3576,-8.517,-8.6286,-8.6286,-8.7055,-8.7902,-8.8748,-8.9479,-8.971,-8.9133,-8.9556,-8.8979,-8.6709,-8.5747,-8.4786,-8.367,-8.3016,-8.2285,-8.1323,-8.1285,-8.1208,-8.1093,-8.1093,-8.1093,-8.1093,-8.1093,-8.0708,-8.0015,-8.0015,-7.9592,-7.89,-7.89,-7.89,-7.89,-7.89,-7.89,-7.8861,-7.8746,-7.7823,-7.6553,-7.6284,-7.5322,-7.4053,-7.3783,-7.3668,-7.3668,-7.3553,-7.3591,-7.3707,-7.3668,-7.3927,-7.406,-7.3367,-7.1639,-6.9922,-6.9726,-6.9609,-6.9297,-6.8594,-6.7851,-6.7109,-6.6328,-6.5586,-6.5,-6.4726,-6.4101,-6.3476,-6.3086,-6.1562,-6.0195,-5.9491,-5.8437,-5.7383,-5.6523,-5.7265,-5.7851,-5.7734,-5.8711,-5.9414,-5.957,-5.9453,-5.9453,-5.957,-5.9453,-5.9332,-5.9217,-6.008,-5.9865,-5.832,-6.0625,-6.2305,-6.3203,-6.4062,-6.457,-6.4687,-6.5586,-6.6445,-6.7305,-6.7265,-6.7695,-6.8359,-6.7617,-6.7695,-6.8398,-6.8398,-6.8867,-6.9609,-6.9648,-7.0273,-7.1094,-7.1094,-7.2187,-7.3672,-8.0311,-8.2147,-8.3829,-8.4532,-8.6094,-8.7209,-8.7209,-8.794,-8.8786,-8.9633,-8.9825,-9.0133,-9.0748,-9.0287,-8.9479,-8.8402,-8.7517,-8.6055,-8.3747,-8.417,-8.3785,-8.217,-8.2093,-8.1785,-8.1093,-8.1093,-8.1093,-8.1093,-8.1093,-8.1016,-8.09,-8.09,-8.0823,-8.0708,-8.0708,-8.0708,-8.0708,-8.0708,-8.0708,-8.0631,-7.99,-7.9438,-7.9054,-7.763,-7.6938,-7.6515,-7.5053,-7.4514,-7.4399,-7.3745,-7.3976,-7.4399,-7.3745,-7.4245,-7.495,-7.4102,-7.3309,-7.2383,-7.0898,-6.9961,-6.9414,-6.9336,-6.9219,-6.9062,-6.8867,-6.8711,-6.8203,-6.6797,-6.6406,-6.5625,-6.3398,-6.1562,-6.035,-6.021,-5.8276,-5.6484,-5.5625,-5.6875,-5.7617,-5.6875,-5.8828,-6.0508,-6.125,-6.0664,-6.0508,-6.125,-6.0625,-5.9922,-5.9256,-6.0646,-6.1026,-6.0057,-6.1833,-6.3203,-6.4101,-6.4961,-6.5781,-6.6523,-6.7383,-6.8242,-6.9101,-6.9023,-6.9101,-6.9297,-6.914,-6.914,-6.9219,-6.9219,-6.9726,-7.0508,-7.0508,-7.1484,-7.289,-7.289,-7.3984,-7.5508,-8.0273,-8.2006,-8.3601,-8.472,-8.5901,-8.7017,-8.794,-8.844,-8.9171,-9.0441,-9.0594,-9.0748,-9.1171,-9.0441,-8.9594,-8.8748,-8.7902,-8.6709,-8.5055,-8.4939,-8.4132,-8.2362,-8.2285,-8.19,-8.1131,-8.1093,-8.1093,-8.1093,-8.1093,-8.1093,-8.1093,-8.1093,-8.1093,-8.1093,-8.1093,-8.1093,-8.1093,-8.1093,-8.1093,-8.1054,-8.0669,-8.0208,-7.9708,-7.8938,-7.8361,-7.7823,-7.7053,-7.6746,-7.6669,-7.6322,-7.6438,-7.6707,-7.6438,-7.6813,-7.713,-7.591,-7.4494,-7.3008,-7.1758,-7.1094,-7.0703,-7.0273,-7.0156,-7.0039,-6.9492,-6.9414,-6.918,-6.8437,-6.7539,-6.6406,-6.4726,-6.2578,-6.0935,-6.0475,-5.9039,-5.7845,-5.7461,-5.8476,-5.9101,-5.8672,-6.0117,-6.125,-6.164,-6.1758,-6.1953,-6.2383,-6.2461,-6.2344,-6.1953,-6.2683,-6.2911,-6.2495,-6.3749,-6.4805,-6.5703,-6.6562,-6.7422,-6.832,-6.914,-6.9765,-7.0156,-7.0117,-7.0117,-7.0117,-6.9687,-6.9726,-7.0117,-7.0117,-7.0898,-7.2109,-7.2109,-7.289,-7.3984,-7.3984,-7.4805,-7.5898,-8.0509,-8.2091,-8.36,-8.495,-8.6017,-8.7171,-8.8479,-8.9017,-8.9748,-9.1018,-9.1018,-9.0979,-9.1171,-9.0441,-8.9671,-8.9017,-8.8209,-8.7325,-8.6478,-8.5632,-8.4401,-8.267,-8.2247,-8.1747,-8.1093,-8.1093,-8.1093,-8.1093,-8.1093,-8.1093,-8.1093,-8.1093,-8.1093,-8.1093,-8.1093,-8.1093,-8.1093,-8.1093,-8.1093,-8.1093,-8.1093,-8.0708,-8.0092,-7.99,-7.9361,-7.8784,-7.8554,-7.8477,-7.8477,-7.8477,-7.8477,-7.8515,-7.8738,-7.8921,-7.8902,-7.7824,-7.593,-7.3984,-7.289,-7.2617,-7.2422,-7.1758,-7.1601,-7.1445,-7.0742,-7.0625,-7.0508,-7.0156,-6.9023,-6.7656,-6.6172,-6.4101,-6.2264,-6.1193,-6.0163,-5.9464,-5.9489,-6.0195,-6.0703,-6.0703,-6.164,-6.2305,-6.2305,-6.289,-6.3281,-6.3281,-6.3906,-6.4297,-6.4297,-6.4291,-6.4485,-6.4883,-6.5547,-6.6328,-6.7187,-6.8047,-6.8906,-6.9805,-7.039,-7.082,-7.1015,-7.1015,-7.1094,-7.125,-7.043,-7.0664,-7.1601,-7.1406,-7.2226,-7.3594,-7.3594,-7.414,-7.4883,-7.4883,-7.5586,-7.6484,-8.1434,-8.3292,-8.5022,-8.5863,-8.7401,-8.8556,-8.8671,-9.0017,-9.1056,-9.1171,-9.0517,-9.0325,-9.1133,-9.0441,-8.9902,-8.9825,-8.9056,-8.8209,-8.7363,-8.6478,-8.5247,-8.3555,-8.2016,-8.117,-8.1093,-8.1093,-8.1093,-8.1093,-8.1093,-8.1093,-8.1093,-8.1093,-8.1093,-8.1093,-8.1093,-8.1093,-8.1093,-8.1093,-8.1093,-8.1093,-8.1093,-8.1054,-8.0939,-8.0131,-7.9746,-7.9592,-7.8784,-7.8477,-7.8477,-7.8477,-7.8477,-7.8515,-7.8738,-7.8921,-7.9131,-7.9185,-7.8124,-7.6562,-7.4844,-7.4414,-7.4375,-7.4336,-7.4297,-7.4297,-7.4219,-7.4219,-7.375,-7.2148,-7.1719,-7.0625,-6.7383,-6.5976,-6.4765,-6.3086,-6.1391,-6.0315,-6.0315,-6.1049,-6.1601,-6.1601,-6.3086,-6.4101,-6.4101,-6.418,-6.4219,-6.4219,-6.4258,-6.4297,-6.4297,-6.4297,-6.5039,-6.664,-6.6758,-6.7226,-6.8086,-6.8906,-6.9765,-7.0625,-7.0664,-7.1133,-7.1914,-7.1914,-7.2344,-7.3047,-7.2187,-7.2773,-7.4258,-7.3437,-7.3672,-7.4492,-7.4492,-7.5039,-7.5781,-7.5781,-7.6875,-7.8203,-8.0905,-8.3064,-8.5016,-8.5286,-8.6748,-8.7902,-8.7902,-8.9325,-9.021,-8.971,-8.9787,-9.0056,-9.0364,-8.9633,-8.9363,-8.9863,-8.9171,-8.8325,-8.744,-8.7094,-8.617,-8.4478,-8.3285,-8.2631,-8.2631,-8.2631,-8.2401,-8.1823,-8.1823,-8.1593,-8.1093,-8.1093,-8.1093,-8.1093,-8.1093,-8.1093,-8.1093,-8.1093,-8.1093,-8.1093,-8.1093,-8.1093,-8.1054,-8.0746,-8.0592,-8.0554,-8.0246,-8.0092,-8.0092,-8.0092,-8.0092,-8.0169,-8.0508,-8.0648,-8.0659,-8.0479,-7.9606,-7.8594,-7.793,-7.6211,-7.4609,-7.4609,-7.4609,-7.4609,-7.4609,-7.4609,-7.4414,-7.375,-7.2734,-7.1445,-6.9609,-6.8125,-6.664,-6.4883,-6.4061,-6.3428,-6.2896,-6.3117,-6.332,-6.332,-6.3906,-6.4297,-6.4297,-6.4805,-6.5117,-6.5117,-6.5625,-6.5898,-6.5898,-6.6406,-6.7265,-6.8476,-6.8984,-6.9414,-6.9765,-7.0039,-7.0625,-7.1523,-7.1523,-7.1953,-7.2812,-7.2812,-7.3281,-7.4101,-7.375,-7.3984,-7.457,-7.4258,-7.4609,-7.539,-7.539,-7.5937,-7.6758,-7.7305,-7.793,-7.8515,-8.0452,-8.2645,-8.4593,-8.4863,-8.6286,-8.7401,-8.7401,-8.8594,-8.9325,-8.8748,-8.894,-8.921,-8.9479,-8.8786,-8.8632,-8.944,-8.8786,-8.8017,-8.744,-8.7132,-8.6363,-8.4978,-8.4055,-8.3593,-8.3593,-8.3593,-8.3285,-8.2708,-8.2708,-8.2439,-8.19,-8.19,-8.1747,-8.1477,-8.1477,-8.1323,-8.1093,-8.1093,-8.1093,-8.1093,-8.1093,-8.1093,-8.1093,-8.1093,-8.1093,-8.1093,-8.1093,-8.1093,-8.1093,-8.1093,-8.1093,-8.117,-8.1554,-8.1769,-8.1763,-8.1167,-8.0586,-8.0039,-7.9765,-7.8008,-7.6211,-7.6211,-7.6211,-7.6211,-7.6211,-7.6015,-7.5742,-7.5469,-7.4258,-7.2851,-7.1719,-7.0586,-6.914,-6.7148,-6.6797,-6.6405,-6.5258,-6.5349,-6.5508,-6.5508,-6.5742,-6.5898,-6.5937,-6.6445,-6.668,-6.6445,-6.7187,-6.7695,-6.7734,-6.8281,-6.8984,-6.9844,-7.039,-7.0976,-7.1523,-7.1523,-7.1836,-7.2422,-7.2695,-7.3125,-7.3711,-7.3711,-7.418,-7.5,-7.4726,-7.4922,-7.539,-7.5117,-7.5508,-7.6328,-7.6328,-7.668,-7.7305,-7.8164,-7.8672,-7.8945,-8.0339,-8.2148,-8.3862,-8.4747,-8.6286,-8.7401,-8.7401,-8.8132,-8.8709,-8.8671,-8.794,-8.7709,-8.8594,-8.7902,-8.7748,-8.8632,-8.7902,-8.7401,-8.7401,-8.6594,-8.5747,-8.4978,-8.4093,-8.3593,-8.3593,-8.3593,-8.3593,-8.3593,-8.3593,-8.3593,-8.3593,-8.3593,-8.3131,-8.2324,-8.2324,-8.1862,-8.1131,-8.1131,-8.1131,-8.1131,-8.1093,-8.1093,-8.1131,-8.1093,-8.1093,-8.1093,-8.1093,-8.1093,-8.1093,-8.1093,-8.1093,-8.117,-8.1585,-8.1981,-8.2148,-8.125,-8.1015,-8.082,-7.9961,-7.9726,-7.9726,-7.9687,-7.9687,-7.9687,-7.9687,-7.9062,-7.8242,-7.7383,-7.6523,-7.539,-7.3633,-7.332,-7.25,-6.9922,-6.9453,-6.8828,-6.7148,-6.7656,-6.8203,-6.8203,-6.8906,-6.9414,-6.9492,-6.9453,-6.9062,-6.8281,-6.8945,-6.9414,-6.9492,-6.9492,-6.9883,-7.0703,-7.0703,-7.1562,-7.3281,-7.3281,-7.3281,-7.332,-7.418,-7.4609,-7.4609,-7.4609,-7.5078,-7.5859,-7.5,-7.5586,-7.7148,-7.6289,-7.6406,-7.7187,-7.7226,-7.7226,-7.7305,-7.8203,-7.9023,-7.9726,-8.0452,-8.2645,-8.4593,-8.4863,-8.6286,-8.7171,-8.6594,-8.7748,-8.8248,-8.7055,-8.7171,-8.7517,-8.7748,-8.7555,-8.7748,-8.8632,-8.844,-8.8286,-8.8286,-8.7478,-8.7171,-8.7555,-8.6132,-8.5363,-8.5363,-8.5363,-8.5093,-8.4516,-8.4516,-8.4209,-8.3593,-8.3593,-8.3439,-8.3208,-8.3208,-8.3093,-8.2862,-8.2862,-8.2862,-8.2785,-8.217,-8.2324,-8.2708,-8.1554,-8.1439,-8.1862,-8.1285,-8.1093,-8.1093,-8.1093,-8.1093,-8.1146,-8.1569,-8.1878,-8.207,-8.1953,-8.1914,-8.1875,-8.1601,-8.1523,-8.1211,-8.0,-7.9687,-7.9687,-7.9687,-7.9492,-7.9258,-7.9023,-7.8281,-7.7383,-7.625,-7.5547,-7.4492,-7.25,-7.164,-7.0859,-6.9726,-6.9297,-6.9101,-6.9101,-6.9297,-6.9414,-6.9492,-6.9492,-6.9336,-6.9062,-6.9258,-6.9687,-7.0312,-7.0351,-7.1015,-7.2461,-7.2539,-7.3086,-7.4219,-7.3594,-7.3594,-7.4219,-7.4492,-7.4922,-7.5508,-7.5508,-7.5976,-7.6797,-7.6523,-7.6719,-7.7187,-7.6914,-7.6953,-7.7265,-7.7851,-7.8125,-7.8281,-7.9726,-8.039,-8.0703,-8.0067,-8.2205,-8.4128,-8.4435,-8.5804,-8.6594,-8.5747,-8.6786,-8.7171,-8.5786,-8.6363,-8.6901,-8.6901,-8.6901,-8.7248,-8.8094,-8.8479,-8.8825,-8.9133,-8.8363,-8.8286,-8.9133,-8.7863,-8.7132,-8.7132,-8.7132,-8.6709,-8.5901,-8.5901,-8.544,-8.4593,-8.4593,-8.4401,-8.4093,-8.4093,-8.3901,-8.3593,-8.3593,-8.3593,-8.3555,-8.3016,-8.3131,-8.3478,-8.2477,-8.2401,-8.2747,-8.2247,-8.1862,-8.1554,-8.1554,-8.1631,-8.1685,-8.1693,-8.205,-8.25,-8.2344,-8.2304,-8.2304,-8.2304,-8.2304,-8.2031,-8.0976,-8.0742,-8.0742,-8.0742,-8.0469,-8.0195,-8.0195,-7.9531,-7.8711,-7.7851,-7.7539,-7.6719,-7.4648,-7.418,-7.3633,-7.2422,-7.1836,-7.1523,-7.1523,-7.1172,-7.0976,-7.1015,-7.1015,-7.0976,-7.0937,-7.0625,-7.0664,-7.1172,-7.1523,-7.2226,-7.3281,-7.3633,-7.4219,-7.5117,-7.4922,-7.4922,-7.5117,-7.5469,-7.5898,-7.6406,-7.6406,-7.6719,-7.7187,-7.7187,-7.7187,-7.7226,-7.7578,-7.7695,-7.7812,-7.8633,-7.8984,-7.914,-8.0508,-8.1015,-8.1133,-7.9352,-8.117,-8.2868,-8.3671,-8.4977,-8.5647,-8.4835,-8.545,-8.5719,-8.4912,-8.556,-8.6132,-8.6209,-8.6209,-8.6555,-8.744,-8.8325,-8.9133,-8.9863,-8.921,-8.9171,-8.9979,-8.9248,-8.8825,-8.8902,-8.8786,-8.8286,-8.7517,-8.744,-8.6978,-8.6209,-8.6132,-8.5709,-8.5016,-8.5016,-8.4555,-8.3824,-8.3824,-8.3824,-8.3824,-8.3747,-8.3747,-8.3785,-8.367,-8.3632,-8.3708,-8.3632,-8.3016,-8.2285,-8.2285,-8.2477,-8.2593,-8.2093,-8.2587,-8.3279,-8.2695,-8.2461,-8.2422,-8.2422,-8.2344,-8.2304,-8.2304,-8.2304,-8.2304,-8.2304,-8.1679,-8.1133,-8.1133,-8.0469,-7.9687,-7.8867,-7.9336,-7.9023,-7.664,-7.6836,-7.6719,-7.5078,-7.4765,-7.4687,-7.4609,-7.3906,-7.3437,-7.3437,-7.3437,-7.3437,-7.3437,-7.2695,-7.2226,-7.2226,-7.2969,-7.3437,-7.3515,-7.4297,-7.5156,-7.6133,-7.6914,-7.6914,-7.6133,-7.6992,-7.7383,-7.7305,-7.7305,-7.7265,-7.7187,-7.7187,-7.7226,-7.7383,-7.8164,-7.8555,-7.8672,-7.9492,-7.9805,-7.9922,-8.0781,-8.1133,-8.1211,-7.9352,-8.0781,-8.2134,-8.279,-8.384,-8.4285,-8.3295,-8.4404,-8.5015,-8.4213,-8.5273,-8.6363,-8.7055,-8.7132,-8.7478,-8.8325,-8.9171,-8.971,-8.9902,-8.9748,-9.0017,-9.0902,-9.0094,-8.9979,-9.0633,-8.9363,-8.8594,-8.8402,-8.7709,-8.7286,-8.7094,-8.644,-8.6017,-8.5863,-8.5863,-8.5747,-8.5555,-8.5555,-8.5555,-8.5517,-8.4863,-8.5016,-8.5401,-8.4093,-8.4016,-8.4516,-8.3862,-8.3016,-8.2285,-8.2285,-8.2785,-8.3401,-8.3625,-8.3801,-8.4044,-8.425,-8.3867,-8.332,-8.332,-8.2812,-8.2304,-8.2304,-8.2304,-8.2304,-8.2304,-8.2148,-8.2031,-8.2031,-8.1875,-8.1484,-8.0625,-8.0586,-8.0312,-7.9062,-7.8515,-7.7851,-7.6797,-7.6055,-7.5351,-7.4687,-7.4414,-7.4336,-7.4336,-7.4336,-7.4336,-7.4336,-7.414,-7.4023,-7.4023,-7.4219,-7.4648,-7.5312,-7.5508,-7.6367,-7.793,-7.8125,-7.8125,-7.7969,-7.8789,-7.8828,-7.8203,-7.8203,-7.7851,-7.7187,-7.7187,-7.7578,-7.8242,-7.8437,-7.8867,-7.9531,-8.039,-8.0703,-8.082,-8.1719,-8.2031,-8.2031,-7.9496,-8.0488,-8.1708,-8.3119,-8.3852,-8.4097,-8.3792,-8.4518,-8.4935,-8.4441,-8.5382,-8.6286,-8.6748,-8.7132,-8.7902,-8.9171,-9.0056,-9.0517,-9.0517,-9.0517,-9.0556,-9.0594,-9.0556,-9.0556,-9.0594,-9.0133,-8.9671,-8.9286,-8.844,-8.7825,-8.7401,-8.694,-8.6709,-8.6748,-8.7132,-8.7094,-8.6709,-8.6709,-8.6478,-8.6055,-8.5632,-8.5709,-8.6017,-8.5132,-8.5093,-8.5401,-8.4978,-8.4247,-8.3478,-8.3054,-8.3516,-8.4209,-8.4093,-8.4403,-8.4805,-8.4753,-8.4492,-8.414,-8.3711,-8.3281,-8.2929,-8.2929,-8.2617,-8.2304,-8.2304,-8.2304,-8.2304,-8.2304,-8.2304,-8.2031,-8.1172,-8.1328,-8.1211,-7.9922,-7.9687,-7.9375,-7.8515,-7.8008,-7.7539,-7.7109,-7.6328,-7.5664,-7.5273,-7.5234,-7.5234,-7.5234,-7.5234,-7.5039,-7.4609,-7.5,-7.543,-7.5898,-7.6719,-7.7578,-7.8476,-7.9297,-7.9687,-7.9687,-7.9687,-7.9297,-7.8515,-7.8515,-7.8008,-7.7226,-7.7656,-7.8086,-7.8555,-7.9375,-7.9922,-8.039,-8.1289,-8.1601,-8.1679,-8.2148,-8.2304,-8.2304,-7.9727,-8.058,-8.1724,-8.3586,-8.4087,-8.4256,-8.4509,-8.4863,-8.5015,-8.4771,-8.556,-8.617,-8.6324,-8.7209,-8.844,-8.9979,-9.0787,-9.121,-9.121,-9.121,-9.0902,-9.0171,-9.0825,-9.0864,-9.0133,-9.0825,-9.0864,-9.0133,-8.9286,-8.8517,-8.7825,-8.7671,-8.7632,-8.7632,-8.8363,-8.8286,-8.7632,-8.7632,-8.7132,-8.6324,-8.6324,-8.6247,-8.6094,-8.6094,-8.6094,-8.6094,-8.6094,-8.567,-8.4978,-8.4093,-8.4401,-8.5016,-8.4516,-8.4997,-8.5633,-8.5179,-8.5078,-8.4961,-8.4258,-8.3945,-8.3789,-8.3633,-8.3047,-8.2461,-8.2344,-8.2304,-8.2304,-8.2304,-8.2304,-8.207,-8.1367,-8.1797,-8.1836,-8.039,-8.0742,-8.0937,-8.0039,-7.9922,-7.9883,-7.9726,-7.8359,-7.707,-7.6211,-7.6133,-7.6172,-7.6328,-7.6328,-7.6015,-7.5312,-7.5937,-7.6289,-7.6133,-7.7656,-7.8555,-7.8711,-8.0234,-8.1054,-8.1211,-8.0508,-7.9726,-7.8945,-7.8945,-7.8437,-7.7656,-7.8398,-7.8789,-7.9023,-8.0429,-8.1094,-8.1289,-8.2031,-8.2304,-8.2304,-8.2304,-8.2304,-8.2304,-8.0267,-8.157,-8.2652,-8.2817,-8.3612,-8.3928,-8.3139,-8.417,-8.4856,-8.4135,-8.5238,-8.6401,-8.7132,-8.8632,-8.9979,-9.0941,-9.1133,-9.121,-9.121,-9.121,-9.1171,-9.1018,-9.1133,-9.1133,-9.1018,-9.1133,-9.1133,-9.1018,-9.0171,-8.9671,-8.9556,-8.8863,-8.8517,-8.8517,-8.8632,-8.8632,-8.8517,-8.8517,-8.8017,-8.7209,-8.7209,-8.6786,-8.6094,-8.6094,-8.6094,-8.6094,-8.6094,-8.6017,-8.5824,-8.5016,-8.5247,-8.5978,-8.6094,-8.6384,-8.6621,-8.6711,-8.6406,-8.6015,-8.5898,-8.5312,-8.4531,-8.3789,-8.3515,-8.3242,-8.2461,-8.2304,-8.2304,-8.2304,-8.2304,-8.2265,-8.2148,-8.2226,-8.2226,-8.1992,-8.2031,-8.1836,-8.0937,-8.082,-8.0547,-7.9805,-7.8906,-7.7969,-7.7109,-7.7031,-7.7344,-7.8086,-7.8164,-7.8086,-7.7969,-7.8086,-7.7812,-7.7031,-7.7969,-7.8828,-7.9531,-8.0508,-8.1367,-8.2109,-8.1992,-8.1484,-8.0664,-8.0664,-8.0195,-7.9375,-7.9492,-7.9961,-8.0664,-8.0898,-8.1445,-8.2148,-8.2265,-8.2304,-8.2304,-8.2304,-8.2304,-8.2304,-8.1708,-8.2368,-8.3133,-8.3853,-8.3733,-8.3566,-8.3868,-8.4213,-8.444,-8.4476,-8.542,-8.6247,-8.6632,-8.8209,-8.9556,-9.0402,-9.0479,-9.0287,-8.9825,-9.021,-9.0287,-8.9825,-9.071,-9.0979,-9.0479,-9.0941,-9.121,-9.121,-9.0325,-8.9902,-8.9902,-8.9556,-8.9363,-8.9402,-8.9863,-8.9825,-8.9325,-8.8902,-8.8209,-8.7363,-8.6863,-8.644,-8.617,-8.6632,-8.6824,-8.6901,-8.7363,-8.7248,-8.6786,-8.6401,-8.6209,-8.6132,-8.6247,-8.6858,-8.7426,-8.7025,-8.7236,-8.7383,-8.6445,-8.5937,-8.5547,-8.5156,-8.4687,-8.4336,-8.4453,-8.4101,-8.3476,-8.25,-8.2304,-8.2304,-8.2304,-8.2304,-8.2304,-8.2304,-8.2304,-8.2187,-8.1797,-8.1719,-8.1406,-8.0547,-8.0117,-7.9531,-7.8672,-7.8203,-7.8281,-7.9101,-7.875,-7.8711,-7.914,-7.918,-7.8984,-7.8594,-7.9453,-8.0078,-8.0429,-8.1289,-8.1914,-8.2304,-8.2304,-8.1836,-8.1015,-8.1015,-8.0508,-7.9726,-8.0195,-8.0625,-8.1054,-8.1523,-8.1953,-8.2304,-8.2304,-8.2304,-8.2304,-8.2304,-8.2304,-8.2304]}]]